Wetterdaten: Freitag, 05.05.2017
Datum Zeit Temp. A. Pool Temp. Feuchte A. Luftdruck Regen Wind Richtung Richtung Sonnenschein ET UV Solar Taupunkt Windchill Windben Empfang
05.05.2017 00:00 9,5 C 15,0 C 94 % 1014,1 hPa 0,0 l/m 8,4 km/h (2 Bft) SW 227 0 min 0,000 mm 0,0 UV-I 0 W/m 8,6 C 8,1 C 12,9 km/h (3 Bft) 100,00 %
05.05.2017 00:02 9,5 C 15,0 C 94 % 1014,1 hPa 0,0 l/m 8,7 km/h (2 Bft) S-SW 198 0 min 0,000 mm 0,0 UV-I 0 W/m 8,6 C 7,9 C 14,5 km/h (3 Bft) 96,97 %
05.05.2017 00:04 9,6 C 15,0 C 94 % 1014,1 hPa 0,0 l/m 8,8 km/h (2 Bft) S 173 0 min 0,000 mm 0,0 UV-I 0 W/m 8,7 C 7,9 C 14,5 km/h (3 Bft) 98,08 %
05.05.2017 00:06 9,6 C 15,0 C 94 % 1014,1 hPa 0,0 l/m 8,6 km/h (2 Bft) SW 225 0 min 0,000 mm 0,0 UV-I 0 W/m 8,7 C 8,0 C 12,9 km/h (3 Bft) 100,00 %
05.05.2017 00:08 9,6 C 15,0 C 94 % 1014,2 hPa 0,0 l/m 8,1 km/h (2 Bft) SW 229 0 min 0,000 mm 0,0 UV-I 0 W/m 8,7 C 8,4 C 12,9 km/h (3 Bft) 97,62 %
05.05.2017 00:10 9,6 C 15,0 C 94 % 1014,2 hPa 0,0 l/m 7,2 km/h (2 Bft) SW 230 0 min 0,000 mm 0,0 UV-I 0 W/m 8,7 C 9,0 C 11,3 km/h (2 Bft) 98,00 %
05.05.2017 00:12 9,6 C 15,0 C 94 % 1014,2 hPa 0,0 l/m 7,4 km/h (2 Bft) W-SW 239 0 min 0,000 mm 0,0 UV-I 0 W/m 8,7 C 8,9 C 12,9 km/h (3 Bft) 98,00 %
05.05.2017 00:14 9,6 C 15,0 C 94 % 1014,2 hPa 0,0 l/m 7,7 km/h (2 Bft) SW 218 0 min 0,000 mm 0,0 UV-I 0 W/m 8,7 C 8,6 C 12,9 km/h (3 Bft) 100,00 %
05.05.2017 00:16 9,6 C 15,0 C 94 % 1014,2 hPa 0,0 l/m 9,6 km/h (2 Bft) SW 227 0 min 0,000 mm 0,0 UV-I 0 W/m 8,7 C 7,4 C 16,1 km/h (3 Bft) 98,00 %
05.05.2017 00:18 9,6 C 15,0 C 94 % 1014,2 hPa 0,0 l/m 6,3 km/h (2 Bft) S-SW 201 0 min 0,000 mm 0,0 UV-I 0 W/m 8,7 C 9,6 C 14,5 km/h (3 Bft) 97,56 %
05.05.2017 00:20 9,6 C 15,0 C 94 % 1014,2 hPa 0,0 l/m 6,8 km/h (2 Bft) SW 219 0 min 0,000 mm 0,0 UV-I 0 W/m 8,7 C 9,3 C 9,7 km/h (2 Bft) 92,11 %
05.05.2017 00:22 9,6 C 15,0 C 94 % 1014,2 hPa 0,0 l/m 6,8 km/h (2 Bft) W-SW 238 0 min 0,000 mm 0,0 UV-I 0 W/m 8,7 C 9,3 C 9,7 km/h (2 Bft) 100,00 %
05.05.2017 00:24 9,6 C 15,0 C 93 % 1014,2 hPa 0,0 l/m 5,3 km/h (1 Bft) SW 232 0 min 0,000 mm 0,0 UV-I 0 W/m 8,5 C 9,6 C 8,0 km/h (2 Bft) 100,00 %
05.05.2017 00:26 9,6 C 15,0 C 93 % 1014,2 hPa 0,0 l/m 5,8 km/h (2 Bft) SW 219 0 min 0,000 mm 0,0 UV-I 0 W/m 8,5 C 9,6 C 9,7 km/h (2 Bft) 100,00 %
05.05.2017 00:28 9,6 C 15,0 C 93 % 1014,2 hPa 0,0 l/m 7,1 km/h (2 Bft) S-SW 198 0 min 0,000 mm 0,0 UV-I 0 W/m 8,5 C 9,1 C 11,3 km/h (2 Bft) 98,53 %
05.05.2017 00:30 9,6 C 15,0 C 93 % 1014,2 hPa 0,0 l/m 6,1 km/h (2 Bft) SW 218 0 min 0,000 mm 0,0 UV-I 0 W/m 8,5 C 9,6 C 9,7 km/h (2 Bft) 100,00 %
05.05.2017 00:32 9,6 C 15,0 C 93 % 1014,2 hPa 0,0 l/m 8,9 km/h (2 Bft) W-SW 240 0 min 0,000 mm 0,0 UV-I 0 W/m 8,5 C 7,8 C 12,9 km/h (3 Bft) 94,29 %
05.05.2017 00:34 9,6 C 15,0 C 93 % 1014,2 hPa 0,0 l/m 8,7 km/h (2 Bft) SW 225 0 min 0,000 mm 0,0 UV-I 0 W/m 8,5 C 8,0 C 14,5 km/h (3 Bft) 98,11 %
05.05.2017 00:36 9,6 C 15,0 C 93 % 1014,2 hPa 0,0 l/m 7,6 km/h (2 Bft) W-SW 249 0 min 0,000 mm 0,0 UV-I 0 W/m 8,5 C 8,7 C 14,5 km/h (3 Bft) 100,00 %
05.05.2017 00:38 9,6 C 15,0 C 93 % 1014,2 hPa 0,0 l/m 8,8 km/h (2 Bft) SW 232 0 min 0,000 mm 0,0 UV-I 0 W/m 8,5 C 7,9 C 14,5 km/h (3 Bft) 97,87 %
05.05.2017 00:40 9,6 C 15,0 C 93 % 1014,2 hPa 0,0 l/m 8,0 km/h (2 Bft) W-SW 246 0 min 0,000 mm 0,0 UV-I 0 W/m 8,5 C 8,4 C 11,3 km/h (2 Bft) 100,00 %
05.05.2017 00:42 9,6 C 15,0 C 93 % 1014,2 hPa 0,0 l/m 9,6 km/h (2 Bft) SW 232 0 min 0,000 mm 0,0 UV-I 0 W/m 8,5 C 7,4 C 16,1 km/h (3 Bft) 97,56 %
05.05.2017 00:44 9,6 C 15,0 C 93 % 1014,2 hPa 0,0 l/m 9,1 km/h (2 Bft) W-SW 246 0 min 0,000 mm 0,0 UV-I 0 W/m 8,5 C 7,7 C 16,1 km/h (3 Bft) 97,87 %
05.05.2017 00:46 9,6 C 15,0 C 93 % 1014,2 hPa 0,0 l/m 10,9 km/h (2 Bft) SW 235 0 min 0,000 mm 0,0 UV-I 0 W/m 8,5 C 6,6 C 20,9 km/h (4 Bft) 97,44 %
05.05.2017 00:48 9,5 C 15,0 C 93 % 1014,2 hPa 0,0 l/m 12,7 km/h (3 Bft) W-SW 238 0 min 0,000 mm 0,0 UV-I 0 W/m 8,4 C 5,6 C 19,3 km/h (3 Bft) 100,00 %
05.05.2017 00:50 9,5 C 15,0 C 93 % 1014,2 hPa 0,0 l/m 13,2 km/h (3 Bft) SW 232 0 min 0,000 mm 0,0 UV-I 0 W/m 8,4 C 5,3 C 19,3 km/h (3 Bft) 98,00 %
05.05.2017 00:52 9,5 C 15,0 C 93 % 1014,2 hPa 0,0 l/m 11,7 km/h (2 Bft) S-SW 211 0 min 0,000 mm 0,0 UV-I 0 W/m 8,4 C 6,1 C 16,1 km/h (3 Bft) 100,00 %
05.05.2017 00:54 9,5 C 15,0 C 93 % 1014,1 hPa 0,0 l/m 8,2 km/h (2 Bft) SW 215 0 min 0,000 mm 0,0 UV-I 0 W/m 8,4 C 8,2 C 12,9 km/h (3 Bft) 97,87 %
05.05.2017 00:56 9,5 C 15,0 C 93 % 1014,2 hPa 0,0 l/m 10,4 km/h (2 Bft) SW 234 0 min 0,000 mm 0,0 UV-I 0 W/m 8,4 C 6,8 C 16,1 km/h (3 Bft) 97,56 %
05.05.2017 00:58 9,5 C 15,0 C 93 % 1014,2 hPa 0,0 l/m 10,5 km/h (2 Bft) S-SW 205 0 min 0,000 mm 0,0 UV-I 0 W/m 8,4 C 6,8 C 16,1 km/h (3 Bft) 98,00 %
05.05.2017 01:00 9,5 C 15,0 C 93 % 1014,1 hPa 0,0 l/m 9,7 km/h (2 Bft) S-SW 206 0 min 0,000 mm 0,0 UV-I 0 W/m 8,4 C 7,2 C 14,5 km/h (3 Bft) 98,11 %
05.05.2017 01:02 9,5 C 15,0 C 93 % 1014,1 hPa 0,0 l/m 8,7 km/h (2 Bft) SW 229 0 min 0,000 mm 0,0 UV-I 0 W/m 8,4 C 7,9 C 14,5 km/h (3 Bft) 97,37 %
05.05.2017 01:04 9,5 C 15,0 C 93 % 1014,2 hPa 0,0 l/m 8,1 km/h (2 Bft) SW 216 0 min 0,000 mm 0,0 UV-I 0 W/m 8,4 C 8,3 C 11,3 km/h (2 Bft) 98,21 %
05.05.2017 01:06 9,5 C 15,0 C 93 % 1014,2 hPa 0,0 l/m 8,0 km/h (2 Bft) SW 219 0 min 0,000 mm 0,0 UV-I 0 W/m 8,4 C 8,3 C 11,3 km/h (2 Bft) 93,18 %
05.05.2017 01:08 9,5 C 15,0 C 93 % 1014,2 hPa 0,0 l/m 6,3 km/h (2 Bft) W-SW 246 0 min 0,000 mm 0,0 UV-I 0 W/m 8,4 C 9,5 C 11,3 km/h (2 Bft) 96,23 %
05.05.2017 01:10 9,4 C 15,0 C 93 % 1014,2 hPa 0,0 l/m 6,5 km/h (2 Bft) S-SW 209 0 min 0,000 mm 0,0 UV-I 0 W/m 8,3 C 9,4 C 8,0 km/h (2 Bft) 94,74 %
05.05.2017 01:12 9,4 C 15,0 C 93 % 1014,2 hPa 0,0 l/m 7,0 km/h (2 Bft) S-SW 207 0 min 0,000 mm 0,0 UV-I 0 W/m 8,3 C 9,0 C 9,7 km/h (2 Bft) 97,87 %
05.05.2017 01:14 9,4 C 15,0 C 93 % 1014,2 hPa 0,0 l/m 6,6 km/h (2 Bft) SW 236 0 min 0,000 mm 0,0 UV-I 0 W/m 8,3 C 9,3 C 11,3 km/h (2 Bft) 95,74 %
05.05.2017 01:16 9,4 C 15,0 C 93 % 1014,2 hPa 0,0 l/m 8,8 km/h (2 Bft) SW 231 0 min 0,000 mm 0,0 UV-I 0 W/m 8,3 C 7,7 C 14,5 km/h (3 Bft) 98,11 %
05.05.2017 01:18 9,4 C 15,0 C 93 % 1014,2 hPa 0,0 l/m 7,2 km/h (2 Bft) S-SW 213 0 min 0,000 mm 0,0 UV-I 0 W/m 8,3 C 8,8 C 12,9 km/h (3 Bft) 97,56 %
05.05.2017 01:20 9,4 C 15,0 C 93 % 1014,2 hPa 0,0 l/m 6,8 km/h (2 Bft) SW 234 0 min 0,000 mm 0,0 UV-I 0 W/m 8,3 C 9,1 C 11,3 km/h (2 Bft) 98,00 %
05.05.2017 01:22 9,4 C 15,0 C 93 % 1014,3 hPa 0,0 l/m 8,4 km/h (2 Bft) SW 226 0 min 0,000 mm 0,0 UV-I 0 W/m 8,3 C 7,9 C 12,9 km/h (3 Bft) 95,12 %
05.05.2017 01:24 9,4 C 15,0 C 93 % 1014,3 hPa 0,0 l/m 7,7 km/h (2 Bft) S-SW 211 0 min 0,000 mm 0,0 UV-I 0 W/m 8,3 C 8,4 C 14,5 km/h (3 Bft) 95,83 %
05.05.2017 01:26 9,4 C 15,0 C 93 % 1014,3 hPa 0,0 l/m 7,6 km/h (2 Bft) W 263 0 min 0,000 mm 0,0 UV-I 0 W/m 8,3 C 8,5 C 12,9 km/h (3 Bft) 96,36 %
05.05.2017 01:28 9,3 C 15,0 C 93 % 1014,3 hPa 0,0 l/m 11,5 km/h (2 Bft) SW 235 0 min 0,000 mm 0,0 UV-I 0 W/m 8,2 C 6,0 C 20,9 km/h (4 Bft) 100,00 %
05.05.2017 01:30 9,3 C 15,0 C 93 % 1014,4 hPa 0,0 l/m 8,4 km/h (2 Bft) W-SW 244 0 min 0,000 mm 0,0 UV-I 0 W/m 8,2 C 7,8 C 14,5 km/h (3 Bft) 95,16 %
05.05.2017 01:32 9,3 C 15,0 C 93 % 1014,4 hPa 0,0 l/m 13,7 km/h (3 Bft) SW 221 0 min 0,000 mm 0,0 UV-I 0 W/m 8,2 C 4,9 C 20,9 km/h (4 Bft) 96,23 %
05.05.2017 01:34 9,3 C 15,0 C 93 % 1014,4 hPa 0,0 l/m 8,4 km/h (2 Bft) SW 232 0 min 0,000 mm 0,0 UV-I 0 W/m 8,2 C 7,8 C 14,5 km/h (3 Bft) 92,31 %
05.05.2017 01:36 9,3 C 15,0 C 92 % 1014,4 hPa 0,0 l/m 11,3 km/h (2 Bft) W-SW 249 0 min 0,000 mm 0,0 UV-I 0 W/m 8,1 C 6,1 C 16,1 km/h (3 Bft) 97,18 %
05.05.2017 01:38 9,3 C 15,0 C 92 % 1014,4 hPa 0,0 l/m 10,5 km/h (2 Bft) SW 229 0 min 0,000 mm 0,0 UV-I 0 W/m 8,1 C 6,5 C 16,1 km/h (3 Bft) 97,56 %
05.05.2017 01:40 9,3 C 15,0 C 92 % 1014,4 hPa 0,0 l/m 13,9 km/h (3 Bft) W 261 0 min 0,000 mm 0,0 UV-I 0 W/m 8,1 C 4,8 C 20,9 km/h (4 Bft) 100,00 %
05.05.2017 01:42 9,3 C 15,0 C 92 % 1014,4 hPa 0,0 l/m 13,8 km/h (3 Bft) S-SW 194 0 min 0,000 mm 0,0 UV-I 0 W/m 8,1 C 4,8 C 20,9 km/h (4 Bft) 98,00 %
05.05.2017 01:44 9,3 C 15,0 C 92 % 1014,4 hPa 0,0 l/m 14,0 km/h (3 Bft) SW 232 0 min 0,000 mm 0,0 UV-I 0 W/m 8,1 C 4,7 C 24,1 km/h (4 Bft) 100,00 %
05.05.2017 01:46 9,3 C 15,0 C 92 % 1014,4 hPa 0,0 l/m 12,1 km/h (2 Bft) SW 219 0 min 0,000 mm 0,0 UV-I 0 W/m 8,1 C 5,7 C 19,3 km/h (3 Bft) 97,87 %
05.05.2017 01:48 9,3 C 15,0 C 92 % 1014,4 hPa 0,0 l/m 12,5 km/h (3 Bft) SW 229 0 min 0,000 mm 0,0 UV-I 0 W/m 8,1 C 5,5 C 20,9 km/h (4 Bft) 100,00 %
05.05.2017 01:50 9,3 C 15,0 C 92 % 1014,4 hPa 0,0 l/m 15,6 km/h (3 Bft) SW 226 0 min 0,000 mm 0,0 UV-I 0 W/m 8,1 C 4,0 C 20,9 km/h (4 Bft) 98,00 %
05.05.2017 01:52 9,3 C 15,0 C 91 % 1014,4 hPa 0,0 l/m 16,1 km/h (3 Bft) SW 236 0 min 0,000 mm 0,0 UV-I 0 W/m 7,9 C 3,8 C 22,5 km/h (4 Bft) 100,00 %
05.05.2017 01:54 9,3 C 15,0 C 91 % 1014,5 hPa 0,0 l/m 13,8 km/h (3 Bft) W-SW 240 0 min 0,000 mm 0,0 UV-I 0 W/m 7,9 C 4,8 C 24,1 km/h (4 Bft) 98,31 %
05.05.2017 01:56 9,3 C 15,0 C 91 % 1014,5 hPa 0,0 l/m 12,3 km/h (3 Bft) W-SW 244 0 min 0,000 mm 0,0 UV-I 0 W/m 7,9 C 5,6 C 19,3 km/h (3 Bft) 97,37 %
05.05.2017 01:58 9,3 C 15,0 C 91 % 1014,4 hPa 0,0 l/m 14,3 km/h (3 Bft) W-SW 242 0 min 0,000 mm 0,0 UV-I 0 W/m 7,9 C 4,6 C 25,7 km/h (4 Bft) 97,87 %
05.05.2017 02:00 9,3 C 15,0 C 91 % 1014,4 hPa 0,0 l/m 15,2 km/h (3 Bft) W-SW 240 0 min 0,000 mm 0,0 UV-I 0 W/m 7,9 C 4,2 C 22,5 km/h (4 Bft) 97,87 %
05.05.2017 02:02 9,3 C 15,0 C 91 % 1014,5 hPa 0,0 l/m 13,9 km/h (3 Bft) W-SW 240 0 min 0,000 mm 0,0 UV-I 0 W/m 7,9 C 4,8 C 19,3 km/h (3 Bft) 98,00 %
05.05.2017 02:04 9,3 C 15,0 C 91 % 1014,4 hPa 0,0 l/m 14,6 km/h (3 Bft) SW 214 0 min 0,000 mm 0,0 UV-I 0 W/m 7,9 C 4,5 C 24,1 km/h (4 Bft) 97,92 %
05.05.2017 02:06 9,3 C 15,0 C 90 % 1014,4 hPa 0,0 l/m 12,8 km/h (3 Bft) SW 233 0 min 0,000 mm 0,0 UV-I 0 W/m 7,7 C 5,3 C 17,7 km/h (3 Bft) 100,00 %
05.05.2017 02:08 9,3 C 15,0 C 91 % 1014,4 hPa 0,0 l/m 13,8 km/h (3 Bft) SW 219 0 min 0,000 mm 0,0 UV-I 0 W/m 7,9 C 4,8 C 22,5 km/h (4 Bft) 98,53 %
05.05.2017 02:10 9,3 C 15,0 C 91 % 1014,4 hPa 0,0 l/m 10,4 km/h (2 Bft) SW 227 0 min 0,000 mm 0,0 UV-I 0 W/m 7,9 C 6,6 C 14,5 km/h (3 Bft) 100,00 %
05.05.2017 02:12 9,3 C 15,0 C 91 % 1014,5 hPa 0,0 l/m 10,0 km/h (2 Bft) SW 218 0 min 0,000 mm 0,0 UV-I 0 W/m 7,9 C 6,8 C 16,1 km/h (3 Bft) 98,00 %
05.05.2017 02:14 9,2 C 15,0 C 91 % 1014,5 hPa 0,0 l/m 11,6 km/h (2 Bft) SW 234 0 min 0,000 mm 0,0 UV-I 0 W/m 7,8 C 5,8 C 17,7 km/h (3 Bft) 100,00 %
05.05.2017 02:16 9,2 C 15,0 C 91 % 1014,4 hPa 0,0 l/m 15,2 km/h (3 Bft) SW 236 0 min 0,000 mm 0,0 UV-I 0 W/m 7,8 C 4,1 C 19,3 km/h (3 Bft) 97,37 %
05.05.2017 02:18 9,2 C 15,0 C 91 % 1014,4 hPa 0,0 l/m 12,3 km/h (3 Bft) SW 217 0 min 0,000 mm 0,0 UV-I 0 W/m 7,8 C 5,4 C 17,7 km/h (3 Bft) 96,00 %
05.05.2017 02:20 9,2 C 15,0 C 91 % 1014,4 hPa 0,0 l/m 12,5 km/h (3 Bft) S-SW 207 0 min 0,000 mm 0,0 UV-I 0 W/m 7,8 C 5,3 C 16,1 km/h (3 Bft) 100,00 %
05.05.2017 02:22 9,2 C 15,0 C 91 % 1014,4 hPa 0,0 l/m 14,3 km/h (3 Bft) W-SW 248 0 min 0,000 mm 0,0 UV-I 0 W/m 7,8 C 4,5 C 24,1 km/h (4 Bft) 94,74 %
05.05.2017 02:24 9,2 C 15,0 C 91 % 1014,4 hPa 0,0 l/m 13,5 km/h (3 Bft) W 259 0 min 0,000 mm 0,0 UV-I 0 W/m 7,8 C 4,8 C 25,7 km/h (4 Bft) 98,11 %
05.05.2017 02:26 9,2 C 15,0 C 91 % 1014,4 hPa 0,0 l/m 12,5 km/h (3 Bft) SW 215 0 min 0,000 mm 0,0 UV-I 0 W/m 7,8 C 5,3 C 25,7 km/h (4 Bft) 95,45 %
05.05.2017 02:28 9,2 C 15,0 C 91 % 1014,4 hPa 0,0 l/m 10,9 km/h (2 Bft) SW 224 0 min 0,000 mm 0,0 UV-I 0 W/m 7,8 C 6,2 C 17,7 km/h (3 Bft) 95,74 %
05.05.2017 02:30 9,2 C 15,0 C 91 % 1014,4 hPa 0,0 l/m 11,3 km/h (2 Bft) SW 233 0 min 0,000 mm 0,0 UV-I 0 W/m 7,8 C 6,0 C 20,9 km/h (4 Bft) 95,12 %
05.05.2017 02:32 9,2 C 15,0 C 91 % 1014,4 hPa 0,0 l/m 12,1 km/h (2 Bft) W-SW 239 0 min 0,000 mm 0,0 UV-I 0 W/m 7,8 C 5,5 C 17,7 km/h (3 Bft) 95,83 %
05.05.2017 02:34 9,2 C 15,0 C 91 % 1014,4 hPa 0,0 l/m 13,2 km/h (3 Bft) SW 236 0 min 0,000 mm 0,0 UV-I 0 W/m 7,8 C 5,0 C 17,7 km/h (3 Bft) 98,21 %
05.05.2017 02:36 9,2 C 15,0 C 91 % 1014,4 hPa 0,0 l/m 15,0 km/h (3 Bft) SW 232 0 min 0,000 mm 0,0 UV-I 0 W/m 7,8 C 4,2 C 24,1 km/h (4 Bft) 95,12 %
05.05.2017 02:38 9,2 C 15,0 C 90 % 1014,5 hPa 0,0 l/m 13,6 km/h (3 Bft) SW 221 0 min 0,000 mm 0,0 UV-I 0 W/m 7,6 C 4,8 C 19,3 km/h (3 Bft) 96,23 %
05.05.2017 02:40 9,2 C 15,0 C 90 % 1014,4 hPa 0,0 l/m 15,4 km/h (3 Bft) SW 236 0 min 0,000 mm 0,0 UV-I 0 W/m 7,6 C 4,0 C 19,3 km/h (3 Bft) 95,12 %
05.05.2017 02:42 9,2 C 15,0 C 90 % 1014,4 hPa 0,0 l/m 13,4 km/h (3 Bft) S 186 0 min 0,000 mm 0,0 UV-I 0 W/m 7,6 C 4,9 C 22,5 km/h (4 Bft) 96,23 %
05.05.2017 02:44 9,2 C 15,0 C 90 % 1014,4 hPa 0,0 l/m 16,0 km/h (3 Bft) SW 236 0 min 0,000 mm 0,0 UV-I 0 W/m 7,6 C 3,7 C 20,9 km/h (4 Bft) 100,00 %
05.05.2017 02:46 9,2 C 15,0 C 90 % 1014,4 hPa 0,0 l/m 12,9 km/h (3 Bft) SW 232 0 min 0,000 mm 0,0 UV-I 0 W/m 7,6 C 5,1 C 19,3 km/h (3 Bft) 95,16 %
05.05.2017 02:48 9,2 C 15,0 C 90 % 1014,4 hPa 0,0 l/m 12,8 km/h (3 Bft) W-SW 256 0 min 0,000 mm 0,0 UV-I 0 W/m 7,6 C 5,2 C 19,3 km/h (3 Bft) 94,00 %
05.05.2017 02:50 9,2 C 15,0 C 90 % 1014,4 hPa 0,0 l/m 11,6 km/h (2 Bft) S-SW 205 0 min 0,000 mm 0,0 UV-I 0 W/m 7,6 C 5,8 C 20,9 km/h (4 Bft) 94,00 %
05.05.2017 02:52 9,1 C 15,0 C 90 % 1014,4 hPa 0,0 l/m 14,4 km/h (3 Bft) S-SW 212 0 min 0,000 mm 0,0 UV-I 0 W/m 7,5 C 4,3 C 25,7 km/h (4 Bft) 97,14 %
05.05.2017 02:54 9,1 C 15,0 C 90 % 1014,4 hPa 0,0 l/m 13,6 km/h (3 Bft) W-SW 252 0 min 0,000 mm 0,0 UV-I 0 W/m 7,5 C 4,7 C 20,9 km/h (4 Bft) 96,23 %
05.05.2017 02:56 9,1 C 15,0 C 90 % 1014,4 hPa 0,0 l/m 11,8 km/h (2 Bft) W-SW 237 0 min 0,000 mm 0,0 UV-I 0 W/m 7,5 C 5,6 C 22,5 km/h (4 Bft) 95,74 %
05.05.2017 02:58 9,1 C 15,0 C 90 % 1014,4 hPa 0,0 l/m 15,9 km/h (3 Bft) W-SW 254 0 min 0,000 mm 0,0 UV-I 0 W/m 7,5 C 3,7 C 29,0 km/h (5 Bft) 92,68 %
05.05.2017 03:00 9,1 C 15,0 C 90 % 1014,4 hPa 0,0 l/m 11,2 km/h (2 Bft) SW 228 0 min 0,025 mm 0,0 UV-I 0 W/m 7,5 C 5,9 C 17,7 km/h (3 Bft) 97,87 %
05.05.2017 03:02 9,1 C 15,0 C 90 % 1014,4 hPa 0,0 l/m 13,4 km/h (3 Bft) W-SW 238 0 min 0,000 mm 0,0 UV-I 0 W/m 7,5 C 4,8 C 22,5 km/h (4 Bft) 93,62 %
05.05.2017 03:04 9,1 C 15,0 C 90 % 1014,5 hPa 0,0 l/m 13,6 km/h (3 Bft) W 259 0 min 0,000 mm 0,0 UV-I 0 W/m 7,5 C 4,7 C 20,9 km/h (4 Bft) 94,64 %
05.05.2017 03:06 9,1 C 15,0 C 90 % 1014,4 hPa 0,0 l/m 12,2 km/h (2 Bft) SW 236 0 min 0,000 mm 0,0 UV-I 0 W/m 7,5 C 5,4 C 19,3 km/h (3 Bft) 97,56 %
05.05.2017 03:08 9,1 C 15,0 C 90 % 1014,4 hPa 0,0 l/m 14,1 km/h (3 Bft) SW 217 0 min 0,000 mm 0,0 UV-I 0 W/m 7,5 C 4,4 C 20,9 km/h (4 Bft) 96,23 %
05.05.2017 03:10 9,1 C 15,0 C 90 % 1014,4 hPa 0,0 l/m 12,2 km/h (2 Bft) SW 225 0 min 0,000 mm 0,0 UV-I 0 W/m 7,5 C 5,4 C 16,1 km/h (3 Bft) 93,62 %
05.05.2017 03:12 9,1 C 15,0 C 90 % 1014,4 hPa 0,0 l/m 14,5 km/h (3 Bft) W-SW 237 0 min 0,000 mm 0,0 UV-I 0 W/m 7,5 C 4,3 C 22,5 km/h (4 Bft) 92,11 %
05.05.2017 03:14 9,1 C 15,0 C 89 % 1014,4 hPa 0,0 l/m 12,8 km/h (3 Bft) W-SW 240 0 min 0,000 mm 0,0 UV-I 0 W/m 7,4 C 5,1 C 17,7 km/h (3 Bft) 96,00 %
05.05.2017 03:16 9,1 C 15,0 C 89 % 1014,4 hPa 0,0 l/m 12,0 km/h (2 Bft) SW 227 0 min 0,000 mm 0,0 UV-I 0 W/m 7,4 C 5,5 C 17,7 km/h (3 Bft) 94,00 %
05.05.2017 03:18 9,1 C 15,0 C 89 % 1014,5 hPa 0,0 l/m 13,6 km/h (3 Bft) W-SW 240 0 min 0,000 mm 0,0 UV-I 0 W/m 7,4 C 4,7 C 19,3 km/h (3 Bft) 95,45 %
05.05.2017 03:20 9,1 C 15,0 C 89 % 1014,5 hPa 0,0 l/m 13,8 km/h (3 Bft) W-SW 241 0 min 0,000 mm 0,0 UV-I 0 W/m 7,4 C 4,6 C 20,9 km/h (4 Bft) 92,00 %
05.05.2017 03:22 9,1 C 15,0 C 89 % 1014,5 hPa 0,0 l/m 9,3 km/h (2 Bft) W-SW 242 0 min 0,000 mm 0,0 UV-I 0 W/m 7,4 C 7,0 C 12,9 km/h (3 Bft) 94,00 %
05.05.2017 03:24 9,1 C 15,0 C 89 % 1014,5 hPa 0,0 l/m 10,1 km/h (2 Bft) S-SW 202 0 min 0,000 mm 0,0 UV-I 0 W/m 7,4 C 6,5 C 16,1 km/h (3 Bft) 94,44 %
05.05.2017 03:26 9,1 C 15,0 C 90 % 1014,5 hPa 0,0 l/m 12,7 km/h (3 Bft) W-SW 248 0 min 0,000 mm 0,0 UV-I 0 W/m 7,5 C 5,1 C 17,7 km/h (3 Bft) 94,00 %
05.05.2017 03:28 9,1 C 15,0 C 90 % 1014,5 hPa 0,0 l/m 12,5 km/h (3 Bft) W-SW 252 0 min 0,000 mm 0,0 UV-I 0 W/m 7,5 C 5,2 C 17,7 km/h (3 Bft) 95,74 %
05.05.2017 03:30 9,1 C 15,0 C 90 % 1014,6 hPa 0,0 l/m 9,6 km/h (2 Bft) W-SW 242 0 min 0,000 mm 0,0 UV-I 0 W/m 7,5 C 6,8 C 14,5 km/h (3 Bft) 92,68 %
05.05.2017 03:32 9,1 C 15,0 C 89 % 1014,6 hPa 0,0 l/m 13,6 km/h (3 Bft) S-SW 196 0 min 0,000 mm 0,0 UV-I 0 W/m 7,4 C 4,7 C 19,3 km/h (3 Bft) 95,12 %
05.05.2017 03:34 9,1 C 15,0 C 89 % 1014,6 hPa 0,0 l/m 11,0 km/h (2 Bft) W-SW 254 0 min 0,000 mm 0,0 UV-I 0 W/m 7,4 C 6,0 C 14,5 km/h (3 Bft) 96,23 %
05.05.2017 03:36 9,1 C 15,0 C 89 % 1014,6 hPa 0,0 l/m 12,9 km/h (3 Bft) W-SW 244 0 min 0,000 mm 0,0 UV-I 0 W/m 7,4 C 5,0 C 17,7 km/h (3 Bft) 98,31 %
05.05.2017 03:38 9,1 C 15,0 C 89 % 1014,7 hPa 0,0 l/m 9,4 km/h (2 Bft) SW 236 0 min 0,000 mm 0,0 UV-I 0 W/m 7,4 C 7,0 C 12,9 km/h (3 Bft) 93,18 %
05.05.2017 03:40 9,1 C 15,0 C 89 % 1014,7 hPa 0,0 l/m 10,4 km/h (2 Bft) SW 227 0 min 0,000 mm 0,0 UV-I 0 W/m 7,4 C 6,4 C 14,5 km/h (3 Bft) 97,87 %
05.05.2017 03:42 9,1 C 15,0 C 89 % 1014,7 hPa 0,0 l/m 9,8 km/h (2 Bft) S-SW 196 0 min 0,000 mm 0,0 UV-I 0 W/m 7,4 C 6,7 C 14,5 km/h (3 Bft) 96,00 %
05.05.2017 03:44 9,1 C 15,0 C 89 % 1014,7 hPa 0,0 l/m 11,5 km/h (2 Bft) W-SW 240 0 min 0,000 mm 0,0 UV-I 0 W/m 7,4 C 5,7 C 17,7 km/h (3 Bft) 97,56 %
05.05.2017 03:46 9,1 C 15,0 C 89 % 1014,8 hPa 0,0 l/m 10,5 km/h (2 Bft) SW 235 0 min 0,000 mm 0,0 UV-I 0 W/m 7,4 C 6,3 C 17,7 km/h (3 Bft) 98,11 %
05.05.2017 03:48 9,1 C 15,0 C 89 % 1014,8 hPa 0,0 l/m 11,6 km/h (2 Bft) SW 223 0 min 0,000 mm 0,0 UV-I 0 W/m 7,4 C 5,7 C 17,7 km/h (3 Bft) 100,00 %
05.05.2017 03:50 9,0 C 15,0 C 89 % 1014,7 hPa 0,0 l/m 13,3 km/h (3 Bft) W-SW 238 0 min 0,000 mm 0,0 UV-I 0 W/m 7,3 C 4,7 C 19,3 km/h (3 Bft) 98,21 %
05.05.2017 03:52 9,1 C 15,0 C 89 % 1014,8 hPa 0,0 l/m 15,0 km/h (3 Bft) W-SW 239 0 min 0,000 mm 0,0 UV-I 0 W/m 7,4 C 4,0 C 22,5 km/h (4 Bft) 100,00 %
05.05.2017 03:54 9,1 C 15,0 C 89 % 1014,7 hPa 0,0 l/m 9,3 km/h (2 Bft) SW 223 0 min 0,000 mm 0,0 UV-I 0 W/m 7,4 C 7,0 C 16,1 km/h (3 Bft) 97,87 %
05.05.2017 03:56 9,1 C 15,0 C 89 % 1014,8 hPa 0,0 l/m 10,0 km/h (2 Bft) W-SW 238 0 min 0,000 mm 0,0 UV-I 0 W/m 7,4 C 6,6 C 12,9 km/h (3 Bft) 98,00 %
05.05.2017 03:58 9,0 C 15,0 C 89 % 1014,8 hPa 0,0 l/m 8,5 km/h (2 Bft) SW 221 0 min 0,000 mm 0,0 UV-I 0 W/m 7,3 C 7,5 C 12,9 km/h (3 Bft) 95,12 %
05.05.2017 04:00 9,0 C 15,0 C 89 % 1014,8 hPa 0,0 l/m 8,4 km/h (2 Bft) W-SW 242 0 min 0,026 mm 0,0 UV-I 0 W/m 7,3 C 7,5 C 14,5 km/h (3 Bft) 100,00 %
05.05.2017 04:02 9,0 C 15,0 C 90 % 1014,8 hPa 0,0 l/m 11,0 km/h (2 Bft) W 271 0 min 0,000 mm 0,0 UV-I 0 W/m 7,4 C 5,9 C 16,1 km/h (3 Bft) 96,88 %
05.05.2017 04:04 8,9 C 15,0 C 90 % 1014,8 hPa 0,0 l/m 12,6 km/h (3 Bft) W-SW 238 0 min 0,000 mm 0,0 UV-I 0 W/m 7,4 C 4,9 C 16,1 km/h (3 Bft) 100,00 %
05.05.2017 04:06 8,9 C 15,0 C 89 % 1014,8 hPa 0,0 l/m 13,2 km/h (3 Bft) S-SW 197 0 min 0,000 mm 0,0 UV-I 0 W/m 7,2 C 4,6 C 17,7 km/h (3 Bft) 100,00 %
05.05.2017 04:08 8,9 C 15,0 C 90 % 1014,9 hPa 0,0 l/m 10,4 km/h (2 Bft) SW 229 0 min 0,000 mm 0,0 UV-I 0 W/m 7,4 C 6,1 C 16,1 km/h (3 Bft) 98,21 %
05.05.2017 04:10 8,9 C 15,0 C 90 % 1014,9 hPa 0,0 l/m 11,2 km/h (2 Bft) SW 229 0 min 0,000 mm 0,0 UV-I 0 W/m 7,4 C 5,7 C 17,7 km/h (3 Bft) 94,34 %
05.05.2017 04:12 8,9 C 15,0 C 90 % 1014,9 hPa 0,0 l/m 11,5 km/h (2 Bft) W-SW 252 0 min 0,000 mm 0,0 UV-I 0 W/m 7,4 C 5,5 C 14,5 km/h (3 Bft) 97,87 %
05.05.2017 04:14 8,9 C 15,0 C 90 % 1014,9 hPa 0,0 l/m 8,2 km/h (2 Bft) SW 232 0 min 0,000 mm 0,0 UV-I 0 W/m 7,4 C 7,6 C 14,5 km/h (3 Bft) 100,00 %
05.05.2017 04:16 8,9 C 15,0 C 90 % 1014,9 hPa 0,0 l/m 9,7 km/h (2 Bft) SW 214 0 min 0,000 mm 0,0 UV-I 0 W/m 7,4 C 6,6 C 16,1 km/h (3 Bft) 96,00 %
05.05.2017 04:18 8,9 C 15,0 C 90 % 1014,9 hPa 0,0 l/m 8,5 km/h (2 Bft) S-SW 212 0 min 0,000 mm 0,0 UV-I 0 W/m 7,4 C 7,3 C 12,9 km/h (3 Bft) 100,00 %
05.05.2017 04:20 8,8 C 15,0 C 90 % 1014,9 hPa 0,0 l/m 10,7 km/h (2 Bft) W-SW 243 0 min 0,000 mm 0,0 UV-I 0 W/m 7,3 C 5,9 C 16,1 km/h (3 Bft) 97,73 %
05.05.2017 04:23 8,8 C 15,0 C 90 % 1014,9 hPa 0,0 l/m 12,0 km/h (2 Bft) W 259 0 min 0,000 mm 0,0 UV-I 0 W/m 7,3 C 5,1 C 17,7 km/h (3 Bft) 98,21 %
05.05.2017 04:24 8,8 C 15,0 C 90 % 1014,9 hPa 0,0 l/m 8,1 km/h (2 Bft) SW 217 0 min 0,000 mm 0,0 UV-I 0 W/m 7,3 C 7,5 C 14,5 km/h (3 Bft) 100,00 %
05.05.2017 04:26 8,8 C 15,0 C 90 % 1014,9 hPa 0,0 l/m 8,9 km/h (2 Bft) W-SW 243 0 min 0,000 mm 0,0 UV-I 0 W/m 7,3 C 7,0 C 16,1 km/h (3 Bft) 95,83 %
05.05.2017 04:28 8,8 C 15,0 C 90 % 1014,9 hPa 0,0 l/m 7,6 km/h (2 Bft) W-SW 247 0 min 0,000 mm 0,0 UV-I 0 W/m 7,3 C 7,9 C 11,3 km/h (2 Bft) 100,00 %
05.05.2017 04:30 8,8 C 15,0 C 90 % 1014,9 hPa 0,0 l/m 8,5 km/h (2 Bft) W-SW 238 0 min 0,000 mm 0,0 UV-I 0 W/m 7,3 C 7,2 C 14,5 km/h (3 Bft) 97,56 %
05.05.2017 04:32 8,8 C 15,0 C 90 % 1014,9 hPa 0,0 l/m 8,1 km/h (2 Bft) W-SW 241 0 min 0,000 mm 0,0 UV-I 0 W/m 7,3 C 7,5 C 12,9 km/h (3 Bft) 97,56 %
05.05.2017 04:34 8,9 C 15,0 C 91 % 1014,9 hPa 0,0 l/m 8,0 km/h (2 Bft) SW 219 0 min 0,000 mm 0,0 UV-I 0 W/m 7,5 C 7,7 C 12,9 km/h (3 Bft) 98,31 %
05.05.2017 04:36 8,9 C 15,0 C 91 % 1014,8 hPa 0,0 l/m 6,4 km/h (2 Bft) SW 236 0 min 0,000 mm 0,0 UV-I 0 W/m 7,5 C 8,9 C 9,7 km/h (2 Bft) 97,87 %
05.05.2017 04:38 8,9 C 15,0 C 91 % 1014,8 hPa 0,0 l/m 5,2 km/h (1 Bft) SW 234 0 min 0,000 mm 0,0 UV-I 0 W/m 7,5 C 8,9 C 8,0 km/h (2 Bft) 100,00 %
05.05.2017 04:40 8,9 C 15,0 C 91 % 1014,8 hPa 0,0 l/m 7,0 km/h (2 Bft) SW 227 0 min 0,000 mm 0,0 UV-I 0 W/m 7,5 C 8,4 C 11,3 km/h (2 Bft) 95,74 %
05.05.2017 04:42 8,9 C 15,0 C 91 % 1014,8 hPa 0,0 l/m 7,0 km/h (2 Bft) SW 231 0 min 0,000 mm 0,0 UV-I 0 W/m 7,5 C 8,4 C 11,3 km/h (2 Bft) 94,34 %
05.05.2017 04:44 8,9 C 15,0 C 91 % 1014,9 hPa 0,0 l/m 4,3 km/h (1 Bft) SW 225 0 min 0,000 mm 0,0 UV-I 0 W/m 7,5 C 8,9 C 6,4 km/h (2 Bft) 100,00 %
05.05.2017 04:46 8,9 C 15,0 C 91 % 1014,8 hPa 0,0 l/m 5,5 km/h (1 Bft) SW 215 0 min 0,000 mm 0,0 UV-I 0 W/m 7,5 C 8,9 C 8,0 km/h (2 Bft) 98,18 %
05.05.2017 04:48 8,9 C 15,0 C 91 % 1014,8 hPa 0,0 l/m 5,6 km/h (1 Bft) S-SW 207 0 min 0,000 mm 0,0 UV-I 0 W/m 7,5 C 8,9 C 8,0 km/h (2 Bft) 95,83 %
05.05.2017 04:50 8,9 C 15,0 C 91 % 1014,8 hPa 0,0 l/m 8,9 km/h (2 Bft) SW 217 0 min 0,000 mm 0,0 UV-I 0 W/m 7,5 C 7,1 C 14,5 km/h (3 Bft) 100,00 %
05.05.2017 04:52 8,8 C 15,0 C 91 % 1014,9 hPa 0,0 l/m 7,1 km/h (2 Bft) SW 234 0 min 0,000 mm 0,0 UV-I 0 W/m 7,4 C 8,3 C 12,9 km/h (3 Bft) 97,87 %
05.05.2017 04:54 8,9 C 15,0 C 91 % 1014,9 hPa 0,0 l/m 8,6 km/h (2 Bft) W-SW 238 0 min 0,000 mm 0,0 UV-I 0 W/m 7,5 C 7,3 C 12,9 km/h (3 Bft) 100,00 %
05.05.2017 04:56 8,8 C 15,0 C 91 % 1014,8 hPa 0,0 l/m 7,1 km/h (2 Bft) SW 236 0 min 0,000 mm 0,0 UV-I 0 W/m 7,4 C 8,3 C 11,3 km/h (2 Bft) 100,00 %
05.05.2017 04:58 8,8 C 15,0 C 91 % 1014,8 hPa 0,0 l/m 6,7 km/h (2 Bft) W-SW 238 0 min 0,000 mm 0,0 UV-I 0 W/m 7,4 C 8,6 C 11,3 km/h (2 Bft) 100,00 %
05.05.2017 05:00 8,9 C 15,0 C 91 % 1014,8 hPa 0,0 l/m 8,5 km/h (2 Bft) W-SW 240 0 min 0,000 mm 0,0 UV-I 0 W/m 7,5 C 7,3 C 12,9 km/h (3 Bft) 97,56 %
05.05.2017 05:02 8,9 C 15,0 C 91 % 1014,8 hPa 0,0 l/m 8,4 km/h (2 Bft) W-SW 243 0 min 0,000 mm 0,0 UV-I 0 W/m 7,5 C 7,4 C 14,5 km/h (3 Bft) 98,11 %
05.05.2017 05:04 8,8 C 15,0 C 91 % 1014,8 hPa 0,0 l/m 7,8 km/h (2 Bft) W-SW 237 0 min 0,000 mm 0,0 UV-I 0 W/m 7,4 C 7,7 C 12,9 km/h (3 Bft) 100,00 %
05.05.2017 05:06 8,9 C 15,0 C 91 % 1014,8 hPa 0,0 l/m 9,6 km/h (2 Bft) W-SW 245 0 min 0,000 mm 0,0 UV-I 0 W/m 7,5 C 6,6 C 14,5 km/h (3 Bft) 98,00 %
05.05.2017 05:08 8,9 C 15,0 C 91 % 1014,8 hPa 0,0 l/m 7,9 km/h (2 Bft) SW 226 0 min 0,000 mm 0,0 UV-I 0 W/m 7,5 C 7,8 C 12,9 km/h (3 Bft) 97,87 %
05.05.2017 05:10 8,9 C 15,0 C 91 % 1014,8 hPa 0,0 l/m 7,7 km/h (2 Bft) SW 234 0 min 0,000 mm 0,0 UV-I 0 W/m 7,5 C 7,9 C 9,7 km/h (2 Bft) 100,00 %
05.05.2017 05:13 8,9 C 15,0 C 91 % 1014,8 hPa 0,0 l/m 6,4 km/h (2 Bft) SW 228 0 min 0,000 mm 0,0 UV-I 0 W/m 7,5 C 8,9 C 12,9 km/h (3 Bft) 98,59 %
05.05.2017 05:14 8,9 C 15,0 C 91 % 1014,8 hPa 0,0 l/m 9,1 km/h (2 Bft) W-SW 243 0 min 0,000 mm 0,0 UV-I 0 W/m 7,5 C 6,9 C 11,3 km/h (2 Bft) 91,30 %
05.05.2017 05:16 8,8 C 15,0 C 91 % 1014,8 hPa 0,0 l/m 8,8 km/h (2 Bft) W-SW 237 0 min 0,000 mm 0,0 UV-I 0 W/m 7,4 C 7,0 C 12,9 km/h (3 Bft) 97,73 %
05.05.2017 05:18 8,8 C 15,0 C 91 % 1014,8 hPa 0,0 l/m 8,4 km/h (2 Bft) S-SW 200 0 min 0,000 mm 0,0 UV-I 0 W/m 7,4 C 7,3 C 14,5 km/h (3 Bft) 96,23 %
05.05.2017 05:20 8,8 C 15,0 C 91 % 1014,8 hPa 0,0 l/m 8,8 km/h (2 Bft) SW 219 0 min 0,000 mm 0,0 UV-I 0 W/m 7,4 C 7,0 C 12,9 km/h (3 Bft) 95,45 %
05.05.2017 05:22 8,8 C 14,4 C 91 % 1014,8 hPa 0,0 l/m 8,7 km/h (2 Bft) SW 230 0 min 0,000 mm 0,0 UV-I 0 W/m 7,4 C 7,1 C 12,9 km/h (3 Bft) 98,00 %
05.05.2017 05:24 8,8 C 15,0 C 91 % 1014,9 hPa 0,0 l/m 7,9 km/h (2 Bft) SW 236 0 min 0,000 mm 0,0 UV-I 0 W/m 7,4 C 7,7 C 12,9 km/h (3 Bft) 91,67 %
05.05.2017 05:26 8,8 C 15,0 C 91 % 1014,9 hPa 0,0 l/m 8,4 km/h (2 Bft) W-SW 242 0 min 0,000 mm 0,0 UV-I 0 W/m 7,4 C 7,3 C 14,5 km/h (3 Bft) 95,59 %
05.05.2017 05:28 8,8 C 15,0 C 91 % 1014,9 hPa 0,0 l/m 8,4 km/h (2 Bft) SW 225 0 min 0,000 mm 0,0 UV-I 0 W/m 7,4 C 7,3 C 14,5 km/h (3 Bft) 93,62 %
05.05.2017 05:30 8,8 C 14,4 C 91 % 1015,0 hPa 0,0 l/m 8,3 km/h (2 Bft) SW 219 0 min 0,000 mm 0,0 UV-I 0 W/m 7,4 C 7,4 C 14,5 km/h (3 Bft) 97,56 %
05.05.2017 05:32 8,8 C 15,0 C 91 % 1015,0 hPa 0,0 l/m 7,9 km/h (2 Bft) S-SW 200 0 min 0,000 mm 0,0 UV-I 0 W/m 7,4 C 7,7 C 12,9 km/h (3 Bft) 96,23 %
05.05.2017 05:34 8,8 C 14,4 C 91 % 1015,0 hPa 0,0 l/m 8,3 km/h (2 Bft) W-SW 245 0 min 0,000 mm 0,0 UV-I 0 W/m 7,4 C 7,4 C 12,9 km/h (3 Bft) 94,74 %
05.05.2017 05:36 8,8 C 14,4 C 91 % 1015,0 hPa 0,0 l/m 6,1 km/h (2 Bft) S-SW 208 0 min 0,000 mm 0,0 UV-I 0 W/m 7,4 C 8,8 C 9,7 km/h (2 Bft) 98,11 %
05.05.2017 05:38 8,8 C 15,0 C 91 % 1015,0 hPa 0,0 l/m 8,6 km/h (2 Bft) SW 221 0 min 0,000 mm 0,0 UV-I 0 W/m 7,4 C 7,2 C 12,9 km/h (3 Bft) 91,49 %
05.05.2017 05:40 8,8 C 15,0 C 90 % 1015,0 hPa 0,0 l/m 8,5 km/h (2 Bft) SW 219 0 min 0,000 mm 0,0 UV-I 0 W/m 7,3 C 7,2 C 11,3 km/h (2 Bft) 98,00 %
05.05.2017 05:42 8,8 C 14,4 C 90 % 1015,0 hPa 0,0 l/m 8,2 km/h (2 Bft) S-SW 202 0 min 0,000 mm 0,0 UV-I 0 W/m 7,3 C 7,5 C 14,5 km/h (3 Bft) 94,74 %
05.05.2017 05:44 8,8 C 14,4 C 90 % 1015,0 hPa 0,0 l/m 9,7 km/h (2 Bft) S-SW 202 0 min 0,000 mm 0,0 UV-I 5 W/m 7,3 C 6,5 C 16,1 km/h (3 Bft) 98,11 %
05.05.2017 05:46 8,8 C 14,4 C 90 % 1015,0 hPa 0,0 l/m 7,1 km/h (2 Bft) S-SW 212 0 min 0,000 mm 0,0 UV-I 5 W/m 7,3 C 8,3 C 12,9 km/h (3 Bft) 95,45 %
05.05.2017 05:48 8,8 C 14,4 C 90 % 1015,1 hPa 0,0 l/m 10,8 km/h (2 Bft) W-SW 239 0 min 0,000 mm 0,0 UV-I 5 W/m 7,3 C 5,8 C 16,1 km/h (3 Bft) 96,23 %
05.05.2017 05:50 8,8 C 14,4 C 90 % 1015,1 hPa 0,0 l/m 7,9 km/h (2 Bft) S-SW 213 0 min 0,000 mm 0,0 UV-I 5 W/m 7,3 C 7,7 C 14,5 km/h (3 Bft) 97,37 %
05.05.2017 05:52 8,8 C 14,4 C 90 % 1015,1 hPa 0,0 l/m 10,0 km/h (2 Bft) SW 236 0 min 0,000 mm 0,0 UV-I 6 W/m 7,3 C 6,3 C 14,5 km/h (3 Bft) 100,00 %
05.05.2017 05:54 8,8 C 14,4 C 90 % 1015,1 hPa 0,0 l/m 8,8 km/h (2 Bft) S 180 0 min 0,000 mm 0,0 UV-I 7 W/m 7,3 C 7,0 C 12,9 km/h (3 Bft) 98,11 %
05.05.2017 05:56 8,8 C 14,4 C 90 % 1015,2 hPa 0,0 l/m 11,5 km/h (2 Bft) SW 217 0 min 0,000 mm 0,0 UV-I 7 W/m 7,3 C 5,4 C 17,7 km/h (3 Bft) 100,00 %
05.05.2017 05:58 8,8 C 14,4 C 90 % 1015,2 hPa 0,0 l/m 7,6 km/h (2 Bft) SW 220 0 min 0,000 mm 0,0 UV-I 8 W/m 7,3 C 7,9 C 12,9 km/h (3 Bft) 97,96 %
05.05.2017 06:00 8,8 C 14,4 C 90 % 1015,2 hPa 0,0 l/m 8,8 km/h (2 Bft) S-SW 210 0 min 0,000 mm 0,0 UV-I 10 W/m 7,3 C 7,0 C 11,3 km/h (2 Bft) 100,00 %
05.05.2017 06:02 8,8 C 14,4 C 90 % 1015,1 hPa 0,0 l/m 9,1 km/h (2 Bft) S-SW 213 0 min 0,000 mm 0,0 UV-I 12 W/m 7,3 C 6,8 C 12,9 km/h (3 Bft) 98,18 %
05.05.2017 06:04 8,8 C 14,4 C 90 % 1015,1 hPa 0,0 l/m 8,8 km/h (2 Bft) S-SW 205 0 min 0,000 mm 0,0 UV-I 16 W/m 7,3 C 7,0 C 17,7 km/h (3 Bft) 100,00 %
05.05.2017 06:06 8,8 C 14,4 C 89 % 1015,2 hPa 0,0 l/m 10,4 km/h (2 Bft) SW 233 0 min 0,000 mm 0,0 UV-I 18 W/m 7,1 C 6,0 C 12,9 km/h (3 Bft) 100,00 %
05.05.2017 06:08 8,8 C 14,4 C 90 % 1015,2 hPa 0,0 l/m 8,2 km/h (2 Bft) SW 225 0 min 0,000 mm 0,0 UV-I 20 W/m 7,3 C 7,5 C 12,9 km/h (3 Bft) 100,00 %
05.05.2017 06:10 8,8 C 14,4 C 89 % 1015,2 hPa 0,0 l/m 8,0 km/h (2 Bft) S-SW 212 0 min 0,000 mm 0,0 UV-I 22 W/m 7,1 C 7,6 C 14,5 km/h (3 Bft) 96,23 %
05.05.2017 06:12 8,8 C 14,4 C 89 % 1015,1 hPa 0,0 l/m 12,7 km/h (3 Bft) W-SW 238 0 min 0,000 mm 0,0 UV-I 25 W/m 7,1 C 4,8 C 19,3 km/h (3 Bft) 97,56 %
05.05.2017 06:14 8,8 C 14,4 C 90 % 1015,1 hPa 0,0 l/m 8,3 km/h (2 Bft) SW 224 0 min 0,000 mm 0,0 UV-I 26 W/m 7,3 C 7,4 C 12,9 km/h (3 Bft) 96,23 %
05.05.2017 06:16 8,8 C 14,4 C 89 % 1015,1 hPa 0,0 l/m 11,3 km/h (2 Bft) SW 229 0 min 0,000 mm 0,0 UV-I 26 W/m 7,1 C 5,5 C 17,7 km/h (3 Bft) 92,68 %
05.05.2017 06:18 8,8 C 14,4 C 90 % 1015,1 hPa 0,0 l/m 8,5 km/h (2 Bft) SW 232 0 min 0,000 mm 0,0 UV-I 26 W/m 7,3 C 7,2 C 14,5 km/h (3 Bft) 93,18 %
05.05.2017 06:20 8,8 C 14,4 C 90 % 1015,2 hPa 0,0 l/m 11,3 km/h (2 Bft) W-SW 237 0 min 0,000 mm 0,0 UV-I 25 W/m 7,3 C 5,5 C 16,1 km/h (3 Bft) 92,00 %
05.05.2017 06:22 8,8 C 14,4 C 89 % 1015,2 hPa 0,0 l/m 9,7 km/h (2 Bft) SW 225 0 min 0,000 mm 0,0 UV-I 25 W/m 7,1 C 6,5 C 16,1 km/h (3 Bft) 96,00 %
05.05.2017 06:24 8,8 C 14,4 C 89 % 1015,2 hPa 0,0 l/m 12,5 km/h (3 Bft) W-SW 252 0 min 0,000 mm 0,0 UV-I 26 W/m 7,1 C 4,9 C 20,9 km/h (4 Bft) 94,74 %
05.05.2017 06:26 8,8 C 14,4 C 89 % 1015,2 hPa 0,0 l/m 11,6 km/h (2 Bft) SW 229 0 min 0,000 mm 0,0 UV-I 28 W/m 7,1 C 5,3 C 16,1 km/h (3 Bft) 98,00 %
05.05.2017 06:28 8,9 C 14,4 C 89 % 1015,2 hPa 0,0 l/m 10,2 km/h (2 Bft) S 186 0 min 0,000 mm 0,0 UV-I 30 W/m 7,2 C 6,3 C 19,3 km/h (3 Bft) 97,73 %
05.05.2017 06:30 8,9 C 14,4 C 89 % 1015,2 hPa 0,0 l/m 11,2 km/h (2 Bft) SW 214 0 min 0,000 mm 0,0 UV-I 32 W/m 7,2 C 5,7 C 14,5 km/h (3 Bft) 98,21 %
05.05.2017 06:32 8,9 C 14,4 C 89 % 1015,2 hPa 0,0 l/m 8,4 km/h (2 Bft) SW 227 0 min 0,000 mm 0,0 UV-I 34 W/m 7,2 C 7,4 C 12,9 km/h (3 Bft) 97,37 %
05.05.2017 06:34 8,9 C 14,4 C 89 % 1015,2 hPa 0,0 l/m 9,7 km/h (2 Bft) W-SW 246 0 min 0,000 mm 0,0 UV-I 36 W/m 7,2 C 6,6 C 16,1 km/h (3 Bft) 94,34 %
05.05.2017 06:36 8,9 C 14,4 C 89 % 1015,3 hPa 0,0 l/m 10,0 km/h (2 Bft) SW 236 0 min 0,000 mm 0,0 UV-I 35 W/m 7,2 C 6,4 C 14,5 km/h (3 Bft) 91,89 %
05.05.2017 06:38 8,8 C 14,4 C 89 % 1015,3 hPa 0,0 l/m 10,3 km/h (2 Bft) SW 225 0 min 0,000 mm 0,0 UV-I 33 W/m 7,1 C 6,1 C 17,7 km/h (3 Bft) 94,23 %
05.05.2017 06:40 8,8 C 14,4 C 89 % 1015,3 hPa 0,0 l/m 10,9 km/h (2 Bft) W-SW 247 0 min 0,000 mm 0,0 UV-I 32 W/m 7,1 C 5,7 C 16,1 km/h (3 Bft) 94,34 %
05.05.2017 06:42 8,8 C 14,4 C 89 % 1015,3 hPa 0,0 l/m 11,5 km/h (2 Bft) W-SW 247 0 min 0,000 mm 0,0 UV-I 34 W/m 7,1 C 5,4 C 17,7 km/h (3 Bft) 97,62 %
05.05.2017 06:44 8,8 C 14,4 C 89 % 1015,3 hPa 0,0 l/m 8,5 km/h (2 Bft) W-SW 243 0 min 0,000 mm 0,0 UV-I 39 W/m 7,1 C 7,2 C 12,9 km/h (3 Bft) 97,87 %
05.05.2017 06:46 8,8 C 14,4 C 89 % 1015,4 hPa 0,0 l/m 9,6 km/h (2 Bft) W-SW 251 0 min 0,000 mm 0,0 UV-I 43 W/m 7,1 C 6,5 C 16,1 km/h (3 Bft) 98,00 %
05.05.2017 06:48 8,9 C 14,4 C 89 % 1015,4 hPa 0,0 l/m 10,2 km/h (2 Bft) SW 234 0 min 0,000 mm 0,0 UV-I 46 W/m 7,2 C 6,3 C 16,1 km/h (3 Bft) 95,45 %
05.05.2017 06:50 8,9 C 14,4 C 89 % 1015,4 hPa 0,0 l/m 10,0 km/h (2 Bft) W-SW 250 0 min 0,000 mm 0,0 UV-I 48 W/m 7,2 C 6,4 C 14,5 km/h (3 Bft) 95,74 %
05.05.2017 06:52 8,9 C 14,4 C 89 % 1015,4 hPa 0,0 l/m 11,9 km/h (2 Bft) W-SW 246 0 min 0,000 mm 0,0 UV-I 48 W/m 7,2 C 5,3 C 17,7 km/h (3 Bft) 96,00 %
05.05.2017 06:54 8,9 C 14,4 C 88 % 1015,4 hPa 0,0 l/m 10,6 km/h (2 Bft) SW 226 0 min 0,000 mm 0,0 UV-I 47 W/m 7,0 C 6,0 C 20,9 km/h (4 Bft) 96,00 %
05.05.2017 06:56 8,9 C 14,4 C 88 % 1015,4 hPa 0,0 l/m 11,7 km/h (2 Bft) W-SW 251 0 min 0,000 mm 0,0 UV-I 53 W/m 7,0 C 5,4 C 16,1 km/h (3 Bft) 95,45 %
05.05.2017 06:58 8,9 C 14,4 C 88 % 1015,4 hPa 0,0 l/m 14,9 km/h (3 Bft) W-SW 249 0 min 0,000 mm 0,0 UV-I 56 W/m 7,0 C 3,8 C 20,9 km/h (4 Bft) 95,12 %
05.05.2017 07:00 8,9 C 14,4 C 88 % 1015,3 hPa 0,0 l/m 10,7 km/h (2 Bft) W-SW 258 0 min 0,000 mm 0,0 UV-I 56 W/m 7,0 C 6,0 C 17,7 km/h (3 Bft) 96,23 %
05.05.2017 07:02 8,9 C 14,4 C 88 % 1015,4 hPa 0,0 l/m 11,2 km/h (2 Bft) SW 235 0 min 0,025 mm 0,0 UV-I 58 W/m 7,0 C 5,7 C 19,3 km/h (3 Bft) 97,73 %
05.05.2017 07:04 8,9 C 14,4 C 88 % 1015,4 hPa 0,0 l/m 12,0 km/h (2 Bft) SW 218 0 min 0,000 mm 0,0 UV-I 59 W/m 7,0 C 5,2 C 16,1 km/h (3 Bft) 97,73 %
05.05.2017 07:06 8,9 C 14,4 C 88 % 1015,4 hPa 0,0 l/m 10,6 km/h (2 Bft) SW 235 0 min 0,000 mm 0,0 UV-I 53 W/m 7,0 C 6,0 C 17,7 km/h (3 Bft) 92,00 %
05.05.2017 07:08 9,0 C 14,4 C 88 % 1015,4 hPa 0,0 l/m 7,8 km/h (2 Bft) SW 234 0 min 0,000 mm 0,0 UV-I 50 W/m 7,1 C 7,9 C 12,9 km/h (3 Bft) 97,37 %
05.05.2017 07:10 8,9 C 14,4 C 88 % 1015,4 hPa 0,0 l/m 9,2 km/h (2 Bft) W-SW 241 0 min 0,000 mm 0,0 UV-I 49 W/m 7,0 C 6,9 C 16,1 km/h (3 Bft) 98,21 %
05.05.2017 07:12 9,0 C 14,4 C 88 % 1015,4 hPa 0,0 l/m 11,1 km/h (2 Bft) W-SW 256 0 min 0,000 mm 0,0 UV-I 52 W/m 7,1 C 5,9 C 19,3 km/h (3 Bft) 98,00 %
05.05.2017 07:14 9,0 C 14,4 C 88 % 1015,4 hPa 0,0 l/m 10,7 km/h (2 Bft) SW 232 0 min 0,000 mm 0,0 UV-I 53 W/m 7,1 C 6,1 C 19,3 km/h (3 Bft) 95,12 %
05.05.2017 07:16 9,0 C 14,4 C 88 % 1015,4 hPa 0,0 l/m 9,7 km/h (2 Bft) W-SW 238 0 min 0,000 mm 0,0 UV-I 54 W/m 7,1 C 6,7 C 16,1 km/h (3 Bft) 98,00 %
05.05.2017 07:18 9,1 C 14,4 C 88 % 1015,4 hPa 0,0 l/m 9,9 km/h (2 Bft) W 279 0 min 0,000 mm 0,0 UV-I 54 W/m 7,2 C 6,7 C 19,3 km/h (3 Bft) 88,64 %
05.05.2017 07:20 9,1 C 14,4 C 88 % 1015,5 hPa 0,0 l/m 7,2 km/h (2 Bft) W-SW 257 0 min 0,000 mm 0,0 UV-I 56 W/m 7,2 C 8,5 C 14,5 km/h (3 Bft) 94,44 %
05.05.2017 07:22 9,1 C 14,4 C 88 % 1015,5 hPa 0,0 l/m 10,8 km/h (2 Bft) W 270 0 min 0,000 mm 0,0 UV-I 59 W/m 7,2 C 6,1 C 14,5 km/h (3 Bft) 98,21 %
05.05.2017 07:24 9,1 C 14,4 C 88 % 1015,5 hPa 0,0 l/m 10,3 km/h (2 Bft) W 260 0 min 0,000 mm 0,0 UV-I 56 W/m 7,2 C 6,4 C 14,5 km/h (3 Bft) 98,11 %
05.05.2017 07:26 9,1 C 14,4 C 89 % 1015,6 hPa 0,0 l/m 9,8 km/h (2 Bft) W 267 0 min 0,000 mm 0,0 UV-I 55 W/m 7,4 C 6,7 C 14,5 km/h (3 Bft) 94,00 %
05.05.2017 07:28 9,1 C 14,4 C 88 % 1015,5 hPa 0,0 l/m 9,6 km/h (2 Bft) W 259 0 min 0,000 mm 0,0 UV-I 58 W/m 7,2 C 6,8 C 12,9 km/h (3 Bft) 92,11 %
05.05.2017 07:30 9,1 C 14,4 C 88 % 1015,5 hPa 0,0 l/m 8,5 km/h (2 Bft) W-SW 238 0 min 0,000 mm 0,0 UV-I 59 W/m 7,2 C 7,6 C 11,3 km/h (2 Bft) 94,00 %
05.05.2017 07:32 9,1 C 14,4 C 88 % 1015,6 hPa 0,0 l/m 10,9 km/h (2 Bft) S-SW 213 0 min 0,000 mm 0,0 UV-I 60 W/m 7,2 C 6,1 C 16,1 km/h (3 Bft) 95,12 %
05.05.2017 07:34 9,2 C 14,4 C 89 % 1015,6 hPa 0,0 l/m 11,7 km/h (2 Bft) W-SW 247 0 min 0,000 mm 0,0 UV-I 60 W/m 7,5 C 5,8 C 19,3 km/h (3 Bft) 94,00 %
05.05.2017 07:36 9,1 C 14,4 C 88 % 1015,6 hPa 0,0 l/m 13,3 km/h (3 Bft) SW 227 0 min 0,000 mm 0,0 UV-I 61 W/m 7,2 C 4,8 C 19,3 km/h (3 Bft) 94,34 %
05.05.2017 07:38 9,1 C 14,4 C 88 % 1015,6 hPa 0,0 l/m 10,9 km/h (2 Bft) W-SW 243 0 min 0,000 mm 0,0 UV-I 61 W/m 7,2 C 6,1 C 16,1 km/h (3 Bft) 90,24 %
05.05.2017 07:40 9,2 C 14,4 C 89 % 1015,6 hPa 0,0 l/m 10,9 km/h (2 Bft) W 267 0 min 0,000 mm 0,0 UV-I 57 W/m 7,5 C 6,2 C 16,1 km/h (3 Bft) 85,37 %
05.05.2017 07:42 9,1 C 14,4 C 89 % 1015,6 hPa 0,0 l/m 12,5 km/h (3 Bft) W-SW 239 0 min 0,000 mm 0,0 UV-I 53 W/m 7,4 C 5,2 C 20,9 km/h (4 Bft) 93,22 %
05.05.2017 07:44 9,2 C 14,4 C 89 % 1015,6 hPa 0,0 l/m 12,6 km/h (3 Bft) SW 222 0 min 0,000 mm 0,0 UV-I 55 W/m 7,5 C 5,3 C 17,7 km/h (3 Bft) 95,12 %
05.05.2017 07:46 9,1 C 14,4 C 89 % 1015,6 hPa 0,0 l/m 13,5 km/h (3 Bft) W-SW 237 0 min 0,000 mm 0,0 UV-I 58 W/m 7,4 C 4,7 C 19,3 km/h (3 Bft) 96,00 %
05.05.2017 07:48 9,2 C 14,4 C 88 % 1015,6 hPa 0,0 l/m 12,1 km/h (2 Bft) W-SW 258 0 min 0,000 mm 0,0 UV-I 58 W/m 7,3 C 5,5 C 17,7 km/h (3 Bft) 94,00 %
05.05.2017 07:50 9,2 C 14,4 C 88 % 1015,6 hPa 0,0 l/m 11,2 km/h (2 Bft) W-SW 240 0 min 0,000 mm 0,0 UV-I 56 W/m 7,3 C 6,0 C 16,1 km/h (3 Bft) 95,12 %
05.05.2017 07:52 9,2 C 14,4 C 88 % 1015,7 hPa 0,0 l/m 12,4 km/h (3 Bft) W-SW 246 0 min 0,000 mm 0,0 UV-I 56 W/m 7,3 C 5,4 C 17,7 km/h (3 Bft) 97,87 %
05.05.2017 07:54 9,2 C 14,4 C 88 % 1015,7 hPa 0,0 l/m 11,8 km/h (2 Bft) W-SW 248 0 min 0,000 mm 0,0 UV-I 61 W/m 7,3 C 5,7 C 16,1 km/h (3 Bft) 95,12 %
05.05.2017 07:56 9,2 C 14,4 C 88 % 1015,7 hPa 0,0 l/m 12,8 km/h (3 Bft) SW 215 0 min 0,000 mm 0,0 UV-I 60 W/m 7,3 C 5,2 C 17,7 km/h (3 Bft) 98,11 %
05.05.2017 07:58 9,2 C 14,4 C 88 % 1015,8 hPa 0,0 l/m 11,6 km/h (2 Bft) W 260 0 min 0,000 mm 0,0 UV-I 61 W/m 7,3 C 5,8 C 20,9 km/h (4 Bft) 100,00 %
05.05.2017 08:00 9,2 C 14,4 C 88 % 1015,8 hPa 0,0 l/m 11,0 km/h (2 Bft) W 265 0 min 0,000 mm 0,0 UV-I 58 W/m 7,3 C 6,1 C 17,7 km/h (3 Bft) 94,34 %
05.05.2017 08:02 9,2 C 14,4 C 88 % 1015,8 hPa 0,0 l/m 11,2 km/h (2 Bft) W-SW 242 0 min 0,051 mm 0,0 UV-I 52 W/m 7,3 C 6,0 C 17,7 km/h (3 Bft) 100,00 %
05.05.2017 08:04 9,2 C 14,4 C 87 % 1015,9 hPa 0,0 l/m 12,7 km/h (3 Bft) W-SW 258 0 min 0,000 mm 0,0 UV-I 51 W/m 7,2 C 5,2 C 19,3 km/h (3 Bft) 96,00 %
05.05.2017 08:06 9,3 C 14,4 C 87 % 1015,9 hPa 0,0 l/m 11,0 km/h (2 Bft) W-SW 243 0 min 0,000 mm 0,0 UV-I 49 W/m 7,2 C 6,2 C 16,1 km/h (3 Bft) 93,62 %
05.05.2017 08:08 9,3 C 14,4 C 88 % 1015,9 hPa 0,0 l/m 8,0 km/h (2 Bft) SW 219 0 min 0,000 mm 0,0 UV-I 48 W/m 7,4 C 8,1 C 19,3 km/h (3 Bft) 98,00 %
05.05.2017 08:10 9,3 C 14,4 C 87 % 1016,1 hPa 0,0 l/m 13,1 km/h (3 Bft) W-SW 250 0 min 0,000 mm 0,0 UV-I 49 W/m 7,2 C 5,2 C 19,3 km/h (3 Bft) 100,00 %
05.05.2017 08:12 9,3 C 14,4 C 87 % 1016,1 hPa 0,0 l/m 10,1 km/h (2 Bft) S-SW 197 0 min 0,000 mm 0,0 UV-I 52 W/m 7,2 C 6,8 C 19,3 km/h (3 Bft) 100,00 %
05.05.2017 08:14 9,3 C 14,4 C 87 % 1016,1 hPa 0,0 l/m 12,7 km/h (3 Bft) SW 228 0 min 0,000 mm 0,0 UV-I 48 W/m 7,2 C 5,4 C 19,3 km/h (3 Bft) 97,56 %
05.05.2017 08:16 9,3 C 14,4 C 87 % 1016,2 hPa 0,0 l/m 11,6 km/h (2 Bft) W-SW 250 0 min 0,000 mm 0,0 UV-I 46 W/m 7,2 C 5,9 C 20,9 km/h (4 Bft) 97,87 %
05.05.2017 08:18 9,3 C 14,4 C 86 % 1016,3 hPa 0,0 l/m 12,2 km/h (2 Bft) W 262 0 min 0,000 mm 0,0 UV-I 42 W/m 7,1 C 5,6 C 17,7 km/h (3 Bft) 95,74 %
05.05.2017 08:20 9,3 C 14,4 C 86 % 1016,3 hPa 0,0 l/m 9,7 km/h (2 Bft) SW 229 0 min 0,000 mm 0,0 UV-I 39 W/m 7,1 C 7,0 C 14,5 km/h (3 Bft) 97,87 %
05.05.2017 08:22 9,3 C 14,4 C 87 % 1016,3 hPa 0,0 l/m 10,7 km/h (2 Bft) S-SW 210 0 min 0,000 mm 0,0 UV-I 37 W/m 7,2 C 6,4 C 14,5 km/h (3 Bft) 96,00 %
05.05.2017 08:24 9,3 C 14,4 C 87 % 1016,4 hPa 0,0 l/m 10,4 km/h (2 Bft) SW 215 0 min 0,000 mm 0,0 UV-I 36 W/m 7,2 C 6,6 C 16,1 km/h (3 Bft) 100,00 %
05.05.2017 08:26 9,3 C 14,4 C 86 % 1016,4 hPa 0,0 l/m 11,5 km/h (2 Bft) W-SW 250 0 min 0,000 mm 0,0 UV-I 35 W/m 7,1 C 6,0 C 17,7 km/h (3 Bft) 94,00 %
05.05.2017 08:28 9,3 C 14,4 C 86 % 1016,4 hPa 0,0 l/m 10,2 km/h (2 Bft) SW 230 0 min 0,000 mm 0,0 UV-I 34 W/m 7,1 C 6,7 C 14,5 km/h (3 Bft) 100,00 %
05.05.2017 08:30 9,3 C 14,4 C 87 % 1016,5 hPa 0,0 l/m 10,1 km/h (2 Bft) W-SW 248 0 min 0,000 mm 0,0 UV-I 33 W/m 7,2 C 6,8 C 16,1 km/h (3 Bft) 98,25 %
05.05.2017 08:32 9,3 C 14,4 C 87 % 1016,5 hPa 0,0 l/m 10,1 km/h (2 Bft) W-SW 250 0 min 0,000 mm 0,0 UV-I 34 W/m 7,2 C 6,8 C 12,9 km/h (3 Bft) 97,56 %
05.05.2017 08:34 9,3 C 14,4 C 87 % 1016,6 hPa 0,0 l/m 7,6 km/h (2 Bft) SW 229 0 min 0,000 mm 0,0 UV-I 35 W/m 7,2 C 8,4 C 12,9 km/h (3 Bft) 97,44 %
05.05.2017 08:36 9,3 C 14,4 C 87 % 1016,6 hPa 0,0 l/m 6,4 km/h (2 Bft) W-SW 247 0 min 0,000 mm 0,0 UV-I 34 W/m 7,2 C 9,3 C 12,9 km/h (3 Bft) 98,00 %
05.05.2017 08:38 9,3 C 14,4 C 87 % 1016,6 hPa 0,0 l/m 5,8 km/h (2 Bft) W-SW 248 0 min 0,000 mm 0,0 UV-I 36 W/m 7,2 C 9,3 C 8,0 km/h (2 Bft) 98,00 %
05.05.2017 08:40 9,3 C 14,4 C 87 % 1016,6 hPa 0,0 l/m 5,8 km/h (2 Bft) SW 219 0 min 0,000 mm 0,0 UV-I 41 W/m 7,2 C 9,3 C 11,3 km/h (2 Bft) 98,08 %
05.05.2017 08:42 9,3 C 14,4 C 87 % 1016,7 hPa 0,0 l/m 10,3 km/h (2 Bft) W-SW 246 0 min 0,000 mm 0,0 UV-I 47 W/m 7,2 C 6,6 C 17,7 km/h (3 Bft) 97,22 %
05.05.2017 08:44 9,3 C 14,4 C 87 % 1016,7 hPa 0,0 l/m 11,0 km/h (2 Bft) W-SW 247 0 min 0,000 mm 0,0 UV-I 53 W/m 7,2 C 6,2 C 17,7 km/h (3 Bft) 100,00 %
05.05.2017 08:46 9,3 C 14,4 C 87 % 1016,6 hPa 0,0 l/m 9,7 km/h (2 Bft) W-SW 246 0 min 0,000 mm 0,0 UV-I 55 W/m 7,2 C 7,0 C 16,1 km/h (3 Bft) 97,37 %
05.05.2017 08:48 9,3 C 14,4 C 87 % 1016,7 hPa 0,0 l/m 10,1 km/h (2 Bft) SW 222 0 min 0,000 mm 0,0 UV-I 58 W/m 7,2 C 6,8 C 14,5 km/h (3 Bft) 100,00 %
05.05.2017 08:50 9,3 C 14,4 C 87 % 1016,7 hPa 0,0 l/m 10,0 km/h (2 Bft) W-SW 249 0 min 0,000 mm 0,0 UV-I 59 W/m 7,2 C 6,8 C 14,5 km/h (3 Bft) 98,00 %
05.05.2017 08:52 9,3 C 14,4 C 87 % 1016,8 hPa 0,0 l/m 9,8 km/h (2 Bft) W-SW 248 0 min 0,000 mm 0,0 UV-I 64 W/m 7,2 C 6,9 C 14,5 km/h (3 Bft) 95,12 %
05.05.2017 08:54 9,3 C 14,4 C 87 % 1016,8 hPa 0,0 l/m 8,6 km/h (2 Bft) W-SW 246 0 min 0,000 mm 0,0 UV-I 71 W/m 7,2 C 7,7 C 14,5 km/h (3 Bft) 98,00 %
05.05.2017 08:56 9,3 C 14,4 C 86 % 1016,8 hPa 0,0 l/m 10,1 km/h (2 Bft) SW 226 0 min 0,000 mm 0,0 UV-I 80 W/m 7,1 C 6,8 C 17,7 km/h (3 Bft) 95,12 %
05.05.2017 08:58 9,4 C 14,4 C 86 % 1016,8 hPa 0,0 l/m 10,1 km/h (2 Bft) W-SW 251 0 min 0,000 mm 0,0 UV-I 88 W/m 7,2 C 6,9 C 17,7 km/h (3 Bft) 98,00 %
05.05.2017 09:00 9,4 C 14,4 C 86 % 1016,8 hPa 0,0 l/m 11,6 km/h (2 Bft) SW 236 0 min 0,025 mm 0,0 UV-I 93 W/m 7,2 C 6,0 C 22,5 km/h (4 Bft) 92,45 %
05.05.2017 09:02 9,4 C 14,4 C 87 % 1016,8 hPa 0,0 l/m 7,4 km/h (2 Bft) SW 235 0 min 0,000 mm 0,0 UV-I 101 W/m 7,3 C 8,7 C 14,5 km/h (3 Bft) 100,00 %
05.05.2017 09:04 9,5 C 14,4 C 86 % 1016,8 hPa 0,0 l/m 12,3 km/h (3 Bft) SW 217 0 min 0,000 mm 0,0 UV-I 112 W/m 7,3 C 5,8 C 19,3 km/h (3 Bft) 98,11 %
05.05.2017 09:06 9,5 C 14,4 C 86 % 1016,7 hPa 0,0 l/m 7,0 km/h (2 Bft) W-SW 247 0 min 0,000 mm 0,1 UV-I 126 W/m 7,3 C 9,1 C 11,3 km/h (2 Bft) 97,37 %
05.05.2017 09:08 9,6 C 14,4 C 86 % 1016,7 hPa 0,0 l/m 10,1 km/h (2 Bft) W-SW 247 0 min 0,000 mm 0,5 UV-I 137 W/m 7,4 C 7,1 C 12,9 km/h (3 Bft) 100,00 %
05.05.2017 09:10 9,6 C 14,4 C 86 % 1016,7 hPa 0,0 l/m 13,2 km/h (3 Bft) S-SW 205 0 min 0,000 mm 0,5 UV-I 147 W/m 7,4 C 5,5 C 19,3 km/h (3 Bft) 100,00 %
05.05.2017 09:12 9,7 C 14,4 C 85 % 1016,7 hPa 0,0 l/m 10,2 km/h (2 Bft) W-SW 250 0 min 0,000 mm 0,5 UV-I 156 W/m 7,3 C 7,1 C 16,1 km/h (3 Bft) 97,73 %
05.05.2017 09:14 9,7 C 14,4 C 85 % 1016,7 hPa 0,0 l/m 14,6 km/h (3 Bft) SW 224 0 min 0,000 mm 0,5 UV-I 158 W/m 7,3 C 4,9 C 20,9 km/h (4 Bft) 96,23 %
05.05.2017 09:16 9,8 C 14,4 C 85 % 1016,8 hPa 0,0 l/m 11,2 km/h (2 Bft) W-SW 243 0 min 0,000 mm 0,5 UV-I 152 W/m 7,4 C 6,7 C 16,1 km/h (3 Bft) 96,00 %
05.05.2017 09:18 9,8 C 14,4 C 85 % 1016,8 hPa 0,0 l/m 10,0 km/h (2 Bft) W 261 0 min 0,000 mm 0,5 UV-I 146 W/m 7,4 C 7,4 C 14,5 km/h (3 Bft) 91,67 %
05.05.2017 09:20 9,9 C 14,4 C 85 % 1016,8 hPa 0,0 l/m 11,7 km/h (2 Bft) W-SW 242 0 min 0,000 mm 0,5 UV-I 144 W/m 7,5 C 6,6 C 16,1 km/h (3 Bft) 94,00 %
05.05.2017 09:22 9,9 C 14,4 C 85 % 1016,8 hPa 0,0 l/m 11,3 km/h (2 Bft) W-SW 242 0 min 0,000 mm 0,5 UV-I 152 W/m 7,5 C 6,8 C 16,1 km/h (3 Bft) 97,87 %
05.05.2017 09:24 9,9 C 14,4 C 84 % 1016,8 hPa 0,0 l/m 9,5 km/h (2 Bft) S-SW 201 0 min 0,000 mm 0,6 UV-I 165 W/m 7,3 C 7,8 C 16,1 km/h (3 Bft) 96,00 %
05.05.2017 09:26 10,0 C 14,4 C 84 % 1016,7 hPa 0,0 l/m 13,2 km/h (3 Bft) SW 224 0 min 0,000 mm 0,7 UV-I 178 W/m 7,4 C 5,9 C 17,7 km/h (3 Bft) 92,68 %
05.05.2017 09:28 10,1 C 14,4 C 84 % 1016,8 hPa 0,0 l/m 13,8 km/h (3 Bft) W-SW 242 0 min 0,000 mm 0,7 UV-I 182 W/m 7,5 C 5,8 C 20,9 km/h (4 Bft) 95,74 %
05.05.2017 09:30 10,1 C 14,4 C 84 % 1016,7 hPa 0,0 l/m 10,7 km/h (2 Bft) SW 235 0 min 0,000 mm 0,7 UV-I 181 W/m 7,5 C 7,3 C 16,1 km/h (3 Bft) 96,23 %
05.05.2017 09:32 10,1 C 14,4 C 84 % 1016,7 hPa 0,0 l/m 12,1 km/h (2 Bft) W 263 0 min 0,000 mm 0,8 UV-I 189 W/m 7,5 C 6,6 C 16,1 km/h (3 Bft) 95,74 %
05.05.2017 09:34 10,1 C 14,4 C 83 % 1016,7 hPa 0,0 l/m 10,4 km/h (2 Bft) SW 231 0 min 0,000 mm 0,8 UV-I 206 W/m 7,3 C 7,5 C 17,7 km/h (3 Bft) 94,00 %
05.05.2017 09:36 10,2 C 14,4 C 84 % 1016,8 hPa 0,0 l/m 12,6 km/h (3 Bft) W-SW 255 0 min 0,000 mm 0,8 UV-I 228 W/m 7,6 C 6,5 C 19,3 km/h (3 Bft) 97,37 %
05.05.2017 09:38 10,2 C 14,4 C 83 % 1016,7 hPa 0,0 l/m 15,9 km/h (3 Bft) W-SW 248 0 min 0,000 mm 0,8 UV-I 233 W/m 7,4 C 5,0 C 24,1 km/h (4 Bft) 92,45 %
05.05.2017 09:40 10,3 C 14,4 C 82 % 1016,7 hPa 0,0 l/m 16,1 km/h (3 Bft) W-SW 239 0 min 0,000 mm 0,8 UV-I 220 W/m 7,4 C 5,1 C 24,1 km/h (4 Bft) 95,45 %
05.05.2017 09:42 10,3 C 14,4 C 82 % 1016,7 hPa 0,0 l/m 16,9 km/h (3 Bft) W-SW 238 0 min 0,000 mm 0,8 UV-I 220 W/m 7,4 C 4,7 C 25,7 km/h (4 Bft) 97,73 %
05.05.2017 09:44 10,3 C 14,4 C 82 % 1016,8 hPa 0,0 l/m 13,3 km/h (3 Bft) W-SW 244 0 min 0,000 mm 0,9 UV-I 232 W/m 7,4 C 6,2 C 20,9 km/h (4 Bft) 96,43 %
05.05.2017 09:46 10,3 C 14,4 C 82 % 1016,7 hPa 0,0 l/m 13,1 km/h (3 Bft) W-SW 240 0 min 0,000 mm 0,9 UV-I 251 W/m 7,4 C 6,3 C 20,9 km/h (4 Bft) 97,87 %
05.05.2017 09:48 10,4 C 14,4 C 82 % 1016,7 hPa 0,0 l/m 11,6 km/h (2 Bft) SW 227 0 min 0,000 mm 1,0 UV-I 269 W/m 7,5 C 7,2 C 17,7 km/h (3 Bft) 97,37 %
05.05.2017 09:50 10,5 C 14,4 C 82 % 1016,6 hPa 0,0 l/m 11,6 km/h (2 Bft) W-SW 243 0 min 0,000 mm 1,2 UV-I 298 W/m 7,6 C 7,3 C 19,3 km/h (3 Bft) 88,00 %
05.05.2017 09:52 10,6 C 14,4 C 82 % 1016,7 hPa 0,0 l/m 13,6 km/h (3 Bft) W-SW 245 0 min 0,000 mm 1,3 UV-I 319 W/m 7,7 C 6,5 C 19,3 km/h (3 Bft) 98,00 %
05.05.2017 09:54 10,7 C 14,4 C 82 % 1016,6 hPa 0,0 l/m 14,0 km/h (3 Bft) W-SW 237 0 min 0,000 mm 1,4 UV-I 354 W/m 7,8 C 6,4 C 20,9 km/h (4 Bft) 95,45 %
05.05.2017 09:56 10,8 C 14,4 C 81 % 1016,6 hPa 0,0 l/m 14,1 km/h (3 Bft) W 269 2 min 0,000 mm 1,8 UV-I 438 W/m 7,7 C 6,5 C 17,7 km/h (3 Bft) 96,00 %
05.05.2017 09:58 11,1 C 14,4 C 82 % 1016,6 hPa 0,0 l/m 14,2 km/h (3 Bft) W 269 2 min 0,000 mm 1,6 UV-I 385 W/m 8,1 C 6,8 C 22,5 km/h (4 Bft) 100,00 %
05.05.2017 10:00 11,1 C 14,4 C 81 % 1016,6 hPa 0,0 l/m 13,1 km/h (3 Bft) W-SW 252 2 min 0,000 mm 1,6 UV-I 407 W/m 8,0 C 7,3 C 20,9 km/h (4 Bft) 92,11 %
05.05.2017 10:02 11,2 C 14,4 C 81 % 1016,6 hPa 0,0 l/m 12,9 km/h (3 Bft) W 273 2 min 0,127 mm 1,8 UV-I 487 W/m 8,1 C 7,5 C 24,1 km/h (4 Bft) 100,00 %
05.05.2017 10:04 11,3 C 14,4 C 79 % 1016,6 hPa 0,0 l/m 16,3 km/h (3 Bft) W-SW 248 2 min 0,000 mm 2,0 UV-I 568 W/m 7,8 C 6,2 C 27,4 km/h (4 Bft) 100,00 %
05.05.2017 10:06 11,5 C 15,0 C 79 % 1016,6 hPa 0,0 l/m 18,1 km/h (3 Bft) NW 306 2 min 0,000 mm 2,3 UV-I 672 W/m 8,0 C 5,8 C 25,7 km/h (4 Bft) 100,00 %
05.05.2017 10:08 11,6 C 14,4 C 77 % 1016,6 hPa 0,0 l/m 21,4 km/h (4 Bft) W-SW 256 2 min 0,000 mm 2,1 UV-I 716 W/m 7,7 C 4,9 C 29,0 km/h (5 Bft) 92,45 %
05.05.2017 10:10 11,7 C 14,4 C 79 % 1016,6 hPa 0,0 l/m 12,5 km/h (3 Bft) W-SW 244 2 min 0,000 mm 1,9 UV-I 528 W/m 8,2 C 8,2 C 24,1 km/h (4 Bft) 95,12 %
05.05.2017 10:12 11,7 C 14,4 C 78 % 1016,6 hPa 0,0 l/m 12,4 km/h (3 Bft) W-SW 237 2 min 0,000 mm 1,7 UV-I 459 W/m 8,0 C 8,3 C 24,1 km/h (4 Bft) 100,00 %
05.05.2017 10:14 11,7 C 14,4 C 78 % 1016,6 hPa 0,0 l/m 16,5 km/h (3 Bft) W-SW 254 2 min 0,000 mm 1,8 UV-I 453 W/m 8,0 C 6,6 C 27,4 km/h (4 Bft) 97,87 %
05.05.2017 10:16 11,6 C 14,4 C 77 % 1016,6 hPa 0,0 l/m 19,6 km/h (3 Bft) W-SW 246 2 min 0,000 mm 1,8 UV-I 475 W/m 7,7 C 5,5 C 29,0 km/h (5 Bft) 97,87 %
05.05.2017 10:18 11,5 C 14,4 C 77 % 1016,6 hPa 0,0 l/m 18,5 km/h (3 Bft) SW 228 2 min 0,000 mm 1,7 UV-I 426 W/m 7,6 C 5,7 C 27,4 km/h (4 Bft) 100,00 %
05.05.2017 10:20 11,4 C 14,4 C 78 % 1016,6 hPa 0,0 l/m 18,2 km/h (3 Bft) SW 232 2 min 0,000 mm 1,7 UV-I 399 W/m 7,7 C 5,7 C 29,0 km/h (5 Bft) 95,16 %
05.05.2017 10:22 11,5 C 14,4 C 78 % 1016,6 hPa 0,0 l/m 16,4 km/h (3 Bft) SW 232 2 min 0,000 mm 1,8 UV-I 411 W/m 7,8 C 6,4 C 24,1 km/h (4 Bft) 97,56 %
05.05.2017 10:24 11,4 C 14,4 C 78 % 1016,6 hPa 0,0 l/m 18,8 km/h (3 Bft) W-SW 250 2 min 0,000 mm 1,7 UV-I 412 W/m 7,7 C 5,5 C 27,4 km/h (4 Bft) 97,73 %
05.05.2017 10:26 11,4 C 14,4 C 78 % 1016,6 hPa 0,0 l/m 14,5 km/h (3 Bft) SW 232 0 min 0,000 mm 1,6 UV-I 370 W/m 7,7 C 7,0 C 24,1 km/h (4 Bft) 94,64 %
05.05.2017 10:28 11,4 C 14,4 C 78 % 1016,6 hPa 0,0 l/m 14,6 km/h (3 Bft) SW 216 0 min 0,000 mm 1,6 UV-I 373 W/m 7,7 C 7,0 C 27,4 km/h (4 Bft) 97,56 %
05.05.2017 10:30 11,4 C 14,4 C 77 % 1016,7 hPa 0,0 l/m 16,2 km/h (3 Bft) W-SW 246 0 min 0,000 mm 1,5 UV-I 348 W/m 7,5 C 6,4 C 25,7 km/h (4 Bft) 98,11 %
05.05.2017 10:32 11,3 C 14,4 C 77 % 1016,6 hPa 0,0 l/m 15,5 km/h (3 Bft) W-SW 239 0 min 0,000 mm 1,3 UV-I 307 W/m 7,4 C 6,5 C 27,4 km/h (4 Bft) 97,56 %
05.05.2017 10:34 11,3 C 14,4 C 78 % 1016,7 hPa 0,0 l/m 11,9 km/h (2 Bft) SW 233 0 min 0,000 mm 1,3 UV-I 295 W/m 7,6 C 8,1 C 19,3 km/h (3 Bft) 88,68 %
05.05.2017 10:36 11,3 C 14,4 C 77 % 1016,7 hPa 0,0 l/m 21,9 km/h (4 Bft) SW 234 0 min 0,000 mm 1,3 UV-I 293 W/m 7,4 C 4,4 C 30,6 km/h (5 Bft) 100,00 %
05.05.2017 10:38 11,3 C 14,4 C 77 % 1016,7 hPa 0,0 l/m 19,0 km/h (3 Bft) SW 236 0 min 0,000 mm 1,3 UV-I 304 W/m 7,4 C 5,3 C 30,6 km/h (5 Bft) 93,75 %
05.05.2017 10:40 11,2 C 14,4 C 77 % 1016,7 hPa 0,0 l/m 20,5 km/h (4 Bft) S-SW 210 0 min 0,000 mm 1,4 UV-I 323 W/m 7,3 C 4,7 C 30,6 km/h (5 Bft) 97,62 %
05.05.2017 10:42 11,2 C 14,4 C 77 % 1016,7 hPa 0,0 l/m 19,7 km/h (3 Bft) W-SW 242 0 min 0,000 mm 1,5 UV-I 341 W/m 7,3 C 4,9 C 32,2 km/h (5 Bft) 90,24 %
05.05.2017 10:44 11,1 C 14,4 C 78 % 1016,6 hPa 0,0 l/m 16,3 km/h (3 Bft) SW 215 0 min 0,000 mm 1,5 UV-I 333 W/m 7,4 C 6,0 C 30,6 km/h (5 Bft) 96,00 %
05.05.2017 10:46 11,2 C 14,4 C 78 % 1016,6 hPa 0,0 l/m 16,1 km/h (3 Bft) W-SW 240 0 min 0,000 mm 1,5 UV-I 332 W/m 7,5 C 6,2 C 25,7 km/h (4 Bft) 95,74 %
05.05.2017 10:48 11,2 C 14,4 C 78 % 1016,7 hPa 0,0 l/m 13,4 km/h (3 Bft) W-SW 248 0 min 0,000 mm 1,6 UV-I 345 W/m 7,5 C 7,3 C 25,7 km/h (4 Bft) 95,74 %
05.05.2017 10:50 11,3 C 14,4 C 79 % 1016,7 hPa 0,0 l/m 10,8 km/h (2 Bft) SW 228 0 min 0,000 mm 1,6 UV-I 345 W/m 7,8 C 8,6 C 20,9 km/h (4 Bft) 90,57 %
05.05.2017 10:52 11,3 C 14,4 C 78 % 1016,7 hPa 0,0 l/m 15,9 km/h (3 Bft) W-SW 246 0 min 0,000 mm 1,6 UV-I 348 W/m 7,6 C 6,4 C 24,1 km/h (4 Bft) 91,43 %
05.05.2017 10:54 11,3 C 14,4 C 78 % 1016,8 hPa 0,0 l/m 14,2 km/h (3 Bft) W-SW 244 0 min 0,000 mm 1,7 UV-I 356 W/m 7,6 C 7,0 C 19,3 km/h (3 Bft) 96,43 %
05.05.2017 10:56 11,3 C 14,4 C 78 % 1016,8 hPa 0,0 l/m 15,9 km/h (3 Bft) SW 225 0 min 0,000 mm 1,7 UV-I 360 W/m 7,6 C 6,4 C 24,1 km/h (4 Bft) 92,68 %
05.05.2017 10:58 11,4 C 14,4 C 79 % 1016,8 hPa 0,0 l/m 13,6 km/h (3 Bft) S 186 0 min 0,000 mm 1,7 UV-I 369 W/m 7,9 C 7,4 C 24,1 km/h (4 Bft) 90,00 %
05.05.2017 11:00 11,3 C 14,4 C 78 % 1016,8 hPa 0,0 l/m 16,4 km/h (3 Bft) SW 224 0 min 0,229 mm 1,8 UV-I 367 W/m 7,6 C 6,2 C 24,1 km/h (4 Bft) 98,00 %
05.05.2017 11:02 11,3 C 14,4 C 78 % 1016,8 hPa 0,0 l/m 16,9 km/h (3 Bft) W 272 0 min 0,000 mm 1,7 UV-I 361 W/m 7,6 C 6,0 C 25,7 km/h (4 Bft) 89,36 %
05.05.2017 11:04 11,3 C 14,4 C 79 % 1016,8 hPa 0,0 l/m 13,1 km/h (3 Bft) W-SW 252 0 min 0,000 mm 1,5 UV-I 319 W/m 7,8 C 7,5 C 19,3 km/h (3 Bft) 97,56 %
05.05.2017 11:06 11,3 C 14,4 C 78 % 1016,8 hPa 0,0 l/m 14,8 km/h (3 Bft) S-SW 212 0 min 0,000 mm 1,5 UV-I 313 W/m 7,6 C 6,8 C 22,5 km/h (4 Bft) 97,87 %
05.05.2017 11:08 11,3 C 14,4 C 78 % 1016,8 hPa 0,0 l/m 15,1 km/h (3 Bft) SW 229 0 min 0,000 mm 1,3 UV-I 288 W/m 7,6 C 6,7 C 22,5 km/h (4 Bft) 98,11 %
05.05.2017 11:10 11,2 C 14,4 C 79 % 1016,9 hPa 0,0 l/m 14,5 km/h (3 Bft) SW 236 0 min 0,000 mm 1,1 UV-I 243 W/m 7,7 C 6,8 C 19,3 km/h (3 Bft) 93,62 %
05.05.2017 11:12 11,2 C 14,4 C 78 % 1017,0 hPa 0,0 l/m 14,4 km/h (3 Bft) SW 223 0 min 0,000 mm 0,9 UV-I 196 W/m 7,5 C 6,8 C 19,3 km/h (3 Bft) 92,86 %
05.05.2017 11:14 11,1 C 14,4 C 79 % 1017,0 hPa 0,0 l/m 13,2 km/h (3 Bft) W-SW 242 0 min 0,000 mm 0,8 UV-I 169 W/m 7,6 C 7,2 C 17,7 km/h (3 Bft) 90,24 %
05.05.2017 11:16 11,0 C 14,4 C 79 % 1017,0 hPa 0,0 l/m 11,5 km/h (2 Bft) W-SW 256 0 min 0,000 mm 0,8 UV-I 162 W/m 7,5 C 7,9 C 16,1 km/h (3 Bft) 94,34 %
05.05.2017 11:18 11,0 C 14,4 C 79 % 1017,1 hPa 0,0 l/m 14,6 km/h (3 Bft) SW 229 0 min 0,000 mm 0,7 UV-I 159 W/m 7,5 C 6,5 C 25,7 km/h (4 Bft) 90,24 %
05.05.2017 11:20 10,9 C 14,4 C 78 % 1017,1 hPa 0,0 l/m 18,8 km/h (3 Bft) SW 232 0 min 0,000 mm 0,7 UV-I 153 W/m 7,2 C 4,8 C 27,4 km/h (4 Bft) 86,00 %
05.05.2017 11:22 10,8 C 14,4 C 79 % 1017,1 hPa 0,0 l/m 16,7 km/h (3 Bft) W 267 0 min 0,000 mm 0,7 UV-I 148 W/m 7,3 C 5,4 C 25,7 km/h (4 Bft) 92,00 %
05.05.2017 11:24 10,8 C 14,4 C 79 % 1017,1 hPa 0,0 l/m 17,4 km/h (3 Bft) W-SW 258 0 min 0,000 mm 0,7 UV-I 142 W/m 7,3 C 5,2 C 25,7 km/h (4 Bft) 92,68 %
05.05.2017 11:26 10,8 C 14,4 C 79 % 1017,1 hPa 0,0 l/m 13,9 km/h (3 Bft) W-SW 240 0 min 0,000 mm 0,6 UV-I 136 W/m 7,3 C 6,6 C 22,5 km/h (4 Bft) 96,23 %
05.05.2017 11:28 10,8 C 14,4 C 80 % 1017,1 hPa 0,0 l/m 10,8 km/h (2 Bft) W 260 0 min 0,000 mm 0,6 UV-I 126 W/m 7,5 C 8,0 C 16,1 km/h (3 Bft) 92,45 %
05.05.2017 11:30 10,7 C 14,4 C 80 % 1017,2 hPa 0,0 l/m 13,1 km/h (3 Bft) S-SW 205 0 min 0,000 mm 0,5 UV-I 118 W/m 7,4 C 6,8 C 19,3 km/h (3 Bft) 95,45 %
05.05.2017 11:32 10,7 C 14,4 C 80 % 1017,2 hPa 0,0 l/m 12,2 km/h (2 Bft) W-SW 244 0 min 0,000 mm 0,5 UV-I 113 W/m 7,4 C 7,2 C 19,3 km/h (3 Bft) 92,00 %
05.05.2017 11:34 10,7 C 14,4 C 81 % 1017,3 hPa 0,0 l/m 13,0 km/h (3 Bft) W-SW 246 0 min 0,000 mm 0,5 UV-I 105 W/m 7,6 C 6,8 C 19,3 km/h (3 Bft) 89,47 %
05.05.2017 11:36 10,7 C 14,4 C 81 % 1017,2 hPa 0,0 l/m 11,1 km/h (2 Bft) SW 225 0 min 0,000 mm 0,5 UV-I 98 W/m 7,6 C 7,8 C 19,3 km/h (3 Bft) 94,00 %
05.05.2017 11:38 10,7 C 14,4 C 81 % 1017,3 hPa 0,0 l/m 9,5 km/h (2 Bft) W-SW 243 0 min 0,000 mm 0,5 UV-I 100 W/m 7,6 C 8,7 C 14,5 km/h (3 Bft) 94,34 %
05.05.2017 11:40 10,7 C 14,4 C 81 % 1017,2 hPa 0,0 l/m 13,9 km/h (3 Bft) SW 233 0 min 0,000 mm 0,5 UV-I 98 W/m 7,6 C 6,4 C 20,9 km/h (4 Bft) 92,11 %
05.05.2017 11:42 10,7 C 14,4 C 81 % 1017,3 hPa 0,0 l/m 11,4 km/h (2 Bft) W-SW 246 0 min 0,000 mm 0,5 UV-I 100 W/m 7,6 C 7,6 C 17,7 km/h (3 Bft) 97,56 %
05.05.2017 11:44 10,7 C 14,4 C 81 % 1017,3 hPa 0,0 l/m 11,0 km/h (2 Bft) W 272 0 min 0,000 mm 0,5 UV-I 96 W/m 7,6 C 7,8 C 17,7 km/h (3 Bft) 91,23 %
05.05.2017 11:46 10,7 C 14,4 C 81 % 1017,3 hPa 0,0 l/m 9,8 km/h (2 Bft) W-SW 253 0 min 0,000 mm 0,0 UV-I 93 W/m 7,6 C 8,5 C 12,9 km/h (3 Bft) 100,00 %
05.05.2017 11:48 10,7 C 14,4 C 81 % 1017,3 hPa 0,0 l/m 5,5 km/h (1 Bft) SW 236 0 min 0,000 mm 0,5 UV-I 95 W/m 7,6 C 10,7 C 11,3 km/h (2 Bft) 100,00 %
05.05.2017 11:50 10,7 C 14,4 C 82 % 1017,3 hPa 0,0 l/m 9,6 km/h (2 Bft) W-SW 244 0 min 0,000 mm 0,5 UV-I 99 W/m 7,8 C 8,6 C 17,7 km/h (3 Bft) 93,75 %
05.05.2017 11:52 10,7 C 14,4 C 82 % 1017,3 hPa 0,0 l/m 9,8 km/h (2 Bft) W-SW 246 0 min 0,000 mm 0,5 UV-I 105 W/m 7,8 C 8,5 C 14,5 km/h (3 Bft) 94,00 %
05.05.2017 11:54 10,8 C 14,4 C 82 % 1017,3 hPa 0,0 l/m 11,7 km/h (2 Bft) W-SW 238 0 min 0,000 mm 0,5 UV-I 107 W/m 7,9 C 7,6 C 16,1 km/h (3 Bft) 97,44 %
05.05.2017 11:56 10,8 C 14,4 C 83 % 1017,3 hPa 0,0 l/m 10,0 km/h (2 Bft) W-SW 256 0 min 0,000 mm 0,5 UV-I 109 W/m 8,0 C 8,5 C 16,1 km/h (3 Bft) 98,21 %
05.05.2017 11:58 10,8 C 14,4 C 82 % 1017,3 hPa 0,0 l/m 10,2 km/h (2 Bft) W 260 0 min 0,000 mm 0,5 UV-I 109 W/m 7,9 C 8,4 C 17,7 km/h (3 Bft) 100,00 %
05.05.2017 12:00 10,8 C 14,4 C 82 % 1017,2 hPa 0,0 l/m 13,6 km/h (3 Bft) W-SW 239 0 min 0,102 mm 0,6 UV-I 110 W/m 7,9 C 6,7 C 22,5 km/h (4 Bft) 100,00 %
05.05.2017 12:02 10,9 C 14,4 C 82 % 1017,2 hPa 0,0 l/m 13,2 km/h (3 Bft) W-SW 249 0 min 0,000 mm 0,6 UV-I 116 W/m 7,9 C 7,0 C 17,7 km/h (3 Bft) 100,00 %
05.05.2017 12:04 10,9 C 14,4 C 82 % 1017,2 hPa 0,0 l/m 14,6 km/h (3 Bft) W-SW 258 0 min 0,000 mm 0,6 UV-I 126 W/m 7,9 C 6,4 C 22,5 km/h (4 Bft) 96,00 %
05.05.2017 12:06 10,9 C 14,4 C 82 % 1017,2 hPa 0,0 l/m 14,8 km/h (3 Bft) W-SW 250 0 min 0,000 mm 0,7 UV-I 135 W/m 7,9 C 6,3 C 24,1 km/h (4 Bft) 93,62 %
05.05.2017 12:08 10,9 C 14,4 C 81 % 1017,2 hPa 0,0 l/m 14,4 km/h (3 Bft) W-SW 256 0 min 0,000 mm 0,8 UV-I 145 W/m 7,8 C 6,5 C 17,7 km/h (3 Bft) 92,00 %
05.05.2017 12:10 11,0 C 14,4 C 82 % 1017,2 hPa 0,0 l/m 9,5 km/h (2 Bft) W-SW 247 0 min 0,000 mm 0,9 UV-I 163 W/m 8,0 C 9,0 C 16,1 km/h (3 Bft) 100,00 %
05.05.2017 12:13 11,0 C 14,4 C 81 % 1017,2 hPa 0,0 l/m 10,1 km/h (2 Bft) SW 235 0 min 0,000 mm 1,0 UV-I 183 W/m 7,9 C 8,6 C 16,1 km/h (3 Bft) 92,65 %
05.05.2017 12:14 11,1 C 14,4 C 81 % 1017,2 hPa 0,0 l/m 14,1 km/h (3 Bft) W-SW 238 0 min 0,000 mm 1,1 UV-I 199 W/m 8,0 C 6,8 C 17,7 km/h (3 Bft) 96,15 %
05.05.2017 12:16 11,1 C 14,4 C 81 % 1017,2 hPa 0,0 l/m 14,1 km/h (3 Bft) W-SW 256 0 min 0,000 mm 1,2 UV-I 220 W/m 8,0 C 6,8 C 20,9 km/h (4 Bft) 98,00 %
05.05.2017 12:18 11,2 C 14,4 C 82 % 1017,2 hPa 0,0 l/m 13,0 km/h (3 Bft) W-SW 257 0 min 0,000 mm 1,3 UV-I 221 W/m 8,2 C 7,4 C 19,3 km/h (3 Bft) 97,56 %
05.05.2017 12:20 11,2 C 14,4 C 81 % 1017,2 hPa 0,0 l/m 15,6 km/h (3 Bft) W-SW 248 0 min 0,000 mm 1,4 UV-I 244 W/m 8,1 C 6,4 C 25,7 km/h (4 Bft) 98,00 %
05.05.2017 12:22 11,3 C 14,4 C 81 % 1017,3 hPa 0,0 l/m 14,2 km/h (3 Bft) W-SW 242 0 min 0,000 mm 1,6 UV-I 272 W/m 8,2 C 7,0 C 22,5 km/h (4 Bft) 97,87 %
05.05.2017 12:24 11,4 C 14,4 C 81 % 1017,3 hPa 0,0 l/m 13,0 km/h (3 Bft) W-SW 250 0 min 0,000 mm 1,7 UV-I 311 W/m 8,3 C 7,7 C 20,9 km/h (4 Bft) 98,11 %
05.05.2017 12:26 11,4 C 14,4 C 81 % 1017,3 hPa 0,0 l/m 14,7 km/h (3 Bft) SW 227 0 min 0,000 mm 2,0 UV-I 375 W/m 8,3 C 6,9 C 24,1 km/h (4 Bft) 100,00 %
05.05.2017 12:28 11,6 C 14,4 C 82 % 1017,3 hPa 0,0 l/m 13,8 km/h (3 Bft) W-SW 252 0 min 0,000 mm 2,0 UV-I 396 W/m 8,6 C 7,6 C 22,5 km/h (4 Bft) 100,00 %
05.05.2017 12:30 11,7 C 14,4 C 80 % 1017,3 hPa 0,0 l/m 17,3 km/h (3 Bft) W-SW 250 0 min 0,000 mm 2,0 UV-I 394 W/m 8,4 C 6,4 C 25,7 km/h (4 Bft) 97,56 %
05.05.2017 12:32 11,7 C 14,4 C 79 % 1017,2 hPa 0,0 l/m 23,1 km/h (4 Bft) W 274 0 min 0,000 mm 1,9 UV-I 363 W/m 8,2 C 4,6 C 30,6 km/h (5 Bft) 100,00 %
05.05.2017 12:34 11,7 C 14,4 C 79 % 1017,2 hPa 0,0 l/m 17,1 km/h (3 Bft) W-SW 258 0 min 0,000 mm 1,9 UV-I 356 W/m 8,2 C 6,4 C 25,7 km/h (4 Bft) 100,00 %
05.05.2017 12:36 11,7 C 14,4 C 80 % 1017,3 hPa 0,0 l/m 17,6 km/h (3 Bft) W 270 0 min 0,000 mm 2,3 UV-I 412 W/m 8,4 C 6,2 C 29,0 km/h (5 Bft) 98,11 %
05.05.2017 12:38 11,8 C 14,4 C 80 % 1017,4 hPa 0,0 l/m 16,5 km/h (3 Bft) W-SW 253 0 min 0,000 mm 2,4 UV-I 449 W/m 8,5 C 6,8 C 22,5 km/h (4 Bft) 98,00 %
05.05.2017 12:40 11,8 C 14,4 C 80 % 1017,3 hPa 0,0 l/m 14,9 km/h (3 Bft) SW 217 0 min 0,000 mm 2,1 UV-I 383 W/m 8,5 C 7,4 C 25,7 km/h (4 Bft) 100,00 %
05.05.2017 12:42 11,8 C 14,4 C 80 % 1017,4 hPa 0,0 l/m 12,5 km/h (3 Bft) W 259 0 min 0,000 mm 2,0 UV-I 373 W/m 8,5 C 8,4 C 27,4 km/h (4 Bft) 97,37 %
05.05.2017 12:44 11,9 C 14,4 C 80 % 1017,3 hPa 0,0 l/m 13,7 km/h (3 Bft) W-SW 246 0 min 0,000 mm 2,1 UV-I 399 W/m 8,6 C 8,0 C 20,9 km/h (4 Bft) 100,00 %
05.05.2017 12:46 11,9 C 14,4 C 79 % 1017,4 hPa 0,0 l/m 16,5 km/h (3 Bft) W-SW 238 0 min 0,000 mm 1,8 UV-I 339 W/m 8,4 C 6,9 C 25,7 km/h (4 Bft) 98,11 %
05.05.2017 12:48 11,8 C 14,4 C 80 % 1017,4 hPa 0,0 l/m 14,5 km/h (3 Bft) SW 223 0 min 0,000 mm 1,4 UV-I 278 W/m 8,5 C 7,5 C 22,5 km/h (4 Bft) 100,00 %
05.05.2017 12:50 11,7 C 14,4 C 80 % 1017,4 hPa 0,0 l/m 17,8 km/h (3 Bft) W-SW 243 0 min 0,000 mm 1,3 UV-I 268 W/m 8,4 C 6,2 C 29,0 km/h (5 Bft) 98,00 %
05.05.2017 12:52 11,6 C 14,4 C 80 % 1017,4 hPa 0,0 l/m 17,6 km/h (3 Bft) SW 229 0 min 0,000 mm 1,5 UV-I 295 W/m 8,3 C 6,1 C 25,7 km/h (4 Bft) 97,87 %
05.05.2017 12:54 11,6 C 14,4 C 81 % 1017,5 hPa 0,0 l/m 14,5 km/h (3 Bft) W-SW 251 0 min 0,000 mm 1,6 UV-I 313 W/m 8,5 C 7,3 C 24,1 km/h (4 Bft) 100,00 %
05.05.2017 12:56 11,6 C 14,4 C 80 % 1017,5 hPa 0,0 l/m 17,6 km/h (3 Bft) S-SW 202 0 min 0,000 mm 1,7 UV-I 321 W/m 8,3 C 6,1 C 30,6 km/h (5 Bft) 100,00 %
05.05.2017 12:58 11,6 C 14,4 C 81 % 1017,4 hPa 0,0 l/m 11,6 km/h (2 Bft) SW 231 0 min 0,000 mm 1,8 UV-I 337 W/m 8,5 C 8,5 C 22,5 km/h (4 Bft) 100,00 %
05.05.2017 13:00 11,6 C 14,4 C 81 % 1017,4 hPa 0,0 l/m 16,2 km/h (3 Bft) SW 235 0 min 0,000 mm 2,0 UV-I 366 W/m 8,5 C 6,6 C 22,5 km/h (4 Bft) 96,72 %
05.05.2017 13:02 11,7 C 14,4 C 81 % 1017,4 hPa 0,0 l/m 10,6 km/h (2 Bft) SW 215 0 min 0,177 mm 2,2 UV-I 401 W/m 8,5 C 9,2 C 25,7 km/h (4 Bft) 98,00 %
05.05.2017 13:04 11,8 C 14,4 C 80 % 1017,4 hPa 0,0 l/m 15,6 km/h (3 Bft) SW 233 0 min 0,000 mm 2,4 UV-I 433 W/m 8,5 C 7,1 C 25,7 km/h (4 Bft) 94,34 %
05.05.2017 13:06 11,8 C 14,4 C 80 % 1017,4 hPa 0,0 l/m 17,3 km/h (3 Bft) W-SW 242 0 min 0,000 mm 2,4 UV-I 431 W/m 8,5 C 6,5 C 29,0 km/h (5 Bft) 97,87 %
05.05.2017 13:08 11,8 C 14,4 C 80 % 1017,4 hPa 0,0 l/m 16,9 km/h (3 Bft) S 190 0 min 0,000 mm 2,2 UV-I 397 W/m 8,5 C 6,6 C 27,4 km/h (4 Bft) 95,45 %
05.05.2017 13:10 11,8 C 14,4 C 80 % 1017,5 hPa 0,0 l/m 17,4 km/h (3 Bft) S-SW 210 0 min 0,000 mm 1,9 UV-I 364 W/m 8,5 C 6,4 C 24,1 km/h (4 Bft) 97,62 %
05.05.2017 13:12 11,8 C 14,4 C 80 % 1017,4 hPa 0,0 l/m 14,8 km/h (3 Bft) W-SW 247 0 min 0,000 mm 1,7 UV-I 326 W/m 8,5 C 7,4 C 22,5 km/h (4 Bft) 96,15 %
05.05.2017 13:14 11,7 C 14,4 C 80 % 1017,4 hPa 0,0 l/m 19,2 km/h (3 Bft) W 261 0 min 0,000 mm 1,5 UV-I 293 W/m 8,4 C 5,7 C 27,4 km/h (4 Bft) 95,56 %
05.05.2017 13:16 11,7 C 14,4 C 81 % 1017,4 hPa 0,0 l/m 18,3 km/h (3 Bft) W-SW 256 0 min 0,000 mm 1,8 UV-I 351 W/m 8,5 C 6,0 C 25,7 km/h (4 Bft) 97,87 %
05.05.2017 13:18 11,8 C 14,4 C 82 % 1017,4 hPa 0,0 l/m 12,4 km/h (3 Bft) SW 231 0 min 0,000 mm 2,3 UV-I 462 W/m 8,8 C 8,4 C 20,9 km/h (4 Bft) 91,49 %
05.05.2017 13:20 12,0 C 14,4 C 82 % 1017,4 hPa 0,0 l/m 11,1 km/h (2 Bft) S-SW 212 2 min 0,000 mm 2,4 UV-I 479 W/m 9,0 C 9,2 C 19,3 km/h (3 Bft) 97,56 %
05.05.2017 13:22 12,2 C 15,0 C 80 % 1017,4 hPa 0,0 l/m 13,9 km/h (3 Bft) S-SW 213 2 min 0,000 mm 2,6 UV-I 489 W/m 8,9 C 8,2 C 20,9 km/h (4 Bft) 96,43 %
05.05.2017 13:24 12,2 C 15,0 C 80 % 1017,3 hPa 0,0 l/m 19,0 km/h (3 Bft) SW 230 2 min 0,000 mm 2,8 UV-I 532 W/m 8,9 C 6,4 C 30,6 km/h (5 Bft) 94,74 %
05.05.2017 13:26 12,3 C 15,0 C 80 % 1017,4 hPa 0,0 l/m 11,7 km/h (2 Bft) W-SW 239 2 min 0,000 mm 2,9 UV-I 530 W/m 8,9 C 9,3 C 17,7 km/h (3 Bft) 97,73 %
05.05.2017 13:28 12,4 C 15,0 C 79 % 1017,4 hPa 0,0 l/m 14,4 km/h (3 Bft) W-SW 240 2 min 0,000 mm 3,0 UV-I 553 W/m 8,9 C 8,3 C 24,1 km/h (4 Bft) 96,43 %
05.05.2017 13:30 12,4 C 15,0 C 79 % 1017,3 hPa 0,0 l/m 16,0 km/h (3 Bft) S-SW 196 2 min 0,000 mm 3,2 UV-I 658 W/m 8,9 C 7,7 C 24,1 km/h (4 Bft) 95,12 %
05.05.2017 13:32 12,5 C 15,0 C 79 % 1017,4 hPa 0,0 l/m 12,2 km/h (2 Bft) SW 221 2 min 0,000 mm 3,3 UV-I 709 W/m 9,0 C 9,3 C 20,9 km/h (4 Bft) 97,87 %
05.05.2017 13:34 12,7 C 15,0 C 79 % 1017,3 hPa 0,0 l/m 17,7 km/h (3 Bft) S-SW 192 2 min 0,000 mm 3,2 UV-I 692 W/m 9,2 C 7,5 C 30,6 km/h (5 Bft) 95,74 %
05.05.2017 13:36 12,7 C 15,0 C 77 % 1017,4 hPa 0,0 l/m 16,6 km/h (3 Bft) W 273 2 min 0,000 mm 3,0 UV-I 628 W/m 8,8 C 7,8 C 25,7 km/h (4 Bft) 97,87 %
05.05.2017 13:38 12,6 C 15,0 C 78 % 1017,4 hPa 0,0 l/m 13,9 km/h (3 Bft) SW 231 2 min 0,000 mm 2,8 UV-I 570 W/m 8,9 C 8,7 C 22,5 km/h (4 Bft) 100,00 %
05.05.2017 13:40 12,6 C 15,0 C 78 % 1017,4 hPa 0,0 l/m 18,0 km/h (3 Bft) SW 226 2 min 0,000 mm 2,6 UV-I 535 W/m 8,9 C 7,3 C 24,1 km/h (4 Bft) 97,37 %
05.05.2017 13:42 12,6 C 15,0 C 78 % 1017,4 hPa 0,0 l/m 15,9 km/h (3 Bft) SW 227 2 min 0,000 mm 2,4 UV-I 478 W/m 8,9 C 8,0 C 24,1 km/h (4 Bft) 100,00 %
05.05.2017 13:44 12,6 C 15,0 C 79 % 1017,4 hPa 0,0 l/m 14,8 km/h (3 Bft) W-SW 244 0 min 0,000 mm 2,3 UV-I 454 W/m 9,1 C 8,4 C 20,9 km/h (4 Bft) 97,56 %
05.05.2017 13:46 12,7 C 15,0 C 79 % 1017,4 hPa 0,0 l/m 14,5 km/h (3 Bft) W-SW 255 0 min 0,000 mm 2,3 UV-I 452 W/m 9,2 C 8,6 C 19,3 km/h (3 Bft) 100,00 %
05.05.2017 13:48 12,6 C 15,0 C 78 % 1017,4 hPa 0,0 l/m 13,7 km/h (3 Bft) W-SW 237 0 min 0,000 mm 2,3 UV-I 441 W/m 8,9 C 8,8 C 22,5 km/h (4 Bft) 100,00 %
05.05.2017 13:50 12,6 C 15,0 C 79 % 1017,4 hPa 0,0 l/m 13,9 km/h (3 Bft) W-SW 252 0 min 0,000 mm 1,9 UV-I 395 W/m 9,1 C 8,7 C 24,1 km/h (4 Bft) 100,00 %
05.05.2017 13:52 12,6 C 15,0 C 79 % 1017,4 hPa 0,0 l/m 14,3 km/h (3 Bft) W-SW 242 0 min 0,000 mm 1,6 UV-I 335 W/m 9,1 C 8,6 C 22,5 km/h (4 Bft) 100,00 %
05.05.2017 13:54 12,6 C 15,0 C 79 % 1017,5 hPa 0,0 l/m 13,8 km/h (3 Bft) SW 236 0 min 0,000 mm 1,2 UV-I 249 W/m 9,1 C 8,7 C 20,9 km/h (4 Bft) 100,00 %
05.05.2017 13:56 12,4 C 15,0 C 78 % 1017,5 hPa 0,0 l/m 16,5 km/h (3 Bft) SW 222 0 min 0,000 mm 1,0 UV-I 202 W/m 8,7 C 7,5 C 22,5 km/h (4 Bft) 97,73 %
05.05.2017 13:58 12,3 C 15,0 C 78 % 1017,5 hPa 0,0 l/m 12,3 km/h (3 Bft) W-SW 242 0 min 0,000 mm 1,0 UV-I 203 W/m 8,6 C 9,0 C 20,9 km/h (4 Bft) 98,21 %
05.05.2017 14:00 12,2 C 15,0 C 79 % 1017,6 hPa 0,0 l/m 15,0 km/h (3 Bft) SW 223 0 min 0,254 mm 1,3 UV-I 251 W/m 8,7 C 7,8 C 22,5 km/h (4 Bft) 100,00 %
05.05.2017 14:02 12,2 C 15,0 C 79 % 1017,6 hPa 0,0 l/m 10,5 km/h (2 Bft) SW 232 0 min 0,000 mm 1,5 UV-I 289 W/m 8,7 C 9,8 C 16,1 km/h (3 Bft) 97,37 %
05.05.2017 14:04 12,2 C 15,0 C 78 % 1017,6 hPa 0,0 l/m 14,9 km/h (3 Bft) SW 234 0 min 0,000 mm 1,4 UV-I 262 W/m 8,5 C 7,8 C 20,9 km/h (4 Bft) 97,87 %
05.05.2017 14:06 12,1 C 15,0 C 78 % 1017,6 hPa 0,0 l/m 16,3 km/h (3 Bft) W-SW 243 0 min 0,000 mm 1,2 UV-I 234 W/m 8,4 C 7,2 C 27,4 km/h (4 Bft) 96,23 %
05.05.2017 14:08 12,1 C 15,0 C 79 % 1017,6 hPa 0,0 l/m 13,7 km/h (3 Bft) SW 222 0 min 0,000 mm 0,9 UV-I 186 W/m 8,6 C 8,2 C 24,1 km/h (4 Bft) 100,00 %
05.05.2017 14:10 12,0 C 15,0 C 79 % 1017,6 hPa 0,0 l/m 16,8 km/h (3 Bft) SW 231 0 min 0,000 mm 0,7 UV-I 156 W/m 8,5 C 6,9 C 27,4 km/h (4 Bft) 97,56 %
05.05.2017 14:12 11,9 C 15,0 C 80 % 1017,6 hPa 0,0 l/m 14,2 km/h (3 Bft) S-SW 213 0 min 0,000 mm 0,7 UV-I 145 W/m 8,6 C 7,8 C 22,5 km/h (4 Bft) 98,11 %
05.05.2017 14:14 11,9 C 15,0 C 80 % 1017,6 hPa 0,0 l/m 14,4 km/h (3 Bft) SW 229 0 min 0,000 mm 0,8 UV-I 160 W/m 8,6 C 7,7 C 20,9 km/h (4 Bft) 100,00 %
05.05.2017 14:16 11,8 C 15,0 C 81 % 1017,6 hPa 0,0 l/m 11,0 km/h (2 Bft) W-SW 244 0 min 0,000 mm 1,0 UV-I 203 W/m 8,6 C 9,1 C 19,3 km/h (3 Bft) 98,00 %
05.05.2017 14:18 11,9 C 15,0 C 81 % 1017,6 hPa 0,0 l/m 12,0 km/h (2 Bft) W-SW 247 0 min 0,000 mm 1,2 UV-I 247 W/m 8,7 C 8,7 C 19,3 km/h (3 Bft) 97,37 %
05.05.2017 14:20 11,9 C 15,0 C 81 % 1017,6 hPa 0,0 l/m 13,9 km/h (3 Bft) SW 232 0 min 0,000 mm 1,1 UV-I 237 W/m 8,7 C 7,9 C 20,9 km/h (4 Bft) 100,00 %
05.05.2017 14:22 12,0 C 15,0 C 81 % 1017,6 hPa 0,0 l/m 12,5 km/h (3 Bft) SW 227 0 min 0,000 mm 0,9 UV-I 194 W/m 8,8 C 8,6 C 22,5 km/h (4 Bft) 100,00 %
05.05.2017 14:24 11,9 C 15,0 C 80 % 1017,6 hPa 0,0 l/m 16,5 km/h (3 Bft) SW 222 0 min 0,000 mm 0,8 UV-I 174 W/m 8,6 C 6,9 C 24,1 km/h (4 Bft) 98,11 %
05.05.2017 14:26 11,9 C 15,0 C 80 % 1017,6 hPa 0,0 l/m 16,4 km/h (3 Bft) SW 229 0 min 0,000 mm 0,9 UV-I 182 W/m 8,6 C 6,9 C 24,1 km/h (4 Bft) 96,30 %
05.05.2017 14:28 11,9 C 15,0 C 81 % 1017,6 hPa 0,0 l/m 9,7 km/h (2 Bft) SW 225 0 min 0,000 mm 0,9 UV-I 200 W/m 8,7 C 9,9 C 19,3 km/h (3 Bft) 94,03 %
05.05.2017 14:30 11,9 C 15,0 C 81 % 1017,7 hPa 0,0 l/m 10,1 km/h (2 Bft) S-SW 208 0 min 0,000 mm 1,1 UV-I 239 W/m 8,7 C 9,6 C 16,1 km/h (3 Bft) 96,00 %
05.05.2017 14:32 11,9 C 15,0 C 80 % 1017,7 hPa 0,0 l/m 12,4 km/h (3 Bft) S-SW 213 0 min 0,000 mm 1,3 UV-I 269 W/m 8,6 C 8,5 C 17,7 km/h (3 Bft) 97,44 %
05.05.2017 14:34 12,0 C 15,0 C 80 % 1017,6 hPa 0,0 l/m 14,5 km/h (3 Bft) W-SW 239 0 min 0,000 mm 1,2 UV-I 244 W/m 8,7 C 7,8 C 20,9 km/h (4 Bft) 97,73 %
05.05.2017 14:36 12,0 C 15,0 C 81 % 1017,7 hPa 0,0 l/m 10,7 km/h (2 Bft) SW 226 0 min 0,000 mm 0,9 UV-I 183 W/m 8,8 C 9,4 C 14,5 km/h (3 Bft) 96,43 %
05.05.2017 14:38 12,0 C 15,0 C 80 % 1017,7 hPa 0,0 l/m 10,9 km/h (2 Bft) SW 219 0 min 0,000 mm 0,6 UV-I 136 W/m 8,7 C 9,3 C 17,7 km/h (3 Bft) 100,00 %
05.05.2017 14:40 11,9 C 15,0 C 81 % 1017,7 hPa 0,0 l/m 12,1 km/h (2 Bft) SW 225 0 min 0,000 mm 0,5 UV-I 120 W/m 8,7 C 8,7 C 19,3 km/h (3 Bft) 96,00 %
05.05.2017 14:42 11,8 C 15,0 C 80 % 1017,7 hPa 0,0 l/m 10,9 km/h (2 Bft) SW 218 0 min 0,000 mm 0,5 UV-I 122 W/m 8,5 C 9,1 C 19,3 km/h (3 Bft) 95,12 %
05.05.2017 14:44 11,8 C 15,0 C 81 % 1017,7 hPa 0,0 l/m 12,1 km/h (2 Bft) SW 223 0 min 0,000 mm 0,6 UV-I 128 W/m 8,6 C 8,5 C 17,7 km/h (3 Bft) 94,00 %
05.05.2017 14:46 11,8 C 15,0 C 81 % 1017,7 hPa 0,0 l/m 11,6 km/h (2 Bft) S-SW 208 0 min 0,000 mm 0,6 UV-I 140 W/m 8,6 C 8,8 C 17,7 km/h (3 Bft) 98,00 %
05.05.2017 14:48 11,8 C 15,0 C 81 % 1017,7 hPa 0,0 l/m 10,2 km/h (2 Bft) SW 232 0 min 0,000 mm 0,8 UV-I 165 W/m 8,6 C 9,5 C 12,9 km/h (3 Bft) 88,00 %
05.05.2017 14:50 11,9 C 15,0 C 81 % 1017,7 hPa 0,0 l/m 10,3 km/h (2 Bft) SW 234 0 min 0,000 mm 1,0 UV-I 218 W/m 8,7 C 9,5 C 17,7 km/h (3 Bft) 92,11 %
05.05.2017 14:52 12,0 C 15,0 C 81 % 1017,6 hPa 0,0 l/m 8,3 km/h (2 Bft) W-SW 248 0 min 0,000 mm 1,3 UV-I 288 W/m 8,8 C 10,8 C 14,5 km/h (3 Bft) 93,62 %
05.05.2017 14:54 12,1 C 15,0 C 81 % 1017,7 hPa 0,0 l/m 9,9 km/h (2 Bft) SW 235 0 min 0,000 mm 1,5 UV-I 326 W/m 8,9 C 10,0 C 14,5 km/h (3 Bft) 95,45 %
05.05.2017 14:56 12,2 C 15,0 C 81 % 1017,6 hPa 0,0 l/m 10,4 km/h (2 Bft) W-SW 248 0 min 0,000 mm 1,6 UV-I 342 W/m 9,0 C 9,8 C 16,1 km/h (3 Bft) 90,00 %
05.05.2017 14:58 12,3 C 15,0 C 80 % 1017,6 hPa 0,0 l/m 9,9 km/h (2 Bft) SW 221 0 min 0,000 mm 1,6 UV-I 338 W/m 8,9 C 10,2 C 16,1 km/h (3 Bft) 92,45 %
05.05.2017 15:00 12,4 C 15,0 C 80 % 1017,6 hPa 0,0 l/m 11,3 km/h (2 Bft) W-SW 238 0 min 0,127 mm 1,5 UV-I 321 W/m 9,0 C 9,6 C 17,7 km/h (3 Bft) 90,24 %
05.05.2017 15:02 12,5 C 15,0 C 79 % 1017,5 hPa 0,0 l/m 14,6 km/h (3 Bft) SW 236 0 min 0,000 mm 1,4 UV-I 298 W/m 9,0 C 8,3 C 22,5 km/h (4 Bft) 90,00 %
05.05.2017 15:04 12,5 C 15,0 C 79 % 1017,5 hPa 0,0 l/m 13,2 km/h (3 Bft) W-SW 240 0 min 0,000 mm 1,2 UV-I 262 W/m 9,0 C 8,9 C 17,7 km/h (3 Bft) 95,74 %
05.05.2017 15:06 12,6 C 15,0 C 80 % 1017,6 hPa 0,0 l/m 12,7 km/h (3 Bft) W-SW 240 0 min 0,000 mm 1,1 UV-I 244 W/m 9,2 C 9,2 C 19,3 km/h (3 Bft) 96,30 %
05.05.2017 15:08 12,6 C 15,0 C 80 % 1017,5 hPa 0,0 l/m 11,8 km/h (2 Bft) S-SW 209 0 min 0,000 mm 1,0 UV-I 219 W/m 9,2 C 9,6 C 17,7 km/h (3 Bft) 90,00 %
05.05.2017 15:10 12,5 C 15,0 C 80 % 1017,5 hPa 0,0 l/m 11,3 km/h (2 Bft) W-SW 250 0 min 0,000 mm 0,9 UV-I 197 W/m 9,1 C 9,7 C 14,5 km/h (3 Bft) 95,24 %
05.05.2017 15:12 12,4 C 15,0 C 79 % 1017,6 hPa 0,0 l/m 10,3 km/h (2 Bft) W-SW 246 0 min 0,000 mm 0,8 UV-I 192 W/m 8,9 C 10,1 C 17,7 km/h (3 Bft) 95,74 %
05.05.2017 15:14 12,4 C 15,0 C 79 % 1017,6 hPa 0,0 l/m 13,2 km/h (3 Bft) W-SW 255 0 min 0,000 mm 0,9 UV-I 197 W/m 8,9 C 8,8 C 19,3 km/h (3 Bft) 94,34 %
05.05.2017 15:16 12,3 C 15,0 C 79 % 1017,5 hPa 0,0 l/m 10,9 km/h (2 Bft) W-SW 256 0 min 0,000 mm 0,9 UV-I 207 W/m 8,8 C 9,7 C 17,7 km/h (3 Bft) 89,36 %
05.05.2017 15:18 12,3 C 15,0 C 79 % 1017,5 hPa 0,0 l/m 10,7 km/h (2 Bft) W-SW 242 0 min 0,000 mm 1,0 UV-I 224 W/m 8,8 C 9,8 C 16,1 km/h (3 Bft) 93,62 %
05.05.2017 15:20 12,3 C 15,0 C 80 % 1017,5 hPa 0,0 l/m 6,2 km/h (2 Bft) W 279 0 min 0,000 mm 1,0 UV-I 236 W/m 8,9 C 12,3 C 12,9 km/h (3 Bft) 94,74 %
05.05.2017 15:22 12,4 C 15,0 C 80 % 1017,5 hPa 0,0 l/m 9,9 km/h (2 Bft) SW 222 0 min 0,000 mm 1,1 UV-I 249 W/m 9,0 C 10,3 C 16,1 km/h (3 Bft) 98,21 %
05.05.2017 15:24 12,4 C 15,0 C 80 % 1017,5 hPa 0,0 l/m 7,5 km/h (2 Bft) SW 227 0 min 0,000 mm 1,1 UV-I 253 W/m 9,0 C 11,7 C 12,9 km/h (3 Bft) 97,14 %
05.05.2017 15:26 12,4 C 15,0 C 79 % 1017,5 hPa 0,0 l/m 8,4 km/h (2 Bft) SW 229 0 min 0,000 mm 1,1 UV-I 262 W/m 8,9 C 11,1 C 12,9 km/h (3 Bft) 94,00 %
05.05.2017 15:28 12,5 C 15,0 C 79 % 1017,5 hPa 0,0 l/m 10,3 km/h (2 Bft) S-SW 203 0 min 0,000 mm 1,2 UV-I 284 W/m 9,0 C 10,2 C 17,7 km/h (3 Bft) 98,11 %
05.05.2017 15:30 12,6 C 15,0 C 79 % 1017,5 hPa 0,0 l/m 8,2 km/h (2 Bft) SW 236 0 min 0,000 mm 1,3 UV-I 304 W/m 9,1 C 11,5 C 17,7 km/h (3 Bft) 93,62 %
05.05.2017 15:32 12,6 C 15,0 C 78 % 1017,5 hPa 0,0 l/m 11,0 km/h (2 Bft) SW 231 0 min 0,000 mm 1,3 UV-I 307 W/m 8,9 C 10,0 C 16,1 km/h (3 Bft) 96,15 %
05.05.2017 15:34 12,7 C 15,0 C 78 % 1017,5 hPa 0,0 l/m 9,9 km/h (2 Bft) W-SW 237 0 min 0,000 mm 1,3 UV-I 303 W/m 9,0 C 10,6 C 14,5 km/h (3 Bft) 94,64 %
05.05.2017 15:36 12,7 C 15,0 C 77 % 1017,5 hPa 0,0 l/m 10,1 km/h (2 Bft) SW 227 0 min 0,000 mm 1,3 UV-I 303 W/m 8,8 C 10,5 C 16,1 km/h (3 Bft) 94,64 %
05.05.2017 15:38 12,8 C 15,0 C 76 % 1017,5 hPa 0,0 l/m 9,0 km/h (2 Bft) W-SW 243 0 min 0,000 mm 1,3 UV-I 318 W/m 8,7 C 11,2 C 12,9 km/h (3 Bft) 94,74 %
05.05.2017 15:40 12,9 C 15,0 C 77 % 1017,5 hPa 0,0 l/m 10,0 km/h (2 Bft) W-SW 258 0 min 0,000 mm 1,4 UV-I 342 W/m 9,0 C 10,8 C 17,7 km/h (3 Bft) 96,23 %
05.05.2017 15:42 13,0 C 15,0 C 77 % 1017,5 hPa 0,0 l/m 9,5 km/h (2 Bft) W-SW 250 2 min 0,000 mm 1,5 UV-I 384 W/m 9,1 C 11,2 C 14,5 km/h (3 Bft) 96,00 %
05.05.2017 15:44 13,1 C 15,0 C 76 % 1017,5 hPa 0,0 l/m 12,3 km/h (3 Bft) SW 236 2 min 0,000 mm 1,5 UV-I 392 W/m 9,0 C 10,0 C 19,3 km/h (3 Bft) 98,00 %
05.05.2017 15:46 13,2 C 15,0 C 76 % 1017,6 hPa 0,0 l/m 9,9 km/h (2 Bft) S-SW 202 0 min 0,000 mm 1,5 UV-I 369 W/m 9,1 C 11,2 C 16,1 km/h (3 Bft) 95,12 %
05.05.2017 15:48 13,2 C 15,0 C 75 % 1017,5 hPa 0,0 l/m 10,6 km/h (2 Bft) SW 231 0 min 0,000 mm 1,3 UV-I 322 W/m 8,9 C 10,8 C 14,5 km/h (3 Bft) 95,56 %
05.05.2017 15:50 13,3 C 15,0 C 77 % 1017,4 hPa 0,0 l/m 6,3 km/h (2 Bft) W-SW 247 0 min 0,000 mm 1,2 UV-I 290 W/m 9,4 C 13,3 C 11,3 km/h (2 Bft) 98,00 %
05.05.2017 15:52 13,3 C 15,0 C 76 % 1017,5 hPa 0,0 l/m 11,3 km/h (2 Bft) W-SW 255 0 min 0,000 mm 1,1 UV-I 265 W/m 9,2 C 10,6 C 17,7 km/h (3 Bft) 97,37 %
05.05.2017 15:54 13,3 C 15,0 C 75 % 1017,5 hPa 0,0 l/m 11,3 km/h (2 Bft) SW 236 0 min 0,000 mm 1,1 UV-I 250 W/m 9,0 C 10,6 C 16,1 km/h (3 Bft) 96,43 %
05.05.2017 15:56 13,2 C 15,0 C 75 % 1017,4 hPa 0,0 l/m 10,5 km/h (2 Bft) SW 227 0 min 0,000 mm 1,0 UV-I 233 W/m 8,9 C 10,9 C 17,7 km/h (3 Bft) 95,12 %
05.05.2017 15:58 13,2 C 15,0 C 76 % 1017,4 hPa 0,0 l/m 10,2 km/h (2 Bft) W-SW 254 0 min 0,000 mm 0,9 UV-I 223 W/m 9,1 C 11,0 C 17,7 km/h (3 Bft) 100,00 %
05.05.2017 16:00 13,2 C 15,0 C 75 % 1017,5 hPa 0,0 l/m 11,8 km/h (2 Bft) W-SW 242 0 min 0,153 mm 0,9 UV-I 216 W/m 8,9 C 10,3 C 16,1 km/h (3 Bft) 97,73 %
05.05.2017 16:02 13,2 C 15,0 C 75 % 1017,4 hPa 0,0 l/m 10,1 km/h (2 Bft) W-SW 257 0 min 0,000 mm 0,9 UV-I 214 W/m 8,9 C 11,1 C 14,5 km/h (3 Bft) 100,00 %
05.05.2017 16:04 13,2 C 15,0 C 76 % 1017,4 hPa 0,0 l/m 8,4 km/h (2 Bft) SW 220 0 min 0,000 mm 0,9 UV-I 228 W/m 9,1 C 12,0 C 14,5 km/h (3 Bft) 96,43 %
05.05.2017 16:06 13,1 C 15,0 C 75 % 1017,4 hPa 0,0 l/m 10,4 km/h (2 Bft) SW 216 0 min 0,000 mm 1,0 UV-I 243 W/m 8,8 C 10,8 C 14,5 km/h (3 Bft) 100,00 %
05.05.2017 16:08 13,1 C 15,0 C 76 % 1017,4 hPa 0,0 l/m 8,2 km/h (2 Bft) W-SW 254 0 min 0,000 mm 1,1 UV-I 247 W/m 9,0 C 12,0 C 12,9 km/h (3 Bft) 98,21 %
05.05.2017 16:10 13,2 C 15,0 C 77 % 1017,3 hPa 0,0 l/m 6,1 km/h (2 Bft) W-SW 252 0 min 0,000 mm 1,0 UV-I 239 W/m 9,3 C 13,2 C 11,3 km/h (2 Bft) 95,12 %
05.05.2017 16:12 13,2 C 15,0 C 77 % 1017,3 hPa 0,0 l/m 7,0 km/h (2 Bft) W 275 0 min 0,000 mm 0,9 UV-I 214 W/m 9,3 C 12,8 C 11,3 km/h (2 Bft) 100,00 %
05.05.2017 16:14 13,2 C 15,0 C 75 % 1017,3 hPa 0,0 l/m 9,0 km/h (2 Bft) W-SW 238 0 min 0,000 mm 0,9 UV-I 208 W/m 8,9 C 11,6 C 16,1 km/h (3 Bft) 95,74 %
05.05.2017 16:16 13,2 C 15,0 C 76 % 1017,3 hPa 0,0 l/m 8,6 km/h (2 Bft) W-SW 239 0 min 0,000 mm 0,8 UV-I 200 W/m 9,1 C 11,9 C 14,5 km/h (3 Bft) 100,00 %
05.05.2017 16:18 13,2 C 15,0 C 77 % 1017,3 hPa 0,0 l/m 9,6 km/h (2 Bft) W 276 0 min 0,000 mm 0,7 UV-I 188 W/m 9,3 C 11,3 C 14,5 km/h (3 Bft) 100,00 %
05.05.2017 16:20 13,1 C 15,0 C 77 % 1017,3 hPa 0,0 l/m 13,2 km/h (3 Bft) W 267 0 min 0,000 mm 0,7 UV-I 189 W/m 9,2 C 9,6 C 20,9 km/h (4 Bft) 100,00 %
05.05.2017 16:22 12,9 C 15,0 C 79 % 1017,3 hPa 0,0 l/m 6,4 km/h (2 Bft) SW 236 0 min 0,000 mm 0,8 UV-I 210 W/m 9,3 C 12,9 C 11,3 km/h (2 Bft) 100,00 %
05.05.2017 16:24 12,8 C 15,0 C 81 % 1017,3 hPa 0,0 l/m 9,3 km/h (2 Bft) W-SW 252 0 min 0,000 mm 1,0 UV-I 260 W/m 9,6 C 11,1 C 16,1 km/h (3 Bft) 97,62 %
05.05.2017 16:26 12,7 C 15,0 C 81 % 1017,4 hPa 0,0 l/m 7,6 km/h (2 Bft) W-SW 248 0 min 0,000 mm 1,1 UV-I 293 W/m 9,5 C 11,9 C 16,1 km/h (3 Bft) 100,00 %
05.05.2017 16:28 12,6 C 15,0 C 82 % 1017,4 hPa 0,0 l/m 8,3 km/h (2 Bft) W-SW 254 0 min 0,000 mm 1,1 UV-I 288 W/m 9,6 C 11,4 C 17,7 km/h (3 Bft) 100,00 %
05.05.2017 16:30 12,5 C 15,0 C 84 % 1017,5 hPa 0,0 l/m 9,8 km/h (2 Bft) W-SW 257 0 min 0,000 mm 1,1 UV-I 247 W/m 9,9 C 10,5 C 19,3 km/h (3 Bft) 97,37 %
05.05.2017 16:32 12,3 C 15,0 C 84 % 1017,4 hPa 0,0 l/m 9,1 km/h (2 Bft) W-SW 254 0 min 0,000 mm 1,1 UV-I 241 W/m 9,7 C 10,6 C 17,7 km/h (3 Bft) 96,00 %
05.05.2017 16:34 12,3 C 15,0 C 85 % 1017,5 hPa 0,0 l/m 5,9 km/h (2 Bft) W-SW 240 0 min 0,000 mm 1,1 UV-I 258 W/m 9,9 C 12,3 C 11,3 km/h (2 Bft) 100,00 %
05.05.2017 16:36 12,2 C 15,0 C 86 % 1017,5 hPa 0,0 l/m 8,0 km/h (2 Bft) W-SW 253 0 min 0,000 mm 1,1 UV-I 280 W/m 9,9 C 11,2 C 16,1 km/h (3 Bft) 98,11 %
05.05.2017 16:38 12,2 C 15,0 C 86 % 1017,5 hPa 0,0 l/m 6,4 km/h (2 Bft) W-NW 286 0 min 0,000 mm 1,1 UV-I 272 W/m 9,9 C 12,2 C 12,9 km/h (3 Bft) 100,00 %
05.05.2017 16:40 12,1 C 15,0 C 85 % 1017,5 hPa 0,0 l/m 7,0 km/h (2 Bft) W 275 0 min 0,000 mm 1,0 UV-I 275 W/m 9,7 C 11,7 C 12,9 km/h (3 Bft) 97,56 %
05.05.2017 16:42 12,2 C 15,0 C 86 % 1017,5 hPa 0,0 l/m 7,7 km/h (2 Bft) W-SW 243 0 min 0,000 mm 1,1 UV-I 298 W/m 9,9 C 11,3 C 14,5 km/h (3 Bft) 98,11 %
05.05.2017 16:44 12,1 C 15,0 C 84 % 1017,5 hPa 0,0 l/m 6,4 km/h (2 Bft) SW 235 0 min 0,000 mm 1,0 UV-I 307 W/m 9,5 C 12,1 C 11,3 km/h (2 Bft) 93,62 %
05.05.2017 16:46 12,1 C 15,0 C 84 % 1017,5 hPa 0,0 l/m 7,4 km/h (2 Bft) W 261 0 min 0,000 mm 1,0 UV-I 304 W/m 9,5 C 11,4 C 12,9 km/h (3 Bft) 97,50 %
05.05.2017 16:48 12,1 C 15,0 C 84 % 1017,5 hPa 0,0 l/m 5,2 km/h (1 Bft) SW 231 0 min 0,000 mm 1,0 UV-I 288 W/m 9,5 C 12,1 C 8,0 km/h (2 Bft) 96,00 %
05.05.2017 16:50 12,1 C 15,0 C 84 % 1017,5 hPa 0,0 l/m 6,6 km/h (2 Bft) W-SW 242 0 min 0,000 mm 0,9 UV-I 262 W/m 9,5 C 12,0 C 8,0 km/h (2 Bft) 97,56 %
05.05.2017 16:52 12,1 C 15,0 C 82 % 1017,5 hPa 0,0 l/m 4,8 km/h (1 Bft) SW 224 0 min 0,000 mm 0,8 UV-I 245 W/m 9,1 C 12,1 C 11,3 km/h (2 Bft) 96,00 %
05.05.2017 16:54 12,1 C 15,0 C 83 % 1017,5 hPa 0,0 l/m 8,7 km/h (2 Bft) W 266 0 min 0,000 mm 0,8 UV-I 233 W/m 9,3 C 10,6 C 12,9 km/h (3 Bft) 97,56 %
05.05.2017 16:56 12,1 C 15,0 C 83 % 1017,5 hPa 0,0 l/m 6,8 km/h (2 Bft) W 259 0 min 0,000 mm 0,8 UV-I 225 W/m 9,3 C 11,8 C 12,9 km/h (3 Bft) 96,43 %
05.05.2017 16:58 12,1 C 15,0 C 82 % 1017,5 hPa 0,0 l/m 5,7 km/h (1 Bft) SW 236 0 min 0,000 mm 0,7 UV-I 220 W/m 9,1 C 12,1 C 9,7 km/h (2 Bft) 96,00 %
05.05.2017 17:00 12,2 C 15,0 C 83 % 1017,5 hPa 0,0 l/m 5,2 km/h (1 Bft) W-SW 256 0 min 0,127 mm 0,8 UV-I 230 W/m 9,4 C 12,2 C 8,0 km/h (2 Bft) 97,37 %
05.05.2017 17:02 12,2 C 15,0 C 82 % 1017,5 hPa 0,0 l/m 4,4 km/h (1 Bft) W-SW 252 0 min 0,000 mm 0,8 UV-I 266 W/m 9,2 C 12,2 C 8,0 km/h (2 Bft) 96,23 %
05.05.2017 17:04 12,3 C 15,0 C 83 % 1017,5 hPa 0,0 l/m 4,0 km/h (1 Bft) W 271 2 min 0,000 mm 0,9 UV-I 315 W/m 9,5 C 12,3 C 9,7 km/h (2 Bft) 96,00 %
05.05.2017 17:06 12,4 C 15,0 C 81 % 1017,5 hPa 0,0 l/m 8,2 km/h (2 Bft) W-SW 237 2 min 0,000 mm 1,1 UV-I 390 W/m 9,2 C 11,3 C 12,9 km/h (3 Bft) 97,22 %
05.05.2017 17:08 12,6 C 15,0 C 81 % 1017,5 hPa 0,0 l/m 5,3 km/h (1 Bft) W-SW 245 2 min 0,000 mm 1,2 UV-I 480 W/m 9,4 C 12,6 C 8,0 km/h (2 Bft) 96,23 %
05.05.2017 17:10 12,8 C 15,0 C 80 % 1017,5 hPa 0,0 l/m 6,4 km/h (2 Bft) W-SW 245 2 min 0,000 mm 1,1 UV-I 480 W/m 9,4 C 12,8 C 16,1 km/h (3 Bft) 96,00 %
05.05.2017 17:12 12,9 C 15,0 C 78 % 1017,5 hPa 0,0 l/m 6,5 km/h (2 Bft) W-SW 250 2 min 0,000 mm 1,1 UV-I 425 W/m 9,2 C 12,9 C 9,7 km/h (2 Bft) 97,56 %
05.05.2017 17:14 12,9 C 15,0 C 79 % 1017,5 hPa 0,0 l/m 8,3 km/h (2 Bft) W-SW 254 2 min 0,000 mm 1,0 UV-I 360 W/m 9,3 C 11,7 C 14,5 km/h (3 Bft) 98,11 %
05.05.2017 17:16 13,0 C 15,0 C 77 % 1017,5 hPa 0,0 l/m 7,2 km/h (2 Bft) W-SW 240 2 min 0,000 mm 1,1 UV-I 447 W/m 9,1 C 12,5 C 12,9 km/h (3 Bft) 97,56 %
05.05.2017 17:18 13,1 C 15,0 C 77 % 1017,5 hPa 0,0 l/m 7,4 km/h (2 Bft) W 271 2 min 0,000 mm 1,0 UV-I 391 W/m 9,2 C 12,5 C 12,9 km/h (3 Bft) 98,00 %
05.05.2017 17:20 13,2 C 15,0 C 77 % 1017,5 hPa 0,0 l/m 4,7 km/h (1 Bft) W-SW 254 2 min 0,000 mm 0,9 UV-I 334 W/m 9,3 C 13,2 C 11,3 km/h (2 Bft) 100,00 %
05.05.2017 17:22 13,2 C 15,0 C 76 % 1017,4 hPa 0,0 l/m 7,5 km/h (2 Bft) W-NW 289 2 min 0,000 mm 0,9 UV-I 340 W/m 9,1 C 12,5 C 14,5 km/h (3 Bft) 94,34 %
05.05.2017 17:24 13,1 C 15,0 C 76 % 1017,4 hPa 0,0 l/m 8,3 km/h (2 Bft) W-SW 257 2 min 0,000 mm 0,9 UV-I 310 W/m 9,0 C 11,9 C 12,9 km/h (3 Bft) 100,00 %
05.05.2017 17:26 13,1 C 15,0 C 77 % 1017,4 hPa 0,0 l/m 9,2 km/h (2 Bft) W-SW 258 2 min 0,000 mm 0,9 UV-I 378 W/m 9,2 C 11,4 C 14,5 km/h (3 Bft) 100,00 %
05.05.2017 17:28 13,1 C 15,0 C 77 % 1017,4 hPa 0,0 l/m 8,1 km/h (2 Bft) W-SW 257 2 min 0,000 mm 0,9 UV-I 432 W/m 9,2 C 12,0 C 11,3 km/h (2 Bft) 98,11 %
05.05.2017 17:30 13,2 C 15,0 C 77 % 1017,4 hPa 0,0 l/m 6,8 km/h (2 Bft) SW 234 2 min 0,000 mm 0,8 UV-I 384 W/m 9,3 C 13,0 C 11,3 km/h (2 Bft) 100,00 %
05.05.2017 17:32 13,3 C 15,0 C 78 % 1017,3 hPa 0,0 l/m 8,3 km/h (2 Bft) W-SW 257 2 min 0,000 mm 0,8 UV-I 389 W/m 9,5 C 12,1 C 11,3 km/h (2 Bft) 98,21 %
05.05.2017 17:34 13,4 C 15,0 C 78 % 1017,4 hPa 0,0 l/m 6,4 km/h (2 Bft) W 273 2 min 0,000 mm 0,7 UV-I 318 W/m 9,6 C 13,4 C 11,3 km/h (2 Bft) 100,00 %
05.05.2017 17:36 13,5 C 15,0 C 77 % 1017,4 hPa 0,0 l/m 4,4 km/h (1 Bft) W-SW 250 2 min 0,000 mm 0,7 UV-I 306 W/m 9,5 C 13,5 C 8,0 km/h (2 Bft) 98,44 %
05.05.2017 17:38 13,5 C 15,0 C 78 % 1017,4 hPa 0,0 l/m 10,8 km/h (2 Bft) W-SW 250 2 min 0,000 mm 0,7 UV-I 240 W/m 9,7 C 11,1 C 14,5 km/h (3 Bft) 97,87 %
05.05.2017 17:40 13,3 C 15,0 C 76 % 1017,4 hPa 0,0 l/m 8,8 km/h (2 Bft) W-SW 241 2 min 0,000 mm 0,7 UV-I 238 W/m 9,2 C 11,9 C 14,5 km/h (3 Bft) 97,37 %
05.05.2017 17:42 13,3 C 15,0 C 78 % 1017,4 hPa 0,0 l/m 7,8 km/h (2 Bft) SW 223 2 min 0,000 mm 0,7 UV-I 255 W/m 9,5 C 12,4 C 12,9 km/h (3 Bft) 96,00 %
05.05.2017 17:44 13,2 C 15,0 C 77 % 1017,4 hPa 0,0 l/m 9,0 km/h (2 Bft) W-SW 246 0 min 0,000 mm 0,6 UV-I 229 W/m 9,3 C 11,6 C 16,1 km/h (3 Bft) 97,44 %
05.05.2017 17:46 13,2 C 15,0 C 77 % 1017,4 hPa 0,0 l/m 7,3 km/h (2 Bft) W-SW 250 0 min 0,000 mm 0,6 UV-I 225 W/m 9,3 C 12,6 C 14,5 km/h (3 Bft) 98,21 %
05.05.2017 17:48 13,2 C 15,0 C 78 % 1017,4 hPa 0,0 l/m 5,9 km/h (2 Bft) W 263 2 min 0,000 mm 0,6 UV-I 225 W/m 9,4 C 13,2 C 11,3 km/h (2 Bft) 100,00 %
05.05.2017 17:50 13,2 C 15,0 C 77 % 1017,4 hPa 0,0 l/m 6,1 km/h (2 Bft) SW 229 2 min 0,000 mm 0,6 UV-I 230 W/m 9,3 C 13,2 C 11,3 km/h (2 Bft) 97,56 %
05.05.2017 17:52 13,1 C 15,0 C 77 % 1017,4 hPa 0,0 l/m 4,8 km/h (1 Bft) W-SW 252 2 min 0,000 mm 0,6 UV-I 230 W/m 9,2 C 13,1 C 9,7 km/h (2 Bft) 98,21 %
05.05.2017 17:54 13,1 C 15,0 C 77 % 1017,5 hPa 0,0 l/m 4,8 km/h (1 Bft) SW 221 2 min 0,000 mm 0,5 UV-I 217 W/m 9,2 C 13,1 C 6,4 km/h (2 Bft) 97,87 %
05.05.2017 17:56 13,1 C 15,0 C 77 % 1017,5 hPa 0,0 l/m 3,4 km/h (1 Bft) NW 306 2 min 0,000 mm 0,5 UV-I 213 W/m 9,2 C 13,1 C 6,4 km/h (2 Bft) 89,47 %
05.05.2017 17:58 13,1 C 15,0 C 77 % 1017,5 hPa 0,0 l/m 2,1 km/h (1 Bft) W 276 0 min 0,000 mm 0,5 UV-I 203 W/m 9,2 C 13,1 C 4,8 km/h (1 Bft) 96,00 %
05.05.2017 18:00 13,1 C 15,0 C 78 % 1017,4 hPa 0,0 l/m 2,4 km/h (1 Bft) W-SW 249 0 min 0,178 mm 0,5 UV-I 187 W/m 9,4 C 13,1 C 8,0 km/h (2 Bft) 95,12 %
05.05.2017 18:02 13,2 C 15,0 C 78 % 1017,4 hPa 0,0 l/m 4,3 km/h (1 Bft) W 262 0 min 0,000 mm 0,5 UV-I 173 W/m 9,4 C 13,2 C 8,0 km/h (2 Bft) 96,43 %
05.05.2017 18:04 13,1 C 15,0 C 78 % 1017,4 hPa 0,0 l/m 6,7 km/h (2 Bft) W-SW 238 0 min 0,000 mm 0,5 UV-I 167 W/m 9,4 C 12,9 C 11,3 km/h (2 Bft) 95,65 %
05.05.2017 18:06 13,1 C 15,0 C 78 % 1017,4 hPa 0,0 l/m 7,0 km/h (2 Bft) W-SW 240 0 min 0,000 mm 0,5 UV-I 168 W/m 9,4 C 12,7 C 11,3 km/h (2 Bft) 97,18 %
05.05.2017 18:08 13,0 C 15,0 C 78 % 1017,4 hPa 0,0 l/m 8,0 km/h (2 Bft) W-SW 251 0 min 0,000 mm 0,0 UV-I 176 W/m 9,3 C 12,0 C 12,9 km/h (3 Bft) 97,87 %
05.05.2017 18:10 12,9 C 15,0 C 79 % 1017,4 hPa 0,0 l/m 5,4 km/h (1 Bft) W 275 0 min 0,000 mm 0,0 UV-I 188 W/m 9,3 C 12,9 C 8,0 km/h (2 Bft) 100,00 %
05.05.2017 18:12 13,0 C 15,0 C 79 % 1017,4 hPa 0,0 l/m 2,9 km/h (1 Bft) W-NW 302 2 min 0,000 mm 0,0 UV-I 209 W/m 9,4 C 13,0 C 6,4 km/h (2 Bft) 96,00 %
05.05.2017 18:14 13,1 C 15,0 C 79 % 1017,3 hPa 0,0 l/m 1,4 km/h (1 Bft) W-NW 302 2 min 0,000 mm 0,0 UV-I 229 W/m 9,5 C 13,1 C 3,2 km/h (1 Bft) 93,62 %
05.05.2017 18:16 13,1 C 15,0 C 80 % 1017,3 hPa 0,0 l/m 2,4 km/h (1 Bft) NW 313 2 min 0,000 mm 0,0 UV-I 234 W/m 9,7 C 13,1 C 6,4 km/h (2 Bft) 94,34 %
05.05.2017 18:18 13,2 C 15,0 C 80 % 1017,3 hPa 0,0 l/m 3,0 km/h (1 Bft) W-NW 293 2 min 0,000 mm 0,0 UV-I 243 W/m 9,8 C 13,2 C 9,7 km/h (2 Bft) 92,11 %
05.05.2017 18:20 13,2 C 15,0 C 79 % 1017,3 hPa 0,0 l/m 3,7 km/h (1 Bft) W 265 2 min 0,000 mm 0,0 UV-I 218 W/m 9,6 C 13,2 C 9,7 km/h (2 Bft) 98,11 %
05.05.2017 18:22 13,2 C 15,0 C 79 % 1017,2 hPa 0,0 l/m 1,8 km/h (1 Bft) W 278 2 min 0,000 mm 0,0 UV-I 194 W/m 9,6 C 13,2 C 4,8 km/h (1 Bft) 97,44 %
05.05.2017 18:24 13,2 C 15,0 C 80 % 1017,2 hPa 0,0 l/m 2,4 km/h (1 Bft) W 278 2 min 0,000 mm 0,0 UV-I 183 W/m 9,8 C 13,2 C 3,2 km/h (1 Bft) 94,34 %
05.05.2017 18:26 13,2 C 15,0 C 80 % 1017,2 hPa 0,0 l/m 2,0 km/h (1 Bft) W-NW 284 2 min 0,000 mm 0,0 UV-I 187 W/m 9,8 C 13,2 C 4,8 km/h (1 Bft) 98,00 %
05.05.2017 18:28 13,1 C 15,0 C 78 % 1017,1 hPa 0,0 l/m 4,7 km/h (1 Bft) W-SW 255 2 min 0,000 mm 0,0 UV-I 180 W/m 9,4 C 13,1 C 11,3 km/h (2 Bft) 95,12 %
05.05.2017 18:30 13,0 C 15,0 C 79 % 1017,1 hPa 0,0 l/m 4,1 km/h (1 Bft) W-SW 244 2 min 0,000 mm 0,0 UV-I 177 W/m 9,4 C 13,0 C 6,4 km/h (2 Bft) 98,00 %
05.05.2017 18:32 13,0 C 15,0 C 79 % 1017,1 hPa 0,0 l/m 3,8 km/h (1 Bft) W 281 2 min 0,000 mm 0,0 UV-I 172 W/m 9,4 C 13,0 C 6,4 km/h (2 Bft) 92,68 %
05.05.2017 18:34 13,0 C 15,0 C 79 % 1017,1 hPa 0,0 l/m 4,2 km/h (1 Bft) W 265 2 min 0,000 mm 0,0 UV-I 167 W/m 9,4 C 13,0 C 6,4 km/h (2 Bft) 92,86 %
05.05.2017 18:36 13,0 C 15,0 C 79 % 1017,1 hPa 0,0 l/m 4,6 km/h (1 Bft) W 276 2 min 0,000 mm 0,0 UV-I 163 W/m 9,4 C 13,0 C 9,7 km/h (2 Bft) 97,73 %
05.05.2017 18:38 13,0 C 15,0 C 79 % 1017,1 hPa 0,0 l/m 4,5 km/h (1 Bft) W-NW 301 2 min 0,000 mm 0,0 UV-I 162 W/m 9,4 C 13,0 C 9,7 km/h (2 Bft) 93,62 %
05.05.2017 18:40 13,0 C 15,0 C 80 % 1017,1 hPa 0,0 l/m 2,3 km/h (1 Bft) W-NW 300 2 min 0,000 mm 0,0 UV-I 171 W/m 9,6 C 13,0 C 4,8 km/h (1 Bft) 96,00 %
05.05.2017 18:42 13,0 C 15,0 C 81 % 1017,1 hPa 0,0 l/m 5,3 km/h (1 Bft) W-NW 287 2 min 0,000 mm 0,0 UV-I 173 W/m 9,8 C 13,0 C 9,7 km/h (2 Bft) 97,87 %
05.05.2017 18:44 13,0 C 15,0 C 79 % 1017,1 hPa 0,0 l/m 3,0 km/h (1 Bft) W 275 2 min 0,000 mm 0,0 UV-I 207 W/m 9,4 C 13,0 C 4,8 km/h (1 Bft) 94,74 %
05.05.2017 18:46 13,1 C 15,0 C 81 % 1017,1 hPa 0,0 l/m 0,8 km/h (0 Bft) W 275 2 min 0,000 mm 0,0 UV-I 194 W/m 9,9 C 13,1 C 3,2 km/h (1 Bft) 96,00 %
05.05.2017 18:48 13,2 C 15,0 C 81 % 1017,1 hPa 0,0 l/m 0,4 km/h (0 Bft) W 275 2 min 0,000 mm 0,0 UV-I 160 W/m 10,0 C 13,2 C 1,6 km/h (1 Bft) 96,23 %
05.05.2017 18:50 13,2 C 15,0 C 80 % 1017,1 hPa 0,0 l/m 4,1 km/h (1 Bft) W 273 2 min 0,000 mm 0,0 UV-I 161 W/m 9,8 C 13,2 C 6,4 km/h (2 Bft) 91,49 %
05.05.2017 18:53 13,2 C 15,0 C 80 % 1017,2 hPa 0,0 l/m 4,2 km/h (1 Bft) W 272 3 min 0,000 mm 0,0 UV-I 162 W/m 9,8 C 13,2 C 9,7 km/h (2 Bft) 93,85 %
05.05.2017 18:54 13,2 C 15,0 C 80 % 1017,2 hPa 0,0 l/m 1,5 km/h (1 Bft) W 272 1 min 0,000 mm 0,0 UV-I 150 W/m 9,8 C 13,2 C 3,2 km/h (1 Bft) 95,65 %
05.05.2017 18:56 13,2 C 15,0 C 80 % 1017,2 hPa 0,0 l/m 3,2 km/h (1 Bft) W 267 2 min 0,000 mm 0,0 UV-I 142 W/m 9,8 C 13,2 C 6,4 km/h (2 Bft) 96,00 %
05.05.2017 18:58 13,2 C 15,0 C 80 % 1017,2 hPa 0,0 l/m 4,0 km/h (1 Bft) W-SW 253 2 min 0,000 mm 0,0 UV-I 132 W/m 9,8 C 13,2 C 8,0 km/h (2 Bft) 95,12 %
05.05.2017 19:00 13,1 C 15,0 C 80 % 1017,2 hPa 0,0 l/m 3,8 km/h (1 Bft) W-SW 253 2 min 0,101 mm 0,0 UV-I 121 W/m 9,7 C 13,1 C 4,8 km/h (1 Bft) 97,87 %
05.05.2017 19:02 13,0 C 15,0 C 80 % 1017,2 hPa 0,0 l/m 3,5 km/h (1 Bft) W-SW 253 2 min 0,000 mm 0,0 UV-I 119 W/m 9,6 C 13,0 C 6,4 km/h (2 Bft) 95,24 %
05.05.2017 19:04 12,9 C 15,0 C 80 % 1017,3 hPa 0,0 l/m 3,7 km/h (1 Bft) W 261 2 min 0,000 mm 0,0 UV-I 121 W/m 9,5 C 12,9 C 4,8 km/h (1 Bft) 98,11 %
05.05.2017 19:06 12,9 C 15,0 C 81 % 1017,3 hPa 0,0 l/m 0,9 km/h (0 Bft) W 261 2 min 0,000 mm 0,0 UV-I 120 W/m 9,7 C 12,9 C 3,2 km/h (1 Bft) 88,00 %
05.05.2017 19:08 12,9 C 15,0 C 81 % 1017,3 hPa 0,0 l/m 1,6 km/h (1 Bft) W 261 2 min 0,000 mm 0,0 UV-I 123 W/m 9,7 C 12,9 C 3,2 km/h (1 Bft) 98,00 %
05.05.2017 19:10 13,0 C 15,0 C 81 % 1017,3 hPa 0,0 l/m 2,3 km/h (1 Bft) W 261 2 min 0,000 mm 0,0 UV-I 131 W/m 9,8 C 13,0 C 4,8 km/h (1 Bft) 97,14 %
05.05.2017 19:12 13,1 C 15,0 C 81 % 1017,3 hPa 0,0 l/m 4,1 km/h (1 Bft) W-SW 255 2 min 0,000 mm 0,0 UV-I 113 W/m 9,9 C 13,1 C 6,4 km/h (2 Bft) 96,30 %
05.05.2017 19:14 13,1 C 15,0 C 80 % 1017,3 hPa 0,0 l/m 2,6 km/h (1 Bft) W-SW 257 2 min 0,000 mm 0,0 UV-I 101 W/m 9,7 C 13,1 C 4,8 km/h (1 Bft) 93,62 %
05.05.2017 19:16 13,0 C 15,0 C 80 % 1017,3 hPa 0,0 l/m 4,0 km/h (1 Bft) W-SW 257 2 min 0,000 mm 0,0 UV-I 99 W/m 9,6 C 13,0 C 6,4 km/h (2 Bft) 100,00 %
05.05.2017 19:18 12,9 C 15,0 C 81 % 1017,3 hPa 0,0 l/m 2,7 km/h (1 Bft) W-SW 257 2 min 0,000 mm 0,0 UV-I 104 W/m 9,7 C 12,9 C 4,8 km/h (1 Bft) 100,00 %
05.05.2017 19:20 12,9 C 15,0 C 81 % 1017,3 hPa 0,0 l/m 2,7 km/h (1 Bft) W-SW 257 2 min 0,000 mm 0,0 UV-I 106 W/m 9,7 C 12,9 C 4,8 km/h (1 Bft) 100,00 %
05.05.2017 19:22 12,9 C 15,0 C 81 % 1017,3 hPa 0,0 l/m 3,3 km/h (1 Bft) W-SW 257 2 min 0,000 mm 0,0 UV-I 109 W/m 9,7 C 12,9 C 4,8 km/h (1 Bft) 100,00 %
05.05.2017 19:24 12,8 C 15,0 C 81 % 1017,3 hPa 0,0 l/m 2,1 km/h (1 Bft) W-SW 257 2 min 0,000 mm 0,0 UV-I 111 W/m 9,6 C 12,8 C 4,8 km/h (1 Bft) 100,00 %
05.05.2017 19:26 12,9 C 15,0 C 82 % 1017,2 hPa 0,0 l/m 1,7 km/h (1 Bft) W-SW 257 2 min 0,000 mm 0,0 UV-I 116 W/m 9,9 C 12,9 C 3,2 km/h (1 Bft) 90,00 %
05.05.2017 19:28 12,9 C 15,0 C 81 % 1017,3 hPa 0,0 l/m 2,6 km/h (1 Bft) W-SW 257 2 min 0,000 mm 0,0 UV-I 118 W/m 9,7 C 12,9 C 4,8 km/h (1 Bft) 97,87 %
05.05.2017 19:30 12,9 C 15,0 C 82 % 1017,3 hPa 0,0 l/m 1,0 km/h (0 Bft) W-SW 257 2 min 0,000 mm 0,0 UV-I 116 W/m 9,9 C 12,9 C 3,2 km/h (1 Bft) 98,00 %
05.05.2017 19:32 12,9 C 15,0 C 82 % 1017,3 hPa 0,0 l/m 1,1 km/h (1 Bft) W-SW 257 2 min 0,000 mm 0,0 UV-I 110 W/m 9,9 C 12,9 C 1,6 km/h (1 Bft) 89,47 %
05.05.2017 19:34 12,9 C 15,0 C 82 % 1017,3 hPa 0,0 l/m 1,1 km/h (1 Bft) W-SW 257 2 min 0,000 mm 0,0 UV-I 101 W/m 9,9 C 12,9 C 3,2 km/h (1 Bft) 92,45 %
05.05.2017 19:36 12,9 C 15,0 C 82 % 1017,4 hPa 0,0 l/m 2,1 km/h (1 Bft) W-SW 257 2 min 0,000 mm 0,0 UV-I 95 W/m 9,9 C 12,9 C 4,8 km/h (1 Bft) 98,11 %
05.05.2017 19:38 12,9 C 15,0 C 81 % 1017,3 hPa 0,0 l/m 2,4 km/h (1 Bft) W-SW 257 2 min 0,000 mm 0,0 UV-I 94 W/m 9,7 C 12,9 C 4,8 km/h (1 Bft) 97,56 %
05.05.2017 19:40 12,8 C 15,0 C 81 % 1017,4 hPa 0,0 l/m 2,8 km/h (1 Bft) W-SW 257 2 min 0,000 mm 0,0 UV-I 90 W/m 9,6 C 12,8 C 4,8 km/h (1 Bft) 91,49 %
05.05.2017 19:42 12,8 C 15,0 C 81 % 1017,4 hPa 0,0 l/m 1,7 km/h (1 Bft) W-SW 257 2 min 0,000 mm 0,0 UV-I 84 W/m 9,6 C 12,8 C 3,2 km/h (1 Bft) 94,34 %
05.05.2017 19:44 12,8 C 15,0 C 82 % 1017,4 hPa 0,0 l/m 1,8 km/h (1 Bft) W-SW 257 2 min 0,000 mm 0,0 UV-I 79 W/m 9,8 C 12,8 C 3,2 km/h (1 Bft) 97,44 %
05.05.2017 19:46 12,8 C 15,0 C 82 % 1017,4 hPa 0,0 l/m 0,3 km/h (0 Bft) W-SW 257 2 min 0,000 mm 0,0 UV-I 72 W/m 9,8 C 12,8 C 1,6 km/h (1 Bft) 92,00 %
05.05.2017 19:48 12,8 C 15,0 C 82 % 1017,4 hPa 0,0 l/m 1,0 km/h (0 Bft) W-SW 257 2 min 0,000 mm 0,0 UV-I 68 W/m 9,8 C 12,8 C 3,2 km/h (1 Bft) 97,56 %
05.05.2017 19:50 12,8 C 15,0 C 82 % 1017,4 hPa 0,0 l/m 2,1 km/h (1 Bft) W-SW 257 2 min 0,000 mm 0,0 UV-I 66 W/m 9,8 C 12,8 C 3,2 km/h (1 Bft) 92,00 %
05.05.2017 19:52 12,7 C 15,0 C 83 % 1017,4 hPa 0,0 l/m 1,0 km/h (0 Bft) W-SW 257 2 min 0,000 mm 0,0 UV-I 63 W/m 9,9 C 12,7 C 3,2 km/h (1 Bft) 97,73 %
05.05.2017 19:54 12,7 C 15,0 C 82 % 1017,5 hPa 0,0 l/m 0,3 km/h (0 Bft) W-SW 257 2 min 0,000 mm 0,0 UV-I 60 W/m 9,7 C 12,7 C 1,6 km/h (1 Bft) 95,74 %
05.05.2017 19:56 12,6 C 15,0 C 82 % 1017,5 hPa 0,0 l/m 0,2 km/h (0 Bft) W-SW 257 2 min 0,000 mm 0,0 UV-I 58 W/m 9,6 C 12,6 C 1,6 km/h (1 Bft) 93,62 %
05.05.2017 19:58 12,6 C 15,0 C 83 % 1017,5 hPa 0,0 l/m 1,9 km/h (1 Bft) W-SW 257 2 min 0,000 mm 0,0 UV-I 56 W/m 9,8 C 12,6 C 3,2 km/h (1 Bft) 94,34 %
05.05.2017 20:00 12,6 C 15,0 C 83 % 1017,5 hPa 0,0 l/m 2,2 km/h (1 Bft) W-SW 257 2 min 0,051 mm 0,0 UV-I 54 W/m 9,8 C 12,6 C 3,2 km/h (1 Bft) 95,74 %
05.05.2017 20:02 12,6 C 15,0 C 83 % 1017,5 hPa 0,0 l/m 1,9 km/h (1 Bft) W-SW 257 2 min 0,000 mm 0,0 UV-I 53 W/m 9,8 C 12,6 C 3,2 km/h (1 Bft) 94,00 %
05.05.2017 20:04 12,5 C 15,0 C 84 % 1017,5 hPa 0,0 l/m 2,9 km/h (1 Bft) W-SW 257 2 min 0,000 mm 0,0 UV-I 37 W/m 9,9 C 12,5 C 3,2 km/h (1 Bft) 94,74 %
05.05.2017 20:06 12,4 C 15,0 C 84 % 1017,5 hPa 0,0 l/m 1,4 km/h (1 Bft) W-SW 257 2 min 0,000 mm 0,0 UV-I 31 W/m 9,8 C 12,4 C 3,2 km/h (1 Bft) 98,00 %
05.05.2017 20:08 12,4 C 15,0 C 84 % 1017,6 hPa 0,0 l/m 0,9 km/h (0 Bft) W-SW 257 2 min 0,000 mm 0,0 UV-I 26 W/m 9,8 C 12,4 C 1,6 km/h (1 Bft) 97,87 %
05.05.2017 20:10 12,4 C 15,0 C 84 % 1017,5 hPa 0,0 l/m 0,2 km/h (0 Bft) W-SW 257 2 min 0,000 mm 0,0 UV-I 20 W/m 9,8 C 12,4 C 1,6 km/h (1 Bft) 96,23 %
05.05.2017 20:12 12,4 C 15,0 C 84 % 1017,5 hPa 0,0 l/m 0,0 km/h (0 Bft) W-SW 257 0 min 0,000 mm 0,0 UV-I 14 W/m 9,8 C 12,4 C 0,0 km/h (0 Bft) 91,49 %
05.05.2017 20:14 12,3 C 15,0 C 85 % 1017,5 hPa 0,0 l/m 0,0 km/h (0 Bft) W-SW 257 0 min 0,000 mm 0,0 UV-I 9 W/m 9,9 C 12,3 C 0,0 km/h (0 Bft) 94,74 %
05.05.2017 20:16 12,3 C 15,0 C 85 % 1017,5 hPa 0,0 l/m 0,3 km/h (0 Bft) W-SW 257 0 min 0,000 mm 0,0 UV-I 3 W/m 9,9 C 12,3 C 1,6 km/h (1 Bft) 89,36 %
05.05.2017 20:18 12,2 C 15,0 C 85 % 1017,6 hPa 0,0 l/m 0,1 km/h (0 Bft) W-SW 257 0 min 0,000 mm 0,0 UV-I 19 W/m 9,8 C 12,2 C 1,6 km/h (1 Bft) 92,00 %
05.05.2017 20:20 12,1 C 15,0 C 85 % 1017,6 hPa 0,0 l/m 0,1 km/h (0 Bft) W-SW 257 0 min 0,000 mm 0,0 UV-I 18 W/m 9,7 C 12,1 C 1,6 km/h (1 Bft) 95,74 %
05.05.2017 20:22 12,1 C 15,0 C 86 % 1017,6 hPa 0,0 l/m 0,0 km/h (0 Bft) W-SW 257 0 min 0,000 mm 0,0 UV-I 16 W/m 9,8 C 12,1 C 0,0 km/h (0 Bft) 98,00 %
05.05.2017 20:24 12,0 C 15,0 C 86 % 1017,6 hPa 0,0 l/m 0,0 km/h (0 Bft) W-SW 257 0 min 0,000 mm 0,0 UV-I 13 W/m 9,7 C 12,0 C 0,0 km/h (0 Bft) 97,44 %
05.05.2017 20:26 11,8 C 15,0 C 87 % 1017,6 hPa 0,0 l/m 0,5 km/h (0 Bft) W-SW 257 0 min 0,000 mm 0,0 UV-I 12 W/m 9,7 C 11,8 C 1,6 km/h (1 Bft) 98,00 %
05.05.2017 20:28 11,7 C 15,0 C 87 % 1017,6 hPa 0,0 l/m 0,0 km/h (0 Bft) W-SW 257 0 min 0,000 mm 0,0 UV-I 12 W/m 9,6 C 11,7 C 1,6 km/h (1 Bft) 97,87 %
05.05.2017 20:30 11,6 C 15,0 C 88 % 1017,6 hPa 0,0 l/m 0,9 km/h (0 Bft) W-SW 257 0 min 0,000 mm 0,0 UV-I 11 W/m 9,7 C 11,6 C 3,2 km/h (1 Bft) 89,47 %
05.05.2017 20:32 11,4 C 15,0 C 88 % 1017,5 hPa 0,0 l/m 2,9 km/h (1 Bft) W-SW 257 0 min 0,000 mm 0,0 UV-I 10 W/m 9,5 C 11,4 C 3,2 km/h (1 Bft) 96,23 %
05.05.2017 20:34 11,3 C 15,0 C 89 % 1017,5 hPa 0,0 l/m 3,1 km/h (1 Bft) W-SW 257 0 min 0,000 mm 0,0 UV-I 8 W/m 9,6 C 11,3 C 4,8 km/h (1 Bft) 98,00 %
05.05.2017 20:36 11,3 C 15,0 C 89 % 1017,5 hPa 0,0 l/m 1,9 km/h (1 Bft) W-SW 257 0 min 0,000 mm 0,0 UV-I 5 W/m 9,6 C 11,3 C 3,2 km/h (1 Bft) 96,00 %
05.05.2017 20:38 11,2 C 15,0 C 90 % 1017,5 hPa 0,0 l/m 1,8 km/h (1 Bft) W-SW 257 0 min 0,000 mm 0,0 UV-I 5 W/m 9,6 C 11,2 C 3,2 km/h (1 Bft) 92,00 %
05.05.2017 20:40 11,1 C 15,0 C 90 % 1017,5 hPa 0,0 l/m 1,1 km/h (1 Bft) W-SW 257 0 min 0,000 mm 0,0 UV-I 2 W/m 9,5 C 11,1 C 1,6 km/h (1 Bft) 92,11 %
05.05.2017 20:42 10,9 C 15,0 C 90 % 1017,6 hPa 0,0 l/m 0,4 km/h (0 Bft) W-SW 257 0 min 0,000 mm 0,0 UV-I 0 W/m 9,3 C 10,9 C 1,6 km/h (1 Bft) 91,07 %
05.05.2017 20:44 10,9 C 15,0 C 90 % 1017,6 hPa 0,0 l/m 0,2 km/h (0 Bft) W-SW 257 0 min 0,000 mm 0,0 UV-I 0 W/m 9,3 C 10,9 C 1,6 km/h (1 Bft) 89,47 %
05.05.2017 20:46 10,8 C 15,0 C 90 % 1017,6 hPa 0,0 l/m 0,5 km/h (0 Bft) W-SW 257 0 min 0,000 mm 0,0 UV-I 0 W/m 9,2 C 10,8 C 3,2 km/h (1 Bft) 86,79 %
05.05.2017 20:48 10,8 C 15,0 C 91 % 1017,6 hPa 0,0 l/m 1,1 km/h (1 Bft) W-SW 257 0 min 0,000 mm 0,0 UV-I 0 W/m 9,4 C 10,8 C 1,6 km/h (1 Bft) 100,00 %
05.05.2017 20:50 10,8 C 15,0 C 91 % 1017,6 hPa 0,0 l/m 0,1 km/h (0 Bft) W-SW 257 0 min 0,000 mm 0,0 UV-I 0 W/m 9,4 C 10,8 C 1,6 km/h (1 Bft) 92,00 %
05.05.2017 20:52 10,8 C 15,0 C 91 % 1017,6 hPa 0,0 l/m 0,4 km/h (0 Bft) W-SW 257 0 min 0,000 mm 0,0 UV-I 0 W/m 9,4 C 10,8 C 1,6 km/h (1 Bft) 97,87 %
05.05.2017 20:54 10,9 C 15,0 C 91 % 1017,6 hPa 0,0 l/m 0,2 km/h (0 Bft) W-SW 257 0 min 0,000 mm 0,0 UV-I 0 W/m 9,5 C 10,9 C 1,6 km/h (1 Bft) 93,62 %
05.05.2017 20:56 10,9 C 15,0 C 91 % 1017,6 hPa 0,0 l/m 1,9 km/h (1 Bft) W-SW 257 0 min 0,000 mm 0,0 UV-I 0 W/m 9,5 C 10,9 C 3,2 km/h (1 Bft) 95,74 %
05.05.2017 20:58 10,8 C 15,0 C 90 % 1017,7 hPa 0,0 l/m 1,0 km/h (0 Bft) W-SW 257 0 min 0,000 mm 0,0 UV-I 0 W/m 9,2 C 10,8 C 3,2 km/h (1 Bft) 95,83 %
05.05.2017 21:00 10,8 C 15,0 C 91 % 1017,7 hPa 0,0 l/m 0,0 km/h (0 Bft) W-SW 257 0 min 0,000 mm 0,0 UV-I 0 W/m 9,4 C 10,8 C 0,0 km/h (0 Bft) 94,29 %
05.05.2017 21:02 10,7 C 15,0 C 90 % 1017,7 hPa 0,0 l/m 0,0 km/h (0 Bft) W-SW 257 0 min 0,000 mm 0,0 UV-I 0 W/m 9,1 C 10,7 C 0,0 km/h (0 Bft) 91,67 %
05.05.2017 21:04 10,5 C 15,0 C 90 % 1017,7 hPa 0,0 l/m 0,0 km/h (0 Bft) W-SW 257 0 min 0,000 mm 0,0 UV-I 0 W/m 8,9 C 10,5 C 1,6 km/h (1 Bft) 95,74 %
05.05.2017 21:06 10,4 C 15,0 C 91 % 1017,7 hPa 0,0 l/m 0,4 km/h (0 Bft) W-SW 257 0 min 0,000 mm 0,0 UV-I 0 W/m 9,0 C 10,4 C 1,6 km/h (1 Bft) 97,87 %
05.05.2017 21:08 10,3 C 15,0 C 91 % 1017,8 hPa 0,0 l/m 0,1 km/h (0 Bft) W-SW 257 0 min 0,000 mm 0,0 UV-I 0 W/m 8,9 C 10,3 C 1,6 km/h (1 Bft) 97,56 %
05.05.2017 21:10 10,2 C 15,0 C 91 % 1017,8 hPa 0,0 l/m 0,0 km/h (0 Bft) W-SW 257 0 min 0,000 mm 0,0 UV-I 0 W/m 8,8 C 10,2 C 1,6 km/h (1 Bft) 94,00 %
05.05.2017 21:12 10,2 C 15,0 C 92 % 1017,8 hPa 0,0 l/m 0,0 km/h (0 Bft) W-SW 257 0 min 0,000 mm 0,0 UV-I 0 W/m 9,0 C 10,2 C 0,0 km/h (0 Bft) 98,11 %
05.05.2017 21:14 10,1 C 15,0 C 92 % 1017,8 hPa 0,0 l/m 0,0 km/h (0 Bft) W-SW 257 0 min 0,000 mm 0,0 UV-I 0 W/m 8,9 C 10,1 C 0,0 km/h (0 Bft) 100,00 %
05.05.2017 21:16 10,1 C 15,0 C 92 % 1017,8 hPa 0,0 l/m 1,8 km/h (1 Bft) W-SW 257 0 min 0,000 mm 0,0 UV-I 0 W/m 8,9 C 10,1 C 3,2 km/h (1 Bft) 98,00 %
05.05.2017 21:18 10,0 C 15,0 C 92 % 1017,8 hPa 0,0 l/m 2,3 km/h (1 Bft) W-SW 257 0 min 0,000 mm 0,0 UV-I 0 W/m 8,8 C 10,0 C 3,2 km/h (1 Bft) 95,74 %
05.05.2017 21:20 10,1 C 15,0 C 92 % 1017,8 hPa 0,0 l/m 1,9 km/h (1 Bft) W-SW 257 0 min 0,000 mm 0,0 UV-I 0 W/m 8,9 C 10,1 C 3,2 km/h (1 Bft) 100,00 %
05.05.2017 21:22 10,1 C 15,0 C 92 % 1017,8 hPa 0,0 l/m 1,3 km/h (1 Bft) W-SW 257 0 min 0,000 mm 0,0 UV-I 0 W/m 8,9 C 10,1 C 3,2 km/h (1 Bft) 95,74 %
05.05.2017 21:24 10,1 C 15,0 C 92 % 1017,8 hPa 0,0 l/m 0,3 km/h (0 Bft) W-SW 257 0 min 0,000 mm 0,0 UV-I 0 W/m 8,9 C 10,1 C 1,6 km/h (1 Bft) 100,00 %
05.05.2017 21:26 10,1 C 15,0 C 92 % 1017,8 hPa 0,0 l/m 0,0 km/h (0 Bft) W-SW 257 0 min 0,000 mm 0,0 UV-I 0 W/m 8,9 C 10,1 C 1,6 km/h (1 Bft) 100,00 %
05.05.2017 21:28 10,1 C 15,0 C 92 % 1017,8 hPa 0,0 l/m 1,2 km/h (1 Bft) W-SW 257 0 min 0,000 mm 0,0 UV-I 0 W/m 8,9 C 10,1 C 1,6 km/h (1 Bft) 91,49 %
05.05.2017 21:30 10,1 C 15,0 C 92 % 1017,8 hPa 0,0 l/m 0,8 km/h (0 Bft) W-SW 257 0 min 0,000 mm 0,0 UV-I 0 W/m 8,9 C 10,1 C 1,6 km/h (1 Bft) 100,00 %
05.05.2017 21:32 10,2 C 15,0 C 92 % 1017,8 hPa 0,0 l/m 0,0 km/h (0 Bft) W-SW 257 0 min 0,000 mm 0,0 UV-I 0 W/m 9,0 C 10,2 C 0,0 km/h (0 Bft) 100,00 %
05.05.2017 21:34 10,1 C 15,0 C 92 % 1017,8 hPa 0,0 l/m 1,5 km/h (1 Bft) W-SW 257 0 min 0,000 mm 0,0 UV-I 0 W/m 8,9 C 10,1 C 3,2 km/h (1 Bft) 96,23 %
05.05.2017 21:36 10,1 C 15,0 C 91 % 1017,8 hPa 0,0 l/m 0,9 km/h (0 Bft) W-SW 257 0 min 0,000 mm 0,0 UV-I 0 W/m 8,7 C 10,1 C 1,6 km/h (1 Bft) 97,87 %
05.05.2017 21:38 9,9 C 15,0 C 91 % 1017,7 hPa 0,0 l/m 0,2 km/h (0 Bft) W-SW 257 0 min 0,000 mm 0,0 UV-I 0 W/m 8,5 C 9,9 C 1,6 km/h (1 Bft) 100,00 %
05.05.2017 21:40 9,8 C 15,0 C 91 % 1017,7 hPa 0,0 l/m 0,0 km/h (0 Bft) W-SW 257 0 min 0,000 mm 0,0 UV-I 0 W/m 8,4 C 9,8 C 1,6 km/h (1 Bft) 97,87 %
05.05.2017 21:42 9,8 C 15,0 C 91 % 1017,7 hPa 0,0 l/m 0,0 km/h (0 Bft) W-SW 257 0 min 0,000 mm 0,0 UV-I 0 W/m 8,4 C 9,8 C 0,0 km/h (0 Bft) 100,00 %
05.05.2017 21:44 9,8 C 15,0 C 92 % 1017,8 hPa 0,0 l/m 0,0 km/h (0 Bft) W-SW 257 0 min 0,000 mm 0,0 UV-I 0 W/m 8,6 C 9,8 C 0,0 km/h (0 Bft) 98,00 %
05.05.2017 21:46 9,7 C 15,0 C 92 % 1017,7 hPa 0,0 l/m 0,0 km/h (0 Bft) W-SW 257 0 min 0,000 mm 0,0 UV-I 0 W/m 8,5 C 9,7 C 0,0 km/h (0 Bft) 100,00 %
05.05.2017 21:48 9,7 C 15,0 C 92 % 1017,7 hPa 0,0 l/m 0,0 km/h (0 Bft) W-SW 257 0 min 0,000 mm 0,0 UV-I 0 W/m 8,5 C 9,7 C 1,6 km/h (1 Bft) 100,00 %
05.05.2017 21:50 9,6 C 15,0 C 91 % 1017,8 hPa 0,0 l/m 0,0 km/h (0 Bft) W-SW 257 0 min 0,000 mm 0,0 UV-I 0 W/m 8,2 C 9,6 C 0,0 km/h (0 Bft) 95,74 %
05.05.2017 21:52 9,6 C 15,0 C 92 % 1017,8 hPa 0,0 l/m 0,0 km/h (0 Bft) W-SW 257 0 min 0,000 mm 0,0 UV-I 0 W/m 8,4 C 9,6 C 0,0 km/h (0 Bft) 91,49 %
05.05.2017 21:54 9,6 C 15,0 C 92 % 1017,8 hPa 0,0 l/m 0,1 km/h (0 Bft) W-SW 257 0 min 0,000 mm 0,0 UV-I 0 W/m 8,4 C 9,6 C 1,6 km/h (1 Bft) 96,43 %
05.05.2017 21:56 9,5 C 15,0 C 92 % 1017,8 hPa 0,0 l/m 0,0 km/h (0 Bft) W-SW 257 0 min 0,000 mm 0,0 UV-I 0 W/m 8,3 C 9,5 C 1,6 km/h (1 Bft) 97,87 %
05.05.2017 21:58 9,6 C 15,0 C 92 % 1017,8 hPa 0,0 l/m 1,0 km/h (0 Bft) W-SW 257 0 min 0,000 mm 0,0 UV-I 0 W/m 8,4 C 9,6 C 1,6 km/h (1 Bft) 100,00 %
05.05.2017 22:00 9,4 C 15,0 C 91 % 1017,8 hPa 0,0 l/m 1,3 km/h (1 Bft) W-SW 257 0 min 0,000 mm 0,0 UV-I 0 W/m 8,0 C 9,4 C 3,2 km/h (1 Bft) 90,57 %
05.05.2017 22:02 9,2 C 15,0 C 91 % 1017,8 hPa 0,0 l/m 2,5 km/h (1 Bft) W-SW 257 0 min 0,000 mm 0,0 UV-I 0 W/m 7,8 C 9,2 C 3,2 km/h (1 Bft) 98,00 %
05.05.2017 22:04 9,1 C 15,0 C 92 % 1017,7 hPa 0,0 l/m 2,1 km/h (1 Bft) W-SW 257 0 min 0,000 mm 0,0 UV-I 0 W/m 7,9 C 9,1 C 3,2 km/h (1 Bft) 97,37 %
05.05.2017 22:06 9,0 C 15,0 C 92 % 1017,7 hPa 0,0 l/m 1,9 km/h (1 Bft) W-SW 257 0 min 0,000 mm 0,0 UV-I 0 W/m 7,8 C 9,0 C 3,2 km/h (1 Bft) 100,00 %
05.05.2017 22:08 9,0 C 15,0 C 92 % 1017,7 hPa 0,0 l/m 0,7 km/h (0 Bft) W-SW 257 0 min 0,000 mm 0,0 UV-I 0 W/m 7,8 C 9,0 C 1,6 km/h (1 Bft) 98,00 %
05.05.2017 22:10 8,9 C 15,0 C 93 % 1017,8 hPa 0,0 l/m 0,0 km/h (0 Bft) W-SW 257 0 min 0,000 mm 0,0 UV-I 0 W/m 7,8 C 8,9 C 0,0 km/h (0 Bft) 94,74 %
05.05.2017 22:13 8,8 C 15,0 C 93 % 1017,8 hPa 0,0 l/m 0,0 km/h (0 Bft) W-SW 257 0 min 0,000 mm 0,0 UV-I 0 W/m 7,7 C 8,8 C 0,0 km/h (0 Bft) 98,75 %
05.05.2017 22:14 8,8 C 15,0 C 93 % 1017,8 hPa 0,0 l/m 0,7 km/h (0 Bft) W-SW 257 0 min 0,000 mm 0,0 UV-I 0 W/m 7,7 C 8,8 C 1,6 km/h (1 Bft) 100,00 %
05.05.2017 22:16 8,7 C 15,0 C 93 % 1017,8 hPa 0,0 l/m 1,7 km/h (1 Bft) W-SW 257 0 min 0,000 mm 0,0 UV-I 0 W/m 7,6 C 8,7 C 3,2 km/h (1 Bft) 97,87 %
05.05.2017 22:18 8,7 C 15,0 C 94 % 1017,8 hPa 0,0 l/m 1,1 km/h (1 Bft) W-SW 257 0 min 0,000 mm 0,0 UV-I 0 W/m 7,8 C 8,7 C 1,6 km/h (1 Bft) 98,00 %
05.05.2017 22:20 8,7 C 15,0 C 94 % 1017,8 hPa 0,0 l/m 0,6 km/h (0 Bft) W-SW 257 0 min 0,000 mm 0,0 UV-I 0 W/m 7,8 C 8,7 C 1,6 km/h (1 Bft) 98,00 %
05.05.2017 22:22 8,7 C 15,0 C 94 % 1017,8 hPa 0,0 l/m 0,1 km/h (0 Bft) W-SW 257 0 min 0,000 mm 0,0 UV-I 0 W/m 7,8 C 8,7 C 1,6 km/h (1 Bft) 92,68 %
05.05.2017 22:24 8,6 C 15,0 C 93 % 1017,8 hPa 0,0 l/m 0,0 km/h (0 Bft) W-SW 257 0 min 0,000 mm 0,0 UV-I 0 W/m 7,5 C 8,6 C 0,0 km/h (0 Bft) 94,44 %
05.05.2017 22:26 8,6 C 15,0 C 93 % 1017,7 hPa 0,0 l/m 0,8 km/h (0 Bft) W-SW 257 0 min 0,000 mm 0,0 UV-I 0 W/m 7,5 C 8,6 C 3,2 km/h (1 Bft) 96,88 %
05.05.2017 22:28 8,5 C 15,0 C 93 % 1017,6 hPa 0,0 l/m 2,7 km/h (1 Bft) W-SW 257 0 min 0,000 mm 0,0 UV-I 0 W/m 7,4 C 8,5 C 3,2 km/h (1 Bft) 95,74 %
05.05.2017 22:30 8,6 C 15,0 C 93 % 1017,7 hPa 0,0 l/m 2,9 km/h (1 Bft) W-SW 257 0 min 0,000 mm 0,0 UV-I 0 W/m 7,5 C 8,6 C 3,2 km/h (1 Bft) 97,78 %
05.05.2017 22:32 8,6 C 15,0 C 93 % 1017,6 hPa 0,0 l/m 2,8 km/h (1 Bft) W-SW 257 0 min 0,000 mm 0,0 UV-I 0 W/m 7,5 C 8,6 C 3,2 km/h (1 Bft) 97,37 %
05.05.2017 22:34 8,6 C 15,0 C 93 % 1017,6 hPa 0,0 l/m 2,6 km/h (1 Bft) W-SW 257 0 min 0,000 mm 0,0 UV-I 0 W/m 7,5 C 8,6 C 3,2 km/h (1 Bft) 100,00 %
05.05.2017 22:36 8,5 C 15,0 C 93 % 1017,6 hPa 0,0 l/m 2,3 km/h (1 Bft) W-SW 257 0 min 0,000 mm 0,0 UV-I 0 W/m 7,4 C 8,5 C 3,2 km/h (1 Bft) 96,55 %
05.05.2017 22:38 8,6 C 15,0 C 93 % 1017,6 hPa 0,0 l/m 1,5 km/h (1 Bft) W-SW 257 0 min 0,000 mm 0,0 UV-I 0 W/m 7,5 C 8,6 C 3,2 km/h (1 Bft) 93,85 %
05.05.2017 22:40 8,6 C 15,0 C 93 % 1017,6 hPa 0,0 l/m 0,3 km/h (0 Bft) W-SW 257 0 min 0,000 mm 0,0 UV-I 0 W/m 7,5 C 8,6 C 1,6 km/h (1 Bft) 95,74 %
05.05.2017 22:42 8,6 C 15,0 C 93 % 1017,6 hPa 0,0 l/m 0,0 km/h (0 Bft) W-SW 257 0 min 0,000 mm 0,0 UV-I 0 W/m 7,5 C 8,6 C 0,0 km/h (0 Bft) 97,37 %
05.05.2017 22:44 8,6 C 15,0 C 93 % 1017,6 hPa 0,0 l/m 0,2 km/h (0 Bft) W-SW 257 0 min 0,000 mm 0,0 UV-I 0 W/m 7,5 C 8,6 C 1,6 km/h (1 Bft) 96,43 %
05.05.2017 22:46 8,6 C 15,0 C 93 % 1017,5 hPa 0,0 l/m 0,6 km/h (0 Bft) W-SW 257 0 min 0,000 mm 0,0 UV-I 0 W/m 7,5 C 8,6 C 1,6 km/h (1 Bft) 96,15 %
05.05.2017 22:48 8,6 C 15,0 C 93 % 1017,6 hPa 0,0 l/m 1,4 km/h (1 Bft) W-SW 257 0 min 0,000 mm 0,0 UV-I 0 W/m 7,5 C 8,6 C 3,2 km/h (1 Bft) 98,53 %
05.05.2017 22:50 8,6 C 15,0 C 93 % 1017,5 hPa 0,0 l/m 0,9 km/h (0 Bft) W-SW 257 0 min 0,000 mm 0,0 UV-I 0 W/m 7,5 C 8,6 C 3,2 km/h (1 Bft) 96,00 %
05.05.2017 22:52 8,5 C 15,0 C 93 % 1017,6 hPa 0,0 l/m 0,0 km/h (0 Bft) W-SW 257 0 min 0,000 mm 0,0 UV-I 0 W/m 7,4 C 8,5 C 1,6 km/h (1 Bft) 95,74 %
05.05.2017 22:54 8,5 C 15,0 C 93 % 1017,6 hPa 0,0 l/m 0,0 km/h (0 Bft) W-SW 257 0 min 0,000 mm 0,0 UV-I 0 W/m 7,4 C 8,5 C 0,0 km/h (0 Bft) 95,74 %
05.05.2017 22:56 8,4 C 15,0 C 93 % 1017,6 hPa 0,0 l/m 0,0 km/h (0 Bft) W-SW 257 0 min 0,000 mm 0,0 UV-I 0 W/m 7,3 C 8,4 C 0,0 km/h (0 Bft) 97,50 %
05.05.2017 22:58 8,4 C 15,0 C 93 % 1017,5 hPa 0,0 l/m 0,0 km/h (0 Bft) W-SW 257 0 min 0,000 mm 0,0 UV-I 0 W/m 7,3 C 8,4 C 0,0 km/h (0 Bft) 96,00 %
05.05.2017 23:00 8,4 C 15,0 C 93 % 1017,5 hPa 0,0 l/m 0,0 km/h (0 Bft) W-SW 257 0 min 0,000 mm 0,0 UV-I 0 W/m 7,3 C 8,4 C 0,0 km/h (0 Bft) 95,74 %
05.05.2017 23:02 8,4 C 15,0 C 94 % 1017,5 hPa 0,0 l/m 0,0 km/h (0 Bft) W-SW 257 0 min 0,000 mm 0,0 UV-I 0 W/m 7,5 C 8,4 C 0,0 km/h (0 Bft) 98,00 %
05.05.2017 23:04 8,4 C 15,0 C 94 % 1017,5 hPa 0,0 l/m 0,0 km/h (0 Bft) W-SW 257 0 min 0,000 mm 0,0 UV-I 0 W/m 7,5 C 8,4 C 0,0 km/h (0 Bft) 95,74 %
05.05.2017 23:06 8,4 C 15,0 C 94 % 1017,6 hPa 0,0 l/m 0,0 km/h (0 Bft) W-SW 257 0 min 0,000 mm 0,0 UV-I 0 W/m 7,5 C 8,4 C 0,0 km/h (0 Bft) 95,74 %
05.05.2017 23:08 8,4 C 15,0 C 94 % 1017,6 hPa 0,0 l/m 0,0 km/h (0 Bft) W-SW 257 0 min 0,000 mm 0,0 UV-I 0 W/m 7,5 C 8,4 C 0,0 km/h (0 Bft) 95,74 %
05.05.2017 23:10 8,4 C 15,0 C 94 % 1017,6 hPa 0,0 l/m 0,0 km/h (0 Bft) W-SW 257 0 min 0,000 mm 0,0 UV-I 0 W/m 7,5 C 8,4 C 0,0 km/h (0 Bft) 95,83 %
05.05.2017 23:12 8,3 C 15,0 C 94 % 1017,5 hPa 0,0 l/m 0,0 km/h (0 Bft) W-SW 257 0 min 0,000 mm 0,0 UV-I 0 W/m 7,4 C 8,3 C 0,0 km/h (0 Bft) 94,74 %
05.05.2017 23:14 8,3 C 15,0 C 93 % 1017,6 hPa 0,0 l/m 0,0 km/h (0 Bft) W-SW 257 0 min 0,000 mm 0,0 UV-I 0 W/m 7,2 C 8,3 C 0,0 km/h (0 Bft) 94,34 %
05.05.2017 23:16 8,2 C 15,0 C 93 % 1017,5 hPa 0,0 l/m 0,0 km/h (0 Bft) W-SW 257 0 min 0,000 mm 0,0 UV-I 0 W/m 7,1 C 8,2 C 0,0 km/h (0 Bft) 95,74 %
05.05.2017 23:18 8,1 C 15,0 C 93 % 1017,6 hPa 0,0 l/m 0,0 km/h (0 Bft) W-SW 257 0 min 0,000 mm 0,0 UV-I 0 W/m 7,0 C 8,1 C 0,0 km/h (0 Bft) 97,37 %
05.05.2017 23:20 8,1 C 15,0 C 94 % 1017,6 hPa 0,0 l/m 0,1 km/h (0 Bft) W-SW 257 0 min 0,000 mm 0,0 UV-I 0 W/m 7,2 C 8,1 C 1,6 km/h (1 Bft) 98,11 %
05.05.2017 23:22 8,1 C 15,0 C 94 % 1017,5 hPa 0,0 l/m 3,0 km/h (1 Bft) W-SW 257 0 min 0,000 mm 0,0 UV-I 0 W/m 7,2 C 8,1 C 3,2 km/h (1 Bft) 98,00 %
05.05.2017 23:24 8,1 C 15,0 C 94 % 1017,5 hPa 0,0 l/m 1,4 km/h (1 Bft) W-SW 257 0 min 0,000 mm 0,0 UV-I 0 W/m 7,2 C 8,1 C 3,2 km/h (1 Bft) 94,29 %
05.05.2017 23:26 7,9 C 15,0 C 93 % 1017,5 hPa 0,0 l/m 0,0 km/h (0 Bft) W-SW 257 0 min 0,000 mm 0,0 UV-I 0 W/m 6,8 C 7,9 C 0,0 km/h (0 Bft) 98,11 %
05.05.2017 23:28 7,8 C 15,0 C 93 % 1017,5 hPa 0,0 l/m 0,0 km/h (0 Bft) W-SW 257 0 min 0,000 mm 0,0 UV-I 0 W/m 6,7 C 7,8 C 0,0 km/h (0 Bft) 93,62 %
05.05.2017 23:30 7,8 C 15,0 C 94 % 1017,5 hPa 0,0 l/m 0,9 km/h (0 Bft) W-SW 257 0 min 0,000 mm 0,0 UV-I 0 W/m 6,9 C 7,8 C 3,2 km/h (1 Bft) 92,45 %
05.05.2017 23:32 7,8 C 15,0 C 94 % 1017,5 hPa 0,0 l/m 1,3 km/h (1 Bft) W-SW 257 0 min 0,000 mm 0,0 UV-I 0 W/m 6,9 C 7,8 C 3,2 km/h (1 Bft) 97,56 %
05.05.2017 23:34 7,9 C 15,0 C 94 % 1017,5 hPa 0,0 l/m 0,9 km/h (0 Bft) W-SW 257 0 min 0,000 mm 0,0 UV-I 0 W/m 7,0 C 7,9 C 3,2 km/h (1 Bft) 95,35 %
05.05.2017 23:36 7,9 C 15,0 C 94 % 1017,5 hPa 0,0 l/m 1,3 km/h (1 Bft) W-SW 257 0 min 0,000 mm 0,0 UV-I 0 W/m 7,0 C 7,9 C 3,2 km/h (1 Bft) 96,43 %
05.05.2017 23:38 7,8 C 15,0 C 94 % 1017,5 hPa 0,0 l/m 0,0 km/h (0 Bft) W-SW 257 0 min 0,000 mm 0,0 UV-I 0 W/m 6,9 C 7,8 C 0,0 km/h (0 Bft) 97,56 %
05.05.2017 23:40 7,8 C 15,0 C 94 % 1017,5 hPa 0,0 l/m 0,0 km/h (0 Bft) W-SW 257 0 min 0,000 mm 0,0 UV-I 0 W/m 6,9 C 7,8 C 0,0 km/h (0 Bft) 97,87 %
05.05.2017 23:42 7,8 C 15,0 C 94 % 1017,5 hPa 0,0 l/m 1,1 km/h (1 Bft) W-SW 257 0 min 0,000 mm 0,0 UV-I 0 W/m 6,9 C 7,8 C 3,2 km/h (1 Bft) 95,83 %
05.05.2017 23:44 7,8 C 15,0 C 94 % 1017,5 hPa 0,0 l/m 1,7 km/h (1 Bft) W-SW 257 0 min 0,000 mm 0,0 UV-I 0 W/m 6,9 C 7,8 C 3,2 km/h (1 Bft) 94,00 %
05.05.2017 23:46 7,8 C 15,0 C 94 % 1017,5 hPa 0,0 l/m 2,0 km/h (1 Bft) W-SW 257 0 min 0,000 mm 0,0 UV-I 0 W/m 6,9 C 7,8 C 3,2 km/h (1 Bft) 94,87 %
05.05.2017 23:48 7,8 C 15,0 C 94 % 1017,5 hPa 0,0 l/m 2,1 km/h (1 Bft) W-SW 257 0 min 0,000 mm 0,0 UV-I 0 W/m 6,9 C 7,8 C 3,2 km/h (1 Bft) 94,34 %
05.05.2017 23:50 7,9 C 15,0 C 95 % 1017,5 hPa 0,0 l/m 1,7 km/h (1 Bft) W-SW 257 0 min 0,000 mm 0,0 UV-I 0 W/m 7,1 C 7,9 C 3,2 km/h (1 Bft) 95,12 %
05.05.2017 23:52 7,9 C 15,0 C 95 % 1017,5 hPa 0,0 l/m 1,8 km/h (1 Bft) W-SW 257 0 min 0,000 mm 0,0 UV-I 0 W/m 7,1 C 7,9 C 3,2 km/h (1 Bft) 94,34 %
05.05.2017 23:54 7,9 C 14,4 C 94 % 1017,5 hPa 0,0 l/m 2,5 km/h (1 Bft) W-SW 257 0 min 0,000 mm 0,0 UV-I 0 W/m 7,0 C 7,9 C 4,8 km/h (1 Bft) 95,74 %
05.05.2017 23:56 8,0 C 15,0 C 95 % 1017,4 hPa 0,0 l/m 2,7 km/h (1 Bft) W-SW 257 0 min 0,000 mm 0,0 UV-I 0 W/m 7,2 C 8,0 C 3,2 km/h (1 Bft) 98,00 %
05.05.2017 23:58 8,1 C 15,0 C 95 % 1017,4 hPa 0,0 l/m 1,0 km/h (0 Bft) W-SW 257 0 min 0,000 mm 0,0 UV-I 0 W/m 7,3 C 8,1 C 3,2 km/h (1 Bft) 94,74 %
_ Min-Zeit 23:28 05:22 15:48 00:00 - 20:12 - - - - - - 23:28 02:58 20:12 07:40
Minimum _ 7,8 C 14,4 C 75 % 1014,1 hPa - 0,0 km/h (0 Bft) - - - - - - 6,7 C 3,7 C 0,0 km/h (0 Bft) 85,37 %
_ Max-Zeit 17:38 00:00 23:50 21:08 00:00 12:32 - - 18:53 14:00 13:32 10:08 18:48 17:36 10:42 00:00
Maximum _ 13,6 C 15,0 C 95 % 1017,8 hPa 0,0 l/m 23,1 km/h
W (4 Bft)
- - 3 min 0,254 mm 3,3 UV-I 716 W/m 10,0 C 13,5 C 32,2 km/h
SW (5 Bft)
100,00 %
Durchschnitt _ 10,5 C 14,8 C 86 % 1016,4 hPa #0,0 l/m 8,7 km/h (2 Bft) W-SW - #3:48 h #1,778 mm 1,2 UV-I 199 W/m 8,2 C 8,4 C 13,9 km/h (3 Bft) 96,55 %